[[{"header":{"parameterUnit":"m.s-1","parameterCategory":1,"la1":30.6,"la2":29.2853,"lo1":-89.7004,"lo2":-87.6739,"dy":0.0162,"dx":0.0183,"nx":112,"ny":82,"refTime":"2023-04-07T00:00:00:Z","depth":0,"parameterNumber":2,"parameterNumberName":"U-component_of_WINDS"},"data":[0.0,0.0,0.0,0.0,0.0,0.0,0.0,0.0,0.0,0.0,0.0,0.0,0.0,0.0,0.0,0.0,0.0,0.0,0.0,0.0,0.0,0.0,0.0,0.0,0.0,0.0,0.0,0.0,0.0,0.0,0.0,0.0,0.0,0.0,0.0,0.0,0.0,0.0,0.0,0.0,0.0,0.0,0.0,0.0,0.0,0.0,0.0,0.0,0.0,0.0,0.0,0.0,0.0,0.0,0.0,0.0,0.0,0.0,0.0,0.0,0.0,0.0,0.0,0.0,0.0,0.0,0.0,0.0,0.0,0.0,0.0,0.0,0.0,0.0,0.0,0.0,0.0,0.0,0.0,0.0,0.0,0.0,0.0,0.0,0.0,0.0,0.0,0.0,0.0,0.0,0.0,-3.2613,-3.4203,-3.427,-3.2135,-3.1014,-2.9316,-2.6753,0.0,0.0,0.0,0.0,0.0,0.0,0.0,0.0,0.0,0.0,0.0,0.0,0.0,0.0,0.0,0.0,0.0,0.0,0.0,0.0,0.0,0.0,0.0,0.0,0.0,0.0,0.0,0.0,0.0,0.0,0.0,0.0,0.0,0.0,0.0,0.0,0.0,0.0,0.0,0.0,0.0,0.0,0.0,0.0,0.0,0.0,0.0,0.0,0.0,0.0,0.0,0.0,0.0,0.0,0.0,0.0,0.0,0.0,0.0,0.0,0.0,0.0,0.0,0.0,0.0,0.0,0.0,0.0,0.0,0.0,0.0,0.0,0.0,0.0,0.0,0.0,0.0,0.0,0.0,0.0,0.0,0.0,0.0,0.0,0.0,0.0,0.0,0.0,0.0,0.0,0.0,0.0,0.0,0.0,0.0,0.0,0.0,0.0,0.0,0.0,0.0,0.0,0.0,0.0,-3.0664,-3.3486,-3.4148,-3.3785,-3.2352,-2.8953,-2.7045,-2.739,0.0,0.0,0.0,0.0,0.0,0.0,0.0,0.0,0.0,0.0,0.0,0.0,0.0,0.0,0.0,0.0,0.0,0.0,0.0,0.0,0.0,0.0,0.0,0.0,0.0,0.0,0.0,0.0,0.0,0.0,0.0,0.0,0.0,0.0,0.0,0.0,0.0,0.0,0.0,0.0,0.0,0.0,0.0,0.0,0.0,0.0,0.0,0.0,0.0,0.0,0.0,0.0,0.0,0.0,0.0,0.0,0.0,0.0,0.0,0.0,0.0,0.0,0.0,0.0,0.0,0.0,0.0,0.0,0.0,0.0,0.0,0.0,0.0,0.0,0.0,0.0,0.0,0.0,0.0,0.0,0.0,0.0,0.0,0.0,0.0,0.0,0.0,0.0,0.0,0.0,0.0,0.0,0.0,0.0,0.0,0.0,0.0,0.0,0.0,0.0,0.0,0.0,0.0,-3.1002,-3.2264,-3.4072,-3.3963,-3.3031,-3.1244,-2.8018,-2.6304,-2.6813,-2.4996,0.0,0.0,0.0,0.0,0.0,0.0,0.0,0.0,0.0,0.0,0.0,0.0,0.0,0.0,0.0,0.0,0.0,0.0,0.0,0.0,0.0,0.0,0.0,0.0,0.0,0.0,0.0,0.0,0.0,0.0,0.0,0.0,0.0,0.0,0.0,0.0,0.0,0.0,0.0,0.0,0.0,0.0,0.0,0.0,0.0,0.0,0.0,0.0,0.0,0.0,0.0,0.0,0.0,0.0,0.0,0.0,0.0,0.0,0.0,0.0,0.0,0.0,0.0,0.0,0.0,0.0,0.0,0.0,0.0,0.0,0.0,0.0,0.0,0.0,0.0,0.0,0.0,0.0,0.0,0.0,0.0,0.0,0.0,0.0,0.0,0.0,0.0,0.0,0.0,0.0,0.0,0.0,0.0,0.0,0.0,0.0,0.0,0.0,0.0,0.0,0.0,0.0,-3.2803,-3.3229,-3.437,-3.3846,-3.2452,-3.0123,-2.7339,-2.5812,-2.603,-2.3665,0.0,0.0,0.0,0.0,0.0,0.0,0.0,0.0,0.0,0.0,0.0,0.0,0.0,0.0,0.0,0.0,0.0,0.0,0.0,0.0,0.0,0.0,0.0,0.0,0.0,0.0,0.0,0.0,0.0,0.0,0.0,0.0,0.0,0.0,0.0,0.0,0.0,0.0,0.0,0.0,0.0,0.0,0.0,0.0,0.0,0.0,0.0,0.0,0.0,0.0,0.0,0.0,0.0,0.0,0.0,0.0,0.0,0.0,0.0,0.0,0.0,0.0,0.0,0.0,0.0,0.0,0.0,0.0,0.0,0.0,0.0,0.0,0.0,0.0,0.0,0.0,0.0,0.0,0.0,0.0,0.0,0.0,0.0,0.0,0.0,0.0,0.0,0.0,0.0,0.0,0.0,0.0,0.0,0.0,0.0,0.0,0.0,0.0,0.0,0.0,0.0,0.0,-3.1465,-3.2154,-3.4269,-3.3846,-3.229,-2.9582,-2.6438,-2.4879,-2.5508,-2.305,0.0,0.0,0.0,0.0,0.0,0.0,0.0,0.0,0.0,0.0,0.0,0.0,0.0,0.0,0.0,0.0,0.0,0.0,0.0,0.0,0.0,0.0,0.0,0.0,0.0,0.0,0.0,0.0,0.0,0.0,0.0,0.0,0.0,0.0,0.0,0.0,0.0,0.0,0.0,0.0,0.0,0.0,0.0,0.0,0.0,0.0,0.0,0.0,0.0,0.0,0.0,0.0,0.0,0.0,0.0,0.0,0.0,0.0,0.0,0.0,0.0,0.0,0.0,0.0,0.0,0.0,0.0,0.0,0.0,0.0,0.0,0.0,0.0,0.0,0.0,0.0,0.0,0.0,0.0,0.0,0.0,0.0,0.0,0.0,0.0,0.0,0.0,0.0,0.0,0.0,0.0,0.0,0.0,0.0,0.0,0.0,0.0,0.0,0.0,0.0,0.0,0.0,-3.1579,-3.1934,0.0,-3.2377,-3.1077,-2.8297,-2.5863,-2.4738,-2.5275,0.0,0.0,0.0,0.0,0.0,0.0,0.0,0.0,0.0,0.0,0.0,0.0,0.0,0.0,0.0,0.0,0.0,0.0,0.0,0.0,0.0,0.0,0.0,0.0,0.0,0.0,0.0,0.0,0.0,0.0,0.0,0.0,0.0,0.0,0.0,0.0,0.0,0.0,0.0,0.0,0.0,0.0,0.0,0.0,0.0,0.0,0.0,0.0,0.0,0.0,0.0,0.0,0.0,0.0,0.0,0.0,0.0,0.0,0.0,0.0,0.0,0.0,0.0,0.0,0.0,0.0,0.0,0.0,0.0,0.0,0.0,0.0,0.0,0.0,0.0,0.0,0.0,0.0,0.0,0.0,0.0,0.0,0.0,0.0,0.0,0.0,0.0,0.0,0.0,0.0,0.0,0.0,0.0,0.0,0.0,0.0,0.0,0.0,0.0,0.0,0.0,0.0,-3.0672,-3.1077,-3.1257,0.0,-3.1494,-3.0384,-2.7602,-2.543,-2.4429,-2.4922,0.0,0.0,0.0,0.0,0.0,0.0,0.0,0.0,0.0,0.0,0.0,0.0,0.0,0.0,0.0,0.0,0.0,0.0,0.0,0.0,0.0,0.0,0.0,0.0,0.0,0.0,0.0,0.0,0.0,0.0,0.0,0.0,0.0,0.0,0.0,0.0,0.0,0.0,0.0,0.0,0.0,0.0,0.0,0.0,0.0,0.0,0.0,0.0,0.0,0.0,0.0,0.0,0.0,0.0,0.0,0.0,0.0,0.0,0.0,0.0,0.0,0.0,0.0,0.0,0.0,0.0,0.0,0.0,0.0,0.0,0.0,0.0,0.0,0.0,0.0,0.0,0.0,0.0,0.0,0.0,0.0,0.0,0.0,0.0,0.0,0.0,0.0,0.0,0.0,0.0,0.0,0.0,0.0,0.0,0.0,0.0,0.0,0.0,0.0,0.0,0.0,0.0,-2.9635,-2.9632,-2.9934,-3.1326,-3.147,-3.0371,-2.7705,-2.5088,-2.3826,0.0,0.0,0.0,0.0,0.0,0.0,0.0,0.0,0.0,0.0,0.0,0.0,0.0,0.0,0.0,0.0,0.0,0.0,0.0,0.0,0.0,0.0,0.0,0.0,0.0,0.0,0.0,0.0,0.0,0.0,0.0,0.0,0.0,0.0,0.0,0.0,0.0,0.0,0.0,0.0,0.0,0.0,0.0,0.0,0.0,0.0,0.0,0.0,0.0,0.0,0.0,0.0,0.0,0.0,0.0,0.0,0.0,0.0,0.0,0.0,0.0,0.0,0.0,0.0,0.0,0.0,0.0,0.0,0.0,0.0,0.0,0.0,0.0,0.0,0.0,0.0,0.0,0.0,0.0,0.0,0.0,0.0,0.0,0.0,0.0,0.0,0.0,0.0,0.0,0.0,0.0,0.0,0.0,0.0,0.0,0.0,0.0,0.0,0.0,0.0,0.0,0.0,0.0,-2.947,-2.8742,-2.8567,-2.9996,-2.973,-2.8555,-2.6341,-2.4606,-2.3873,-2.4504,0.0,0.0,0.0,0.0,0.0,0.0,0.0,0.0,0.0,0.0,0.0,0.0,0.0,0.0,0.0,0.0,0.0,0.0,0.0,0.0,0.0,0.0,0.0,0.0,0.0,0.0,0.0,0.0,0.0,0.0,0.0,0.0,0.0,0.0,0.0,0.0,0.0,0.0,0.0,0.0,0.0,0.0,0.0,0.0,0.0,0.0,0.0,0.0,0.0,0.0,0.0,0.0,0.0,0.0,0.0,0.0,0.0,0.0,0.0,0.0,0.0,0.0,0.0,0.0,0.0,0.0,0.0,0.0,0.0,0.0,0.0,0.0,0.0,0.0,0.0,0.0,0.0,0.0,0.0,0.0,0.0,0.0,0.0,0.0,0.0,0.0,0.0,0.0,0.0,0.0,0.0,0.0,0.0,0.0,0.0,0.0,0.0,0.0,0.0,0.0,0.0,0.0,-2.888,-2.7945,-2.7625,-2.9049,-2.8831,-2.7889,-2.6153,-2.4522,-2.3691,-2.3863,0.0,0.0,0.0,0.0,0.0,0.0,0.0,0.0,0.0,0.0,0.0,0.0,0.0,0.0,0.0,0.0,0.0,0.0,0.0,0.0,0.0,0.0,0.0,0.0,0.0,0.0,0.0,0.0,0.0,0.0,0.0,0.0,0.0,0.0,0.0,0.0,0.0,0.0,0.0,0.0,0.0,0.0,0.0,0.0,0.0,0.0,0.0,0.0,0.0,0.0,0.0,0.0,0.0,0.0,0.0,0.0,0.0,0.0,0.0,0.0,0.0,0.0,0.0,0.0,0.0,0.0,0.0,0.0,0.0,0.0,0.0,0.0,0.0,0.0,0.0,0.0,0.0,0.0,0.0,0.0,0.0,0.0,0.0,0.0,0.0,0.0,0.0,0.0,0.0,0.0,0.0,0.0,0.0,0.0,0.0,0.0,0.0,0.0,0.0,0.0,0.0,0.0,-2.8118,-2.728,-2.7036,-2.8442,-2.8547,-2.7964,-2.6617,-2.4777,-2.3458,-2.2896,0.0,0.0,0.0,0.0,0.0,0.0,0.0,0.0,0.0,0.0,0.0,0.0,0.0,0.0,0.0,0.0,0.0,0.0,0.0,0.0,0.0,0.0,0.0,0.0,0.0,0.0,0.0,0.0,0.0,0.0,0.0,0.0,0.0,0.0,0.0,0.0,0.0,0.0,0.0,0.0,0.0,0.0,0.0,0.0,0.0,0.0,0.0,0.0,0.0,0.0,0.0,0.0,0.0,0.0,0.0,0.0,0.0,0.0,0.0,0.0,-2.4384,0.0,0.0,0.0,0.0,0.0,0.0,0.0,0.0,0.0,0.0,0.0,0.0,0.0,0.0,0.0,0.0,0.0,0.0,0.0,0.0,0.0,0.0,0.0,0.0,0.0,0.0,0.0,0.0,0.0,0.0,0.0,0.0,0.0,0.0,0.0,0.0,0.0,0.0,0.0,0.0,0.0,-2.8609,-2.71,-2.6527,-2.8397,-2.8113,-2.7285,-2.5929,-2.4933,-2.4052,-2.3331,-2.2375,0.0,0.0,0.0,0.0,0.0,0.0,0.0,0.0,0.0,0.0,0.0,0.0,0.0,0.0,0.0,0.0,0.0,0.0,0.0,0.0,0.0,0.0,0.0,0.0,0.0,0.0,0.0,0.0,0.0,0.0,0.0,0.0,0.0,0.0,0.0,0.0,0.0,0.0,0.0,0.0,0.0,0.0,0.0,0.0,0.0,0.0,0.0,0.0,0.0,0.0,0.0,0.0,0.0,0.0,0.0,0.0,0.0,0.0,0.0,0.0,-2.5325,0.0,0.0,0.0,0.0,0.0,0.0,0.0,0.0,0.0,0.0,0.0,0.0,0.0,0.0,0.0,0.0,0.0,0.0,0.0,0.0,0.0,0.0,0.0,0.0,0.0,0.0,0.0,0.0,0.0,0.0,0.0,0.0,0.0,0.0,0.0,0.0,0.0,0.0,0.0,0.0,-2.8666,-2.698,-2.6258,-2.7934,-2.7809,-2.7195,-2.6168,-2.5173,-2.4052,-2.2754,-2.1979,0.0,0.0,0.0,0.0,0.0,0.0,0.0,0.0,0.0,0.0,0.0,0.0,0.0,0.0,0.0,0.0,0.0,0.0,0.0,0.0,0.0,0.0,0.0,0.0,0.0,0.0,0.0,0.0,0.0,0.0,0.0,0.0,0.0,0.0,0.0,0.0,0.0,0.0,0.0,0.0,0.0,0.0,0.0,0.0,0.0,0.0,0.0,0.0,0.0,0.0,0.0,0.0,0.0,-2.5282,-2.595,-2.6737,-2.6901,-2.656,-2.5837,-2.6348,-2.5995,-2.5064,0.0,0.0,0.0,0.0,0.0,0.0,0.0,0.0,0.0,0.0,0.0,0.0,0.0,0.0,0.0,0.0,0.0,0.0,0.0,0.0,0.0,0.0,0.0,0.0,0.0,-2.5739,-2.4949,0.0,0.0,0.0,0.0,0.0,0.0,0.0,0.0,0.0,0.0,0.0,0.0,-2.8113,-2.6616,-2.5874,-2.7096,-2.7214,-2.6948,-2.6273,-2.5112,-2.3691,-2.1959,-2.1394,-2.0494,0.0,0.0,0.0,0.0,0.0,0.0,0.0,0.0,0.0,0.0,0.0,0.0,0.0,0.0,0.0,0.0,0.0,0.0,0.0,0.0,0.0,0.0,0.0,0.0,0.0,0.0,0.0,0.0,0.0,0.0,0.0,0.0,-2.286,-2.2523,0.0,0.0,0.0,0.0,0.0,0.0,0.0,0.0,0.0,0.0,0.0,0.0,0.0,-2.5486,-2.5424,-2.5352,-2.5149,-2.4802,-2.4317,-2.4505,-2.5294,-2.6182,-2.7288,-2.8552,-2.8559,0.0,-2.479,-2.4212,0.0,0.0,0.0,0.0,0.0,0.0,0.0,0.0,0.0,0.0,0.0,0.0,0.0,0.0,0.0,0.0,0.0,0.0,0.0,0.0,0.0,0.0,-2.5451,-2.4595,-2.4601,-2.4708,0.0,-2.4875,-2.5649,-2.588,-2.4922,0.0,0.0,0.0,0.0,0.0,0.0,0.0,-2.6427,-2.5369,-2.4851,-2.559,-2.5701,-2.5408,-2.4739,-2.411,-2.3114,-2.1734,-2.0664,-2.0161,-2.0252,-2.0053,0.0,0.0,0.0,0.0,0.0,0.0,0.0,0.0,0.0,0.0,0.0,0.0,0.0,0.0,0.0,0.0,0.0,0.0,0.0,0.0,0.0,0.0,0.0,0.0,0.0,0.0,0.0,0.0,0.0,-2.4283,-2.4233,-2.3464,-2.4209,-2.5028,0.0,0.0,0.0,0.0,0.0,0.0,0.0,0.0,0.0,-2.4171,-2.5023,-2.5238,-2.4662,-2.5087,-2.5162,-2.4963,-2.5635,-2.6005,-2.6106,-2.7303,-2.8089,-2.853,-2.8474,-2.7758,-2.6655,-2.6626,-2.687,-2.7211,0.0,0.0,0.0,0.0,-2.6214,-2.6336,-2.5902,-2.5947,0.0,0.0,0.0,0.0,0.0,0.0,0.0,0.0,0.0,0.0,0.0,0.0,0.0,-2.6524,-2.649,-2.6678,-2.6753,-2.6164,-2.5569,0.0,-2.5878,-2.6609,-2.7727,0.0,0.0,0.0,0.0,-2.497,-2.5911,-2.5343,-2.4984,-2.537,-2.5674,-2.548,-2.4542,-2.3934,-2.2775,-2.088,-1.9926,-1.9101,-1.8287,-1.8711,-1.9287,0.0,0.0,0.0,0.0,0.0,0.0,0.0,0.0,0.0,0.0,0.0,0.0,0.0,0.0,0.0,0.0,0.0,0.0,0.0,0.0,0.0,0.0,0.0,0.0,0.0,0.0,0.0,0.0,-2.4237,-2.4449,-2.3908,-2.4328,-2.5019,0.0,0.0,0.0,0.0,0.0,0.0,-2.4415,-2.5098,-2.5163,-2.4384,-2.5251,-2.5335,-2.4453,-2.5195,-2.5566,-2.5615,-2.6906,-2.7678,-2.7971,-2.8943,-2.9486,-2.9567,-2.9427,-2.9294,-2.9129,-2.8823,-2.8275,-2.7643,-2.8064,-2.799,-2.768,-2.7323,-2.7433,-2.7752,-2.7533,-2.7706,-2.8039,-2.8002,0.0,-2.7681,-2.7311,0.0,0.0,0.0,0.0,-2.9048,-2.8314,-2.8619,-2.8999,-2.8448,-2.8436,-2.8612,-2.8838,-2.7846,-2.6537,0.0,-2.6223,-2.7322,-2.8226,0.0,0.0,0.0,0.0,-2.4769,-2.5345,-2.5114,-2.4926,-2.5039,-2.5131,-2.4877,-2.4028,-2.3284,-2.2093,-2.0368,-1.9522,-1.8422,-1.6986,-1.7705,-1.8204,-1.8403,0.0,0.0,0.0,0.0,0.0,0.0,0.0,0.0,0.0,0.0,0.0,0.0,0.0,0.0,0.0,0.0,0.0,0.0,0.0,0.0,0.0,0.0,0.0,0.0,0.0,0.0,0.0,0.0,0.0,-2.2321,-2.2372,0.0,0.0,0.0,0.0,-2.4788,-2.5141,-2.5285,-2.5088,-2.5856,-2.5946,-2.5067,-2.5889,-2.6329,-2.626,-2.6699,-2.6914,-2.6914,-2.6984,-2.8344,-3.0678,-3.0774,-3.1833,-3.3602,-3.3077,-3.2514,-3.1785,-2.923,-2.8576,-2.9266,-2.9291,-2.9791,-3.0421,-2.9559,-2.9279,-2.908,-2.7762,-2.7344,-2.746,-2.8313,-2.9088,-2.9585,-2.8771,-2.9062,0.0,0.0,-2.8461,-2.8922,-2.7666,-2.8122,-2.8925,-2.8863,-2.9315,-2.9566,-2.9001,-2.964,-2.9415,0.0,-2.4381,-2.3777,-2.5103,0.0,-2.5203,-2.537,-2.5625,-2.5428,-2.4328,-2.4107,-2.4066,-2.4078,-2.3132,-2.2475,-2.2425,-2.1456,-2.0799,-2.0696,-1.9623,-1.8743,-1.8141,-1.77,-1.7756,-1.8391,-1.8429,0.0,0.0,0.0,0.0,0.0,0.0,0.0,0.0,0.0,0.0,0.0,0.0,0.0,0.0,0.0,0.0,0.0,0.0,0.0,0.0,0.0,0.0,0.0,0.0,0.0,0.0,0.0,0.0,-2.4247,-2.4472,0.0,-2.5842,-2.5153,-2.4867,-2.5411,-2.5045,-2.4993,-2.5472,-2.6074,-2.6527,-2.6779,-2.7041,-2.7471,-2.8008,-2.79,-2.7969,-2.8232,-2.8822,-2.9423,-3.0074,-3.1783,-3.2771,-3.315,-3.3469,-3.3282,-3.2649,-3.1286,-3.0295,-2.9638,-2.9224,-2.9061,-2.9048,-2.9049,-2.9074,-2.9049,-2.8938,-2.89,-2.885,-2.8412,-2.8487,-2.8612,-2.7975,-2.8186,-2.8662,-2.855,-2.8737,-2.8988,-2.8938,-2.9189,-2.9478,-2.9478,-2.9641,-2.9729,-2.9528,-2.9503,-2.9026,-2.7507,-2.6741,-2.6647,-2.7614,-2.5899,-2.495,-2.6521,-2.5581,-2.464,-2.4575,-2.4842,-2.477,-2.4067,-2.3954,-2.3339,-2.1907,-2.1418,-2.074,-1.9673,-1.9221,-1.8757,-1.8229,-1.7677,-1.7662,-1.8262,-1.7556,-1.8114,0.0,0.0,0.0,0.0,0.0,0.0,0.0,0.0,0.0,0.0,0.0,0.0,0.0,0.0,0.0,0.0,0.0,0.0,0.0,0.0,0.0,0.0,0.0,0.0,0.0,0.0,-2.457,-2.5788,-2.5826,-2.6129,-2.7091,-2.6174,-2.568,-2.5968,-2.57,-2.583,-2.6562,-2.7002,-2.7568,-2.8335,-2.8364,-2.8574,-2.9131,-2.8867,-2.8789,-2.8916,-2.9507,-2.9797,-2.9815,-3.1601,-3.2617,-3.2983,-3.3552,-3.361,-3.3307,-3.2742,-3.175,-3.0545,-2.998,-2.9428,-2.9013,-2.9566,-2.9654,-2.949,-2.9716,-2.9792,-2.9666,-2.8913,-2.8674,-2.8612,-2.8247,-2.8386,-2.875,-2.9114,-2.9176,-2.9315,-2.9691,-2.9792,-2.9792,-2.9792,-2.9792,-2.9792,-2.9792,-2.949,-2.9114,-2.875,-2.836,-2.8146,-2.8328,-2.6543,-2.5665,-2.7265,-2.5975,-2.5034,-2.5573,-2.5624,-2.5259,-2.4368,-2.4224,-2.3502,-2.1644,-2.1832,-2.1255,-1.9384,-1.9798,-1.961,-1.853,-1.8517,-1.8556,-1.8671,-1.7934,-1.8374,-2.0032,0.0,0.0,0.0,0.0,0.0,0.0,0.0,0.0,0.0,0.0,0.0,0.0,0.0,0.0,0.0,0.0,0.0,0.0,0.0,0.0,0.0,0.0,0.0,-2.3794,-2.4421,-2.5308,-2.6686,-2.619,-2.6124,-2.7082,-2.6764,-2.6484,-2.6465,-2.7246,-2.7953,-2.831,-2.8721,-2.9131,-2.9616,-2.9626,-2.9636,-2.9646,-2.9636,-2.9355,-2.8935,-2.8926,-2.9363,-3.0214,-3.0266,-3.1471,-3.3445,-3.3481,-3.3671,-3.3884,-3.3332,-3.2754,-3.2152,-3.1599,-3.1072,-3.067,-3.1185,-3.1035,-3.052,-2.998,-2.9792,-2.9792,-2.9792,-2.9792,-2.9792,-2.9792,-2.9792,-2.9792,-2.9792,-2.9792,-2.9792,-2.9792,-2.9792,-2.9792,-2.9792,-2.9792,-2.9792,-2.9792,-2.9792,-2.9779,-2.9767,-2.89,-2.7808,-2.6763,-2.6989,-2.7281,-2.7281,-2.6851,0.0,-2.7228,-2.6302,-2.5435,-2.4913,-2.3885,-2.2782,-2.1694,-2.2543,-2.2192,-1.9974,-2.1355,-2.1265,-1.9108,-2.0062,-2.031,-1.9565,-1.9614,-1.9523,-1.9305,0.0,0.0,0.0,0.0,0.0,0.0,0.0,0.0,0.0,0.0,0.0,0.0,0.0,0.0,0.0,0.0,0.0,0.0,0.0,0.0,0.0,0.0,-2.4445,-2.4536,-2.5058,-2.5957,-2.7298,-2.7506,-2.7806,-2.8333,-2.8613,-2.8564,-2.8252,-2.873,-2.9156,-2.9264,-2.9326,-2.9443,-2.9626,-2.9626,-2.9717,-3.0019,-2.9726,-2.9567,-2.9385,-2.9072,-2.8908,-2.89,-2.9859,-3.1159,-3.2666,-3.3238,-3.3877,-3.4449,-3.3897,-3.3093,-3.2152,-3.1599,-3.1072,-3.0633,-3.0783,-3.0482,-2.9993,-2.9842,-2.9792,-2.9792,-2.9792,-2.9792,-2.9792,-2.9792,-2.9792,-2.9792,-2.9792,-2.9792,-2.9792,-2.9792,-2.9792,-2.9792,-2.9792,-2.9792,-2.9792,-2.9792,-2.9792,-2.9666,-2.9252,-2.9252,-2.9101,-2.8373,-2.7708,-2.7281,-2.7281,-2.6851,0.0,-2.67,-2.6449,-2.628,-2.6323,-2.6039,-2.5257,-2.3797,-2.3947,-2.3074,-2.0616,-2.0893,-2.0665,-1.9623,-1.9522,-1.9196,-1.8608,-1.9642,-1.9908,0.0,0.0,0.0,0.0,0.0,0.0,0.0,0.0,0.0,0.0,0.0,0.0,0.0,0.0,0.0,0.0,0.0,0.0,0.0,0.0,0.0,0.0,-2.5654,-2.5828,-2.6192,-2.6437,-2.6953,-2.8066,-2.8564,-2.8926,-2.917,-2.958,-2.9648,-2.9228,-2.959,-2.9834,-2.9834,-2.9834,-2.9922,-3.0117,-3.0117,-3.0244,-3.0488,-3.0244,-2.9941,-2.9626,-2.9316,-2.8877,-2.8344,-2.9713,-3.1019,0.0,-3.3445,-3.4302,-3.4981,-3.4474,-3.3721,0.0,0.0,0.0,0.0,0.0,-3.0595,-3.0105,-2.988,-2.9792,-2.9792,-2.9792,-2.9792,-2.9792,-2.9792,-2.9792,-2.9792,-2.9792,-2.9792,-2.9792,-2.9792,-2.9792,-2.9792,-2.9792,-2.9792,-2.9792,-2.9792,-2.9792,-2.9691,-2.9352,-2.9566,0.0,-2.9352,-2.836,-2.7708,-2.7946,-2.714,-2.6663,-2.7128,-2.6788,-2.6455,-2.6392,-2.6357,-2.5697,-2.4053,-2.4571,0.0,0.0,0.0,-2.1694,-2.0891,-2.0471,0.0,0.0,0.0,-2.032,-1.9514,0.0,0.0,0.0,-2.0627,-2.0496,0.0,0.0,0.0,0.0,0.0,0.0,0.0,0.0,0.0,0.0,0.0,0.0,0.0,0.0,0.0,0.0,-2.6801,-2.7471,-2.8379,-2.8184,-2.8232,-2.8975,-2.9404,-2.9658,-2.9717,-3.0059,-3.0117,-2.9746,-3.0068,-3.0273,-3.0273,0.0,0.0,0.0,0.0,-3.0889,-3.0889,-3.0889,-3.0469,-2.9695,-2.9695,-2.9219,-2.8491,-2.9605,-3.0899,-3.2207,-3.3586,-3.4571,-3.526,-3.4923,-3.4449,-3.3847,-3.3219,-3.2667,-3.2152,-3.1599,-3.1097,-3.0633,-3.0143,0.0,0.0,-2.9905,-2.988,-2.988,-2.9817,-2.9792,-2.9792,-2.9792,-2.9792,-2.9792,-2.9792,-2.9792,-2.9792,-2.9792,-2.9792,-2.9792,-2.9792,-2.9792,-2.9792,-2.9792,-2.9792,-2.9792,-2.9792,-2.89,-2.8348,-2.8737,-2.7582,-2.7014,-2.7896,-2.719,-2.6436,-2.5979,0.0,0.0,-2.3666,-2.485,-2.4512,-2.1845,-2.2962,-2.3263,-2.2259,-2.2035,-2.1798,-2.1493,-2.1328,-2.0789,-1.9899,-1.9899,-1.9861,-1.9823,-2.0652,-2.0511,0.0,0.0,0.0,0.0,0.0,0.0,0.0,0.0,0.0,0.0,0.0,0.0,0.0,0.0,0.0,-2.7964,-2.8098,-2.8467,-2.9658,-2.9756,-2.9766,-2.9932,-3.0019,-3.0225,-3.0596,-3.0703,-3.0723,-3.0644,-3.0713,-3.0752,-3.0752,-3.0752,0.0,-3.0889,-3.0889,-3.0889,-3.0889,-3.0889,-3.0615,-3.0078,0.0,0.0,-2.9362,-2.9218,-2.9937,-3.1327,-3.2256,-3.3163,-3.3958,-3.4941,-3.4756,-3.3796,-3.278,-3.2303,-3.2152,-3.1599,-3.1323,-3.1223,-3.1122,-3.1085,-3.1009,-3.0595,-3.0457,-3.0369,-2.993,-2.9792,0.0,-2.9792,-2.9792,-2.9792,-2.9792,-2.9792,-2.9792,-2.9792,-2.9792,-2.9792,-2.9792,-2.9792,-2.9792,-2.9792,-2.9792,-2.9792,-2.9792,-2.9227,-2.8612,-2.831,-2.7996,-2.7708,-2.7469,-2.7256,-2.7347,-2.7965,-2.7654,-2.7033,-2.6216,-2.6077,-2.5087,-2.2932,-2.2284,-2.187,-2.1656,-2.1616,-2.1566,-2.1493,-2.1465,-2.1127,-2.0528,-2.0528,-2.0289,-1.9811,-1.9998,-1.9734,0.0,0.0,0.0,0.0,0.0,0.0,0.0,0.0,0.0,0.0,0.0,-2.6605,0.0,0.0,-2.8187,-2.9031,-2.9221,-2.9551,-3.042,-3.0547,-3.0547,-3.0547,-3.0547,-3.0635,-3.0869,-3.0889,-3.0976,-3.1191,-3.1006,-3.1074,-3.1504,-3.1123,-3.0986,-3.1201,-3.0996,-3.0889,-3.0889,-3.0889,-3.0654,-3.0195,-3.0195,-2.9971,-2.9607,-2.9858,-3.0337,-3.1095,-3.2667,-3.356,-3.4006,-3.5071,-3.5019,-3.4223,-3.3382,-3.2704,-3.2177,-3.1901,-3.1625,-3.1386,-3.1386,-3.1386,-3.1298,-3.0783,-3.062,-3.0507,-2.9955,-2.9792,-2.9792,-2.9792,-2.9792,-2.9792,-2.9792,-2.9792,-2.9792,-2.9792,-2.9792,-2.9792,-2.9792,-2.9792,-2.9792,-2.9792,-2.9792,-2.9792,-2.9792,-2.9553,-2.9164,-2.8599,-2.8285,-2.8009,-2.772,-2.7457,-2.7471,-2.7913,-2.7476,-2.6926,-2.6305,-2.5519,-2.4491,-2.3195,-2.2594,-2.2184,-2.1907,-2.1895,-2.1769,-2.1493,-2.1493,-2.1355,-2.1106,-2.083,-2.0541,-2.0251,-1.9936,-1.966,0.0,0.0,0.0,0.0,0.0,0.0,0.0,0.0,-2.6428,-2.6292,-2.7271,-2.8025,-2.7635,-2.8711,-2.9674,-2.9731,-3.0049,-3.0459,-3.084,-3.0889,-3.0889,-3.0889,-3.0889,-3.0889,-3.0889,-3.0889,-3.1035,-3.1367,-3.1162,-3.1279,-3.1885,-3.1348,-3.1133,-3.1387,-3.1064,-3.0889,-3.0889,-3.0889,-3.0703,-3.0332,-3.0332,-3.0156,-2.9871,-3.0547,-3.0812,-3.0859,-3.2763,-3.3773,-3.4032,-3.4531,-3.4455,-3.4001,-3.3396,-3.2597,-3.1841,-3.2234,-3.2102,-3.1712,-3.1712,-3.1712,-3.1637,-3.1097,-3.0859,-3.067,-3.0118,-2.9955,-2.9955,-2.9955,-2.9955,-2.998,-3.008,-2.9955,-2.9817,-2.993,-2.9867,-2.9792,-2.9792,-2.9792,-2.9792,-2.9792,-2.9792,-2.9792,-2.9792,-2.9792,-2.9591,-2.8976,-2.8649,-2.8398,-2.8285,-2.7871,-2.7607,-2.7607,-2.7052,-2.6373,-2.5649,-2.4707,-2.3916,-2.3308,-2.3158,-2.2907,-2.2456,-2.2472,-2.2259,-2.182,-2.1807,-2.1757,-2.1644,-2.1232,-2.0893,-2.0679,-2.0188,-1.9911,-2.0741,-2.1802,-2.3114,-2.489,-2.5255,-2.5754,0.0,0.0,-2.7429,-2.7931,-2.8153,-2.8251,-2.8198,-2.8941,-2.9741,-3.0059,-3.0518,-3.083,-3.0889,-3.0889,-3.0889,-3.0889,-3.0889,-3.0889,-3.0889,-3.0889,-3.0908,-3.0957,-3.126,-3.1328,-3.1045,-3.1299,-3.1299,-3.0976,-3.0918,-3.0889,-3.0889,-3.0889,-3.0859,-3.081,-3.081,-3.0791,-3.0723,-3.0425,-3.0069,-2.9767,-3.0495,-3.1429,-3.2498,-3.2101,-3.1912,-3.1765,-3.0825,-3.0384,-3.0468,-3.2325,-3.2943,-3.2893,-3.2893,-3.2893,-3.2792,-3.2215,-3.17,-3.121,-3.0683,-3.052,-3.052,-3.052,-3.052,-3.0633,-3.1097,-3.0507,-2.9917,-3.0407,-3.0143,-2.9792,-2.9792,-2.9792,-2.9792,-2.9792,-2.9792,-2.9792,-2.9792,-2.9792,-2.9591,-2.8976,-2.9315,-2.9415,-2.8863,-2.875,-2.8712,-2.8712,-2.7808,-2.6753,-2.5686,-2.5059,-2.4494,-2.3941,-2.3396,-2.3083,-2.3007,-2.3007,-2.2982,-2.292,-2.292,-2.2681,-2.2221,-2.2159,-2.1619,-2.0691,-2.0629,-2.0314,-2.0484,-2.2263,-2.4188,0.0,-2.6292,-2.747,-2.8538,-2.866,-2.8552,-2.8638,-2.9053,-2.9404,-2.9404,-2.9912,-3.04,0.0,-3.0762,-3.0889,-3.0889,-3.0889,-3.0791,-3.0518,-3.0723,-3.0889,-3.0889,-3.0889,-3.0996,-3.124,-3.1191,-3.1299,-3.1621,-3.1328,-3.1182,-3.126,-3.1016,-3.0889,-3.0889,-3.0889,-3.0889,-3.0889,-3.0889,-3.0889,-3.0869,-3.041,-3.0264,-3.0421,-3.0349,-3.1071,-3.2269,-3.2068,-3.1978,-3.19,-3.1158,-3.0879,-3.103,-3.2086,-3.254,-3.2629,-3.3327,-3.3558,-3.3407,-3.2503,-3.1838,-3.1348,-3.1135,-3.0859,-3.0683,-3.0984,-3.1072,-3.1122,-3.1336,-3.0834,-3.0331,-3.0557,-3.0193,-2.9792,-2.9792,-2.9792,-2.9792,-2.9792,-2.9792,-2.9792,-2.9792,-2.9792,-2.9704,-2.9465,-2.9641,-2.9704,-2.9465,-2.9139,-2.8762,-2.8486,-2.7745,-2.6967,-2.6197,-2.5586,-2.5046,-2.4506,-2.4224,-2.3948,-2.3653,-2.364,-2.3446,-2.3108,-2.3108,-2.2995,-2.2757,-2.2443,-2.2071,-2.1606,-2.132,-2.1043,-2.0931,-2.2909,0.0,-2.5689,-2.7329,-2.8804,-2.9041,-2.9435,-2.9725,-2.9609,-2.9932,-3.0195,-3.0195,-3.0478,-3.0703,-3.0703,-3.081,-3.0889,-3.0889,-3.0889,-3.0723,-3.0254,-3.0488,-3.0703,-3.0703,-3.081,-3.1016,-3.1318,-3.1172,-3.1279,-3.1787,-3.1455,-3.1279,-3.1338,-3.1162,-3.1006,-3.0889,-3.0889,-3.0889,-3.0889,-3.0889,-3.0889,-3.0869,-3.041,-3.0336,-3.0609,-3.0146,-3.0381,-3.1224,-3.1224,-3.1224,-3.113,-3.0655,-3.0471,-3.0535,-3.1201,-3.1798,-3.2371,-3.311,-3.3575,-3.3746,-3.2767,-3.2064,-3.1625,-3.1625,-3.1348,-3.1135,-3.1512,-3.1499,-3.1461,-3.1775,-3.1235,-3.0683,-3.0984,-3.052,-3.0055,-3.0206,-3.0005,-2.9829,-2.9993,-2.9892,-2.9792,-2.9792,-2.9792,-2.9792,-2.9792,-2.9792,-2.9792,-2.9792,-2.9428,-2.895,-2.8398,-2.7846,-2.7281,-2.6763,-2.6013,-2.5435,-2.5059,-2.4863,-2.4644,-2.4243,-2.4079,-2.3803,-2.3358,-2.3183,-2.3108,-2.3108,-2.2706,-2.2431,-2.2297,-2.1895,-2.1631,-2.276,0.0,-2.4705,-2.6745,-2.8057,-2.9121,-2.9951,-3.0498,-3.0947,-3.1357,-3.0781,-3.0195,-3.0195,-3.0205,-3.0215,-3.0215,-3.0596,-3.0889,-3.0889,-3.0889,-3.0723,-3.0254,-3.0205,-3.0215,0.0,-3.0625,-3.0898,-3.0908,-3.1279,-3.1328,-3.0947,-3.1689,-3.1758,-3.0937,-3.1289,-3.1299,-3.0898,-3.0889,-3.0889,-3.0889,-3.0889,-3.0889,-3.0869,-3.041,-3.0017,-2.9633,-2.9137,-2.8716,-2.8398,-2.8398,-2.8398,-2.8402,-2.798,-2.7823,-2.7959,-2.9269,-3.1023,-3.2604,-3.214,-3.2812,-3.3809,-3.3232,-3.2667,-3.219,-3.219,-3.2177,-3.2164,-3.2177,-3.18,-3.1637,-3.2742,-3.1825,-3.0871,-3.1913,-3.1361,-3.0733,-3.1235,-3.052,-2.9942,-3.0482,-3.0156,-2.9792,-2.9792,-2.9792,-2.9792,-2.9792,-2.9792,-2.9792,-2.9792,-2.9779,-2.9541,-2.8925,-2.8411,-2.7858,-2.7306,-2.6239,-2.5586,-2.5573,-2.5096,-2.4775,-2.4763,-2.4293,-2.3991,-2.3966,-2.3396,-2.3108,-2.3108,-2.3083,-2.2807,-2.2309,-2.2297,-2.1995,0.0,0.0,-2.7185,-2.8079,-2.9441,-3.0723,-3.1006,-3.1191,-3.1182,-3.0732,-3.0356,-2.9977,-2.9636,-2.9577,-2.9675,-3.0027,-3.026,-3.0537,-3.085,-3.1133,-3.1025,-3.0283,-3.0713,0.0,0.0,0.0,0.0,-3.0869,-3.1025,-3.1035,-3.0898,-3.1162,-3.1191,-3.0898,-3.1025,-3.1035,-3.0889,-3.0889,-3.0889,-3.0889,-3.0889,-3.0889,-3.0869,-3.041,-3.0117,-2.9941,-2.9228,-2.8838,-2.8682,-2.8408,-2.8291,-2.8281,-2.8135,-2.8086,-2.8129,-2.8585,-2.9745,-3.1174,-3.1521,-3.1928,-3.2182,-3.1321,-3.0692,-3.0229,-3.033,-3.0085,-2.9899,-3.0225,-3.0787,-3.1361,-3.1724,-3.1748,-3.1763,-3.2127,-3.165,-3.1173,-3.1348,-3.111,-3.0909,-3.1097,-3.0984,-3.0746,-3.0394,-3.0331,-3.0218,-2.9842,-2.9792,-2.9792,-2.9792,-2.9792,-2.9716,-2.9528,-2.8988,-2.8423,-2.7871,-2.7143,-2.66,-2.6223,-2.6034,-2.5737,-2.536,-2.5159,-2.4895,-2.4556,-2.4324,-2.4224,-2.4224,-2.386,-2.3615,-2.3427,-2.3007,-2.2732,0.0,-2.7195,-2.9066,-2.9814,-3.0916,-3.1748,-3.1748,-3.1514,-3.1084,-3.0342,-2.9797,-2.9268,-2.8824,-2.8564,-2.8759,-2.957,-2.9723,-3.0105,-3.1032,-3.1269,-3.1191,-3.0703,-3.1035,-3.1133,0.0,0.0,0.0,-3.0869,-3.1025,-3.1055,-3.0898,-3.1182,-3.1201,-3.0898,-3.1035,-3.1045,-3.0889,-3.0889,-3.0889,-3.0889,-3.0889,-3.0889,-3.0879,-3.0576,-3.0351,-3.0156,-2.9453,-2.9062,-2.8887,-2.8467,-2.8291,-2.8291,-2.8291,-2.8291,-2.8291,-2.8291,-2.8857,-2.9693,-3.0482,-3.0998,-3.1162,-3.0287,-2.9648,-2.9304,-2.935,-2.9137,-2.8958,-2.9317,-2.9817,-3.0308,-3.0495,-3.1049,-3.1594,-3.1791,-3.1771,-3.1738,-3.1951,-3.1675,-3.1449,-3.165,-3.1524,-3.1286,-3.0947,-3.0733,-3.0495,-3.0143,-2.9917,-2.9792,-2.9792,-2.9792,-2.9792,-2.9792,-2.9277,-2.875,-2.8436,-2.7708,-2.7012,-2.6286,-2.6414,-2.614,-2.5425,-2.5531,-2.527,-2.4604,-2.4362,-2.4263,-2.4263,-2.3571,-2.3619,-2.4249,-2.3306,-2.3077,-2.812,-2.9306,-3.0275,-3.184,-3.2278,-3.2187,-3.2148,-3.1475,-3.0713,-3.0205,-2.9101,-2.8149,0.0,0.0,-2.7491,-2.8833,-2.9119,-2.9752,-3.1441,-3.1351,-3.1249,0.0,0.0,0.0,0.0,0.0,0.0,-3.0986,0.0,-3.1348,-3.0976,-3.1709,-3.1768,-3.0947,-3.1289,-3.1299,-3.0898,-3.0889,-3.0889,-3.0889,-3.0889,-3.0889,-3.0889,-3.0889,-3.0644,-3.0205,-2.9766,-2.9336,-2.8916,-2.8476,-2.8291,-2.8291,-2.8291,-2.8291,-2.8291,-2.8291,-2.8281,-2.8353,-2.9168,-3.0013,-3.0648,-3.0041,-2.9553,-2.9257,-2.9235,-2.9223,-2.9223,-2.9223,-2.8889,-2.8678,-2.9192,-2.9857,-3.0561,-3.1104,-3.1736,-3.2403,-3.2998,-3.2227,-3.1637,-3.2152,-3.1813,-3.1436,-3.1436,-3.0972,-3.062,-3.062,-3.0143,-2.9792,-2.9792,-2.9792,-2.9792,-2.9702,-2.9213,-2.8837,-2.8812,-2.7886,-2.6878,-2.5936,-2.6263,-2.605,-2.5123,-2.5404,-2.5154,-2.4267,-2.37,-2.3361,-2.3327,-2.2377,-2.2922,-2.4748,-2.3171,-2.2983,-3.0266,-3.1358,-3.2186,-3.2906,-3.2871,-3.2471,-3.1826,-3.1006,-3.0068,-2.8994,-2.8157,-2.7495,0.0,0.0,0.0,-2.8632,-2.9154,0.0,-3.1378,-3.1771,0.0,-3.2033,0.0,-3.2353,-3.2461,-3.209,0.0,0.0,-3.1816,-3.1611,-3.1836,-3.1738,-3.1582,-3.1367,-3.1162,-3.0996,-3.0889,-3.0889,-3.0889,-3.0889,-3.0889,-3.0889,-3.0889,-3.0889,-3.083,-3.0674,-2.9902,-2.9502,-2.9346,-2.8603,-2.8291,-2.8291,-2.8291,-2.8291,-2.8291,-2.8291,-2.8096,-2.7904,-2.8407,-2.8555,-2.8411,-2.7905,-2.747,-2.7094,-2.6759,-2.6658,-2.6658,-2.6658,-2.7222,-2.7889,-2.8006,-2.9534,-3.1012,-3.1187,-3.2085,-3.2893,-3.3086,-3.2855,-3.2692,-3.283,-3.239,-3.2001,-3.2001,-3.1235,-3.062,-3.062,-3.0143,-2.9792,-2.9792,-2.9792,-2.9495,-2.8636,-2.8397,-2.8144,-2.7746,-2.7468,-2.7211,-2.6937,-2.6346,-2.6018,-2.6107,-2.5483,-2.5048,-2.4814,-2.4636,-2.4202,-2.3468,-2.281,-2.3132,-2.4324,-2.2393,-2.2076,-3.2285,-3.2988,-3.3369,-3.3408,-3.2969,-3.2307,-3.1299,-3.0321,-2.9323,-2.8147,-2.7393,-2.6843,-2.6409,-2.6369,0.0,0.0,0.0,0.0,-3.1307,-3.1781,-3.2166,0.0,-3.2764,0.0,-3.332,-3.2969,-3.29,0.0,-3.2559,-3.21,-3.2229,-3.2109,-3.1904,-3.1533,-3.1289,-3.1074,-3.0889,-3.0889,-3.0889,-3.0889,-3.0889,-3.0889,-3.0889,-3.0889,-3.0889,-3.085,0.0,-2.9736,-2.9577,-2.8848,-2.8457,-2.8291,-2.8291,-2.8291,-2.8291,-2.8291,-2.8144,-2.7978,-2.8213,-2.8018,-2.7679,-2.7383,-2.7012,-2.6621,-2.6367,-2.6172,-2.6025,-2.6025,-2.6346,-2.6754,-2.6754,-2.8179,-2.9636,-2.9636,-3.0553,-3.1601,-3.2152,-3.1833,-3.1645,-3.214,-3.2437,-3.2591,-3.2591,-3.1888,-3.1235,-3.0997,-3.0059,-2.9337,-2.9091,-2.9067,-2.8806,-2.8176,-2.7695,-2.7284,-2.6966,-2.6723,-2.6391,-2.5975,-2.5396,-2.5092,-2.5096,-2.4605,-2.4223,-2.3999,-2.3785,-2.3404,-2.285,-2.211,-2.2495,-2.3861,-2.2037,-2.1751,-3.4255,-3.4344,-3.4053,-3.3613,-3.2832,-3.1946,-3.0853,-2.962,-2.8452,-2.7475,-2.6742,-2.6182,-2.5703,-2.5421,-2.5858,-2.7572,0.0,-2.8823,-3.1404,-3.1824,-3.2207,-3.3295,-3.3203,-3.334,-3.4082,-3.3818,-3.375,-3.4131,-3.3418,-3.2783,-3.2353,-3.2627,-3.2402,-3.1543,-3.1465,-3.126,-3.0898,-3.0889,-3.0889,-3.0889,-3.0889,-3.0889,-3.0889,-3.0889,-3.0889,-3.0869,0.0,0.0,-2.9619,-2.9121,-2.8701,-2.8369,-2.831,-2.8291,-2.8291,-2.8291,-2.8262,-2.8223,-2.8271,-2.8018,-2.7718,-2.7718,-2.7373,-2.7012,-2.7012,-2.6758,-2.6475,-2.6475,-2.6201,-2.5849,-2.5791,-2.6749,-2.7662,-2.76,-2.8541,-2.9727,-3.0944,-3.0406,-2.9909,-3.0765,-3.1865,-3.2612,-3.2612,-3.2098,-3.1566,-3.1096,-2.9675,-2.8498,-2.8049,-2.7931,-2.7844,-2.7671,-2.683,-2.6265,-2.6265,-2.5772,-2.5182,-2.4445,-2.4261,-2.3995,-2.3501,-2.3482,-2.3231,-2.2775,-2.2325,-2.2008,-2.1904,-2.1041,-2.1527,-2.3246,-2.1739,-2.1564,-3.6498,-3.5709,-3.4492,-3.4062,-3.3057,-3.1946,-3.0853,-2.9223,0.0,-2.674,-2.6152,-2.5732,-2.545,-2.5819,-2.6632,-2.7966,-2.8466,-2.9541,-3.18,-3.2419,-3.2819,0.0,-3.3984,-3.4424,0.0,0.0,0.0,0.0,0.0,-3.3662,-3.3232,-3.2939,-3.2402,-3.1543,-3.1182,-3.0967,-3.0889,-3.0889,-3.0889,-3.0889,-3.0889,-3.0889,-3.0889,-3.0889,-3.0889,-3.0869,-3.04,0.0,-3.0019,-2.9248,-2.8877,-2.8779,-2.8428,-2.8291,-2.8291,-2.8291,-2.8066,-2.7822,-2.8174,-2.8018,-2.7718,-2.7718,-2.7373,-2.7012,-2.7012,-2.6963,-2.6904,-2.6904,-2.6855,-2.6719,-2.6367,-2.7166,-2.8003,-2.7673,-2.8541,-2.9727,-3.0944,-3.1045,-3.0676,-2.9863,-2.9909,-3.0045,-3.0045,-2.9577,-2.9167,-2.9087,-2.8116,-2.7366,-2.7287,-2.6967,-2.6419,-2.5452,-2.521,-2.5083,-2.5083,-2.5009,-2.5036,-2.5341,-2.4651,-2.4293,-2.4524,-2.376,-2.3282,-2.3207,-2.2796,-2.2158,-2.1342,-2.082,-2.1155,-2.2242,-2.0805,-2.0666,-3.6486,-3.6027,-3.5176,-3.4287,-3.3115,-3.1829,-3.028,0.0,0.0,-2.625,-2.5615,-2.5284,-2.5284,-2.5604,-2.6169,-2.7168,-2.7471,-2.8359,-3.0565,-3.1172,0.0,-3.2969,-3.3848,-3.4463,0.0,0.0,0.0,0.0,0.0,-3.3887,-3.3447,-3.3027,-3.251,-3.1875,-3.1445,-3.1113,-3.0889,-3.0889,-3.0889,-3.0889,-3.0889,-3.0889,-3.0889,-3.0889,-3.0889,-3.0879,-3.0654,0.0,-3.0166,-2.9756,-2.9316,-2.8896,-2.8701,-2.8486,-2.8291,-2.8291,-2.8164,-2.8018,-2.8223,-2.8164,-2.7988,-2.7988,-2.7851,-2.7676,-2.7676,-2.7529,-2.7353,-2.7353,-2.7197,-2.6973,-2.6768,-2.6983,-2.7227,-2.7015,-2.7757,-2.8448,-2.8344,-2.935,-2.9909,-2.868,-2.8947,-2.9407,-2.9407,-2.9205,-2.8925,-2.8623,-2.7689,-2.692,-2.6627,-2.572,-2.5038,-2.4819,-2.4253,-2.392,-2.392,-2.392,-2.4043,-2.4273,-2.3678,-2.3482,-2.3898,-2.3053,-2.2675,-2.2856,-2.2483,-2.192,-2.119,-2.1016,-2.1055,-2.126,-2.0572,-2.0511,-3.6375,-3.6459,-3.6174,-3.4632,-3.3184,-3.174,-2.9885,-2.8262,0.0,-2.5849,-2.5216,-2.4941,-2.5088,-2.5235,-2.5555,0.0,-2.6602,-2.7373,-2.9414,-3.0234,-3.1162,0.0,-3.3721,0.0,0.0,0.0,0.0,0.0,0.0,0.0,-3.3437,-3.3027,-3.2607,-3.2178,-3.1738,-3.1318,-3.0898,-3.0889,-3.0889,-3.0889,-3.0889,-3.0889,-3.0889,-3.0889,-3.0889,-3.0889,-3.0889,0.0,0.0,-3.0137,-2.9668,-2.9033,-2.8857,-2.8584,-2.8291,-2.8291,-2.8291,-2.8291,-2.8291,-2.8291,-2.8291,-2.8291,-2.8291,-2.8291,-2.8291,-2.8066,-2.7855,-2.7855,-2.7549,-2.7266,-2.7178,-2.6914,-2.6611,-2.6435,-2.6992,-2.7268,-2.5965,-2.751,-2.8754,-2.7468,-2.803,-2.8754,-2.8645,-2.8634,-2.8457,-2.803,-2.7123,-2.6357,-2.595,-2.4761,-2.4098,-2.4535,-2.3687,-2.3091,-2.3091,-2.3091,-2.3091,-2.3091,-2.2789,-2.275,-2.3081,-2.251,-2.2305,-2.2637,-2.2236,-2.1855,-2.1463,-2.1278,-2.1055,-2.0742,-2.0644,-2.0605,-3.7909,-3.803,-3.7784,-3.5248,-3.3398,-3.1829,-3.027,0.0,-2.64,-2.5516,-2.5079,-2.4833,-2.4627,-2.4981,-2.5602,-2.6451,-2.713,-2.8154,-2.9893,-3.1211,-3.2187,-3.2734,0.0,0.0,0.0,0.0,0.0,0.0,0.0,0.0,-3.3418,-3.3027,-3.2607,-3.2178,-3.1738,-3.1318,-3.0898,-3.0889,-3.0889,-3.0889,-3.0889,-3.0889,-3.0889,-3.0889,-3.0889,-3.0889,-3.0889,0.0,0.0,-2.9961,-2.9636,-2.9434,-2.8652,-2.833,-2.8291,-2.8291,-2.8291,-2.8291,-2.8291,-2.8291,-2.8291,-2.8291,-2.8291,-2.8291,-2.8291,-2.8262,-2.8232,-2.8232,-2.8203,-2.8086,-2.7705,-2.763,-2.7405,-2.6572,-2.6992,-2.7268,-2.5965,-2.7069,-2.7841,-2.618,-2.6291,-2.6527,-2.6131,-2.6062,-2.5994,-2.5954,-2.5561,-2.5238,-2.5198,-2.4722,-2.4245,-2.3904,-2.3423,-2.3091,-2.3091,-2.3091,-2.3091,-2.3091,-2.3062,-2.3052,-2.3091,-2.3023,-2.3003,-2.3033,-2.2666,-2.2432,-2.2393,-2.157,-2.1171,-2.1122,-2.0752,-2.0605,-3.7467,-3.822,-3.8524,-3.6742,-3.4119,-3.1614,-3.0081,0.0,-2.6004,-2.5212,-2.4745,-2.4489,-2.4489,-2.4784,-2.5291,-2.5964,-2.6261,0.0,-2.8642,-2.9105,-3.0118,-3.2209,-3.3252,0.0,0.0,0.0,0.0,0.0,0.0,0.0,-3.3418,-3.3027,-3.2607,-3.2178,-3.1738,-3.1318,-3.0898,-3.0889,-3.0889,-3.0889,-3.0889,-3.0889,-3.0889,-3.0889,-3.0889,-3.0889,-3.0889,0.0,0.0,-3.0205,-2.9795,-2.9567,-2.8906,-2.8516,-2.8291,-2.8291,-2.8291,-2.8291,-2.8291,-2.8291,-2.8291,-2.8291,-2.8291,-2.8291,-2.8291,-2.8291,-2.8291,-2.8291,-2.8291,-2.8252,-2.8086,-2.7851,-2.7503,-2.6592,-2.6834,-2.7003,-2.628,-2.6844,-2.7282,-2.6633,-2.6445,-2.6338,-2.6162,-2.5908,-2.5693,-2.5693,-2.5538,-2.5469,-2.5469,-2.5078,-2.4639,-2.4209,-2.3789,-2.3428,-2.312,-2.3091,-2.3091,-2.3091,-2.3091,-2.3091,-2.3091,-2.3091,-2.3091,-2.3091,-2.2925,-2.2721,-2.251,-2.2168,-2.1697,-2.119,-2.1055,-2.082,-3.5314,-3.6819,-3.7924,-3.637,-3.3781,-3.12,0.0,0.0,-2.5796,-2.4947,-2.4489,-2.4251,-2.439,-2.4686,-2.503,-2.5509,-2.5749,-2.6358,-2.7813,-2.8066,-2.8931,0.0,0.0,0.0,0.0,0.0,0.0,0.0,0.0,0.0,0.0,-3.3027,-3.2656,-3.2363,-3.1934,-3.1504,-3.1074,-3.0957,-3.0889,-3.0889,-3.0889,-3.0889,-3.0889,-3.0889,-3.0889,-3.0889,0.0,0.0,0.0,-3.0391,-3.0019,-2.9697,-2.9141,-2.874,-2.8467,-2.834,-2.8291,-2.8291,-2.8291,-2.8291,-2.8291,-2.8291,-2.8291,-2.8291,-2.8291,-2.8291,-2.8291,-2.8291,-2.8291,-2.8291,-2.8291,-2.7978,-2.7571,-2.6914,-2.6894,-2.6934,-2.6641,-2.6904,-2.7168,-2.7041,-2.6885,-2.6728,-2.6592,-2.6318,-2.6064,-2.6064,-2.5966,-2.5937,-2.5937,-2.5537,-2.5098,-2.4658,-2.4228,-2.375,-2.314,-2.3091,-2.3091,-2.3091,-2.3091,-2.3091,-2.3091,-2.3091,-2.3091,-2.3091,-2.3091,-2.2945,-2.2695,-2.2578,-2.2165,-2.157,-2.1444,-2.126,-3.1397,-3.3579,-3.5508,-3.3396,-3.1846,-3.0489,0.0,-2.7328,-2.5884,-2.4746,-2.4341,-2.4202,-2.4202,-2.4587,-2.499,-2.5235,-2.6055,0.0,-2.7893,-2.8957,0.0,0.0,0.0,0.0,0.0,0.0,0.0,0.0,0.0,0.0,0.0,-3.3027,-3.2793,-3.2793,-3.2383,-3.1953,-3.1514,-3.1094,-3.0889,-3.0889,-3.0889,-3.0889,-3.0889,-3.0889,-3.0889,0.0,0.0,0.0,0.0,-3.0391,-3.0195,-3.0107,-2.9248,-2.8916,-2.8867,-2.8447,-2.8291,-2.8291,-2.8291,-2.8291,-2.8291,-2.8291,-2.8291,-2.8291,-2.8291,-2.8291,-2.8291,-2.8291,-2.8291,-2.8291,-2.8291,-2.7978,-2.7718,-2.7708,-2.7324,-2.7012,-2.7012,-2.7353,-2.7581,-2.71,-2.7363,-2.7519,-2.708,-2.7002,-2.7002,-2.7002,-2.665,-2.6387,-2.6387,-2.5996,-2.5557,-2.5155,-2.4668,-2.4062,-2.3169,-2.3091,-2.3091,-2.3091,-2.3091,-2.3091,-2.3091,-2.3091,-2.3091,-2.3091,-2.3091,-2.3091,-2.3091,-2.2672,-2.251,-2.249,-2.207,-2.1875,-3.1162,-3.272,-3.3921,-3.2901,-3.1136,-2.9332,-2.8077,-2.6707,-2.5535,-2.4888,-2.4587,-2.439,-2.439,-2.4833,-2.5331,-2.5727,-2.6309,0.0,0.0,0.0,0.0,0.0,0.0,0.0,0.0,0.0,0.0,0.0,0.0,0.0,0.0,-3.3301,-3.3086,-3.2803,-3.21,-3.166,-3.1514,-3.1103,-3.0889,-3.0889,-3.0889,-3.0889,-3.0889,-3.0889,0.0,0.0,0.0,0.0,0.0,-3.0391,-3.0029,-2.9707,-2.9141,-2.874,-2.8476,-2.834,-2.8291,-2.8291,-2.8291,-2.8291,-2.8291,-2.8291,-2.8291,-2.8291,-2.8291,-2.8291,-2.8291,-2.8291,-2.8291,-2.8291,-2.8291,-2.8193,-2.8018,-2.7787,-2.7783,-2.7812,-2.7519,-2.7793,-2.8057,-2.792,-2.7773,-2.7679,-2.748,-2.7207,-2.7012,-2.7012,-2.6904,-2.6709,-2.6426,-2.6269,-2.5898,-2.5194,-2.4988,-2.4629,-2.4062,-2.3432,-2.3227,-2.3564,-2.3257,-2.3091,-2.3091,-2.3091,-2.3091,-2.3091,-2.3091,-2.3091,-2.3091,-2.2964,-2.275,-2.25,-2.208,-2.1885,-2.8983,-3.0173,-3.1043,-3.0761,-2.961,0.0,-2.7311,-2.6414,-2.561,-2.5095,-2.4789,-2.4733,-2.4892,-2.5277,-2.5718,-2.6292,-2.6602,0.0,0.0,0.0,0.0,0.0,0.0,0.0,0.0,0.0,0.0,0.0,0.0,0.0,0.0,-3.3418,-3.3232,-3.2803,-3.2129,-3.168,-3.1514,-3.1103,-3.0889,-3.0889,-3.0889,-3.0889,-3.0889,-3.0889,0.0,0.0,0.0,0.0,0.0,-3.0576,-3.0303,-3.0019,-2.958,-2.9238,-2.8994,-2.8828,-2.8672,-2.8535,-2.8535,-2.8428,-2.8291,-2.8291,-2.8291,-2.8291,-2.8291,-2.8291,-2.8291,-2.8291,-2.8291,-2.8291,-2.8291,-2.8291,-2.8223,-2.7969,-2.8105,-2.8223,-2.7959,-2.8105,-2.8291,-2.8291,-2.8086,-2.791,-2.791,-2.7676,-2.75,-2.75,-2.7363,-2.7168,-2.6904,-2.6582,-2.6172,-2.5673,-2.5321,-2.5029,-2.4922,-2.4075,-2.3672,-2.3779,-2.3535,-2.3266,-2.3101,-2.3091,-2.3091,-2.3091,-2.3091,-2.3091,-2.3091,-2.3091,-2.2955,-2.2744,-2.2314,-2.2207,0.0,-2.6454,-2.7334,-2.7334,-2.7327,-2.7154,-2.6492,-2.6248,0.0,-2.5307,-2.5083,-2.514,-2.5588,-2.5915,-2.6261,-2.6941,-2.706,0.0,0.0,-2.8922,0.0,0.0,0.0,0.0,0.0,0.0,0.0,0.0,0.0,0.0,0.0,-3.3389,-3.3184,-3.2764,-3.2344,-3.1924,-3.1523,-3.1103,-3.0889,-3.0889,-3.0889,-3.0889,-3.0889,-3.0889,0.0,0.0,0.0,0.0,0.0,-3.0889,-3.0869,-3.0801,-3.0361,-3.0176,-3.0107,-2.9717,-2.9316,-2.8965,-2.8926,-2.8662,-2.833,-2.8301,-2.8291,-2.8291,-2.8291,-2.8291,-2.8291,-2.8291,-2.8291,-2.8291,-2.8291,-2.8291,-2.8291,-2.8291,-2.8291,-2.8291,-2.8291,-2.8291,-2.8291,-2.8291,-2.8291,-2.8291,-2.8291,-2.8291,-2.8291,-2.8291,-2.7959,-2.7748,-2.7718,-2.6973,-2.6455,-2.6396,-2.5703,-2.5312,-2.5654,-2.4884,-2.4248,-2.3857,-2.3809,-2.3594,-2.311,-2.3091,-2.3091,-2.3091,-2.3091,-2.3091,-2.3091,-2.3091,-2.3091,-2.3081,-2.2744,-2.2721,-2.4564,0.0,-2.5455,-2.5455,-2.5687,-2.5838,0.0,-2.5592,-2.5646,-2.5886,-2.5894,-2.6009,-2.6327,-2.6601,-2.6849,-2.7172,0.0,0.0,-2.8466,0.0,0.0,0.0,0.0,0.0,0.0,0.0,0.0,0.0,0.0,0.0,0.0,-3.3115,-3.2754,-3.2324,-3.1894,-3.1621,-3.1514,-3.1103,-3.0889,-3.0889,-3.0889,-3.0889,-3.0889,-3.0889,0.0,0.0,0.0,0.0,-3.0889,-3.0889,-3.0684,-3.0342,-3.0234,-3.0,-2.9707,-2.96,-2.9502,-2.9365,-2.9033,-2.8857,-2.8721,-2.8398,-2.8291,-2.8291,-2.8291,-2.8291,-2.8291,-2.8291,-2.8291,-2.8291,-2.8291,-2.8291,-2.8291,-2.8291,-2.8291,-2.8291,-2.8291,-2.8291,-2.8291,-2.8291,-2.8291,-2.8291,-2.8291,-2.8291,-2.8291,-2.8291,-2.8203,-2.8027,-2.7757,-2.7542,-2.7119,-2.6455,-2.6201,-2.5986,-2.5703,-2.4884,-2.4375,-2.4277,-2.3965,-2.3594,-2.311,-2.3091,-2.3091,-2.3091,-2.3091,-2.3091,-2.3091,-2.3091,-2.3091,-2.3091,-2.2994,-2.3003,-2.4295,-2.4688,-2.5005,-2.4831,-2.5078,-2.547,-2.5653,-2.5605,-2.573,-2.6167,-2.621,-2.6238,-2.6645,-2.6564,-2.6727,0.0,-2.7356,0.0,0.0,0.0,0.0,0.0,0.0,0.0,0.0,0.0,0.0,0.0,0.0,0.0,0.0,-3.292,-3.251,-3.1894,-3.1641,-3.1426,-3.123,-3.1006,-3.0889,-3.0889,-3.0889,-3.0889,-3.0889,-3.0889,-3.0889,0.0,0.0,0.0,-3.0889,-3.0889,-3.0742,-3.0518,-3.0518,-3.0381,-3.0176,-3.0176,-3.0039,-2.9795,-2.9365,-2.8955,-2.8594,-2.8369,-2.8291,-2.8291,-2.8291,-2.8291,-2.8291,-2.8291,-2.8291,-2.8291,-2.8291,-2.8291,-2.8291,-2.8291,-2.8291,-2.8291,-2.8291,-2.8291,-2.8291,-2.8291,-2.8291,-2.8291,-2.8291,-2.8291,-2.8291,-2.8291,-2.8291,-2.8213,-2.7988,-2.7783,-2.7542,-2.7072,-2.6621,-2.6299,-2.6055,-2.541,-2.4932,-2.4727,-2.4316,-2.3887,-2.3457,-2.3198,-2.3091,-2.3091,-2.3091,-2.3091,-2.3091,-2.3091,-2.3091,-2.3091,-2.3091,-2.3091,-2.4146,-2.4854,-2.5414,-2.5019,-2.5227,-2.5577,-2.5973,-2.5965,-2.6001,-2.6402,-2.6364,-2.6343,-2.6683,-2.6445,0.0,0.0,0.0,0.0,0.0,0.0,0.0,0.0,0.0,0.0,0.0,0.0,0.0,0.0,0.0,0.0,0.0,-3.2734,-3.2334,-3.1543,-3.1455,-3.125,-3.0898,-3.0889,-3.0889,-3.0889,-3.0889,-3.0889,-3.0889,-3.0889,-3.0889,0.0,0.0,0.0,-3.0889,-3.0889,-3.0889,-3.0889,-3.0889,-3.0889,-3.0889,-3.0889,-3.0644,-3.0234,-2.9736,-2.9004,-2.8291,-2.8291,-2.8291,-2.8291,-2.8291,-2.8291,-2.8291,-2.8291,-2.8291,-2.8291,-2.8291,-2.8291,-2.8291,-2.8291,-2.8291,-2.8291,-2.8291,-2.8291,-2.8291,-2.8291,-2.8291,-2.8291,-2.8291,-2.8291,-2.8291,-2.8291,-2.8291,-2.8291,-2.8291,-2.7978,-2.7787,-2.7728,-2.7012,-2.6523,-2.6396,-2.6055,-2.5644,-2.5195,-2.4756,-2.4297,-2.3809,-2.3369,-2.3091,-2.3091,-2.3091,-2.3091,-2.3091,-2.3091,-2.3091,-2.3091,-2.3091,-2.3091,-2.3616,-2.4724,-2.5881,-2.5693,-2.5698,-2.5838,-2.6247,-2.6346,-2.6411,-2.6812,-2.6894,-2.6821,-2.6659,-2.717,-2.7516,0.0,0.0,-2.9736,0.0,0.0,0.0,0.0,0.0,0.0,0.0,0.0,0.0,0.0,0.0,0.0,0.0,-3.2461,-3.2031,-3.1533,-3.1172,-3.0957,-3.0889,-3.0889,-3.0889,-3.0889,-3.0889,-3.0889,-3.0889,-3.0889,-3.0889,0.0,0.0,-3.0889,-3.0889,-3.0889,-3.0889,-3.0889,-3.0889,-3.0889,-3.0889,-3.0889,-3.084,-3.0664,-2.9853,-2.9004,-2.8291,-2.8291,-2.8291,-2.8291,-2.8291,-2.8291,-2.8291,-2.8291,-2.8291,-2.8291,-2.8291,-2.8291,-2.8291,-2.8291,-2.8291,-2.8291,-2.8291,-2.8291,-2.8291,-2.8291,-2.8291,-2.8291,-2.8291,-2.8291,-2.8291,-2.8291,-2.8291,-2.8291,-2.8291,-2.8232,-2.8057,-2.7757,-2.7601,-2.7178,-2.6455,-2.6328,-2.6103,-2.5664,-2.5215,-2.4609,-2.3828,-2.3369,-2.3091,-2.3091,-2.3091,-2.3091,-2.3091,-2.3091,-2.3091,-2.3091,-2.3091,-2.3091,-2.3514,-2.4484,-2.5487,-2.5763,-2.5924,-2.6017,-2.5928,-2.5919,-2.6045,-2.6586,-2.6672,-2.6658,-2.6484,0.0,-2.7506,-2.8033,0.0,0.0,0.0,0.0,0.0,0.0,0.0,0.0,0.0,0.0,0.0,0.0,0.0,0.0,0.0,0.0,-3.1621,-3.1191,-3.0996,-3.0889,-3.0889,-3.0889,-3.0889,-3.0889,-3.0889,-3.0889,-3.0889,-3.0635,-3.0518,-3.0518,0.0,-3.0518,-3.0537,-3.0791,-3.0742,-3.0537,-3.0791,-3.0596,-3.0176,-3.0176,-3.0029,-2.9766,-2.9355,-2.8809,-2.8291,-2.8291,-2.8291,-2.8291,-2.8291,-2.8291,-2.8291,-2.8291,-2.8291,-2.8291,-2.8291,-2.8291,-2.8291,-2.8291,-2.8291,-2.8291,-2.8291,-2.8291,-2.8291,-2.8291,-2.8291,-2.8291,-2.8291,-2.8291,-2.8291,-2.8291,-2.8291,-2.8291,-2.8291,-2.8291,-2.8223,-2.8027,-2.7855,-2.7562,-2.7119,-2.666,-2.6103,-2.542,-2.5176,-2.4734,-2.3828,-2.3818,-2.3721,-2.3496,-2.3666,-2.3721,-2.3486,-2.3486,-2.3369,-2.3091,-2.3091,-2.3091,-2.327,-2.4163,-2.5056,-2.5166,-2.5811,-2.6328,-2.61,-2.611,-2.6291,-2.6824,-2.6854,-2.6723,-2.6536,-2.6742,0.0,-2.9098,-3.0221,0.0,0.0,0.0,0.0,0.0,0.0,0.0,0.0,0.0,0.0,0.0,0.0,0.0,0.0,0.0,-3.1328,-3.0898,-3.0889,-3.0889,-3.0889,-3.0889,-3.0889,-3.0889,-3.0889,-3.0889,-3.0869,-3.041,-3.0195,-3.0185,-3.0098,-3.0049,-3.0078,-3.0439,-3.043,-3.0225,-3.0478,-3.0166,-2.9626,-2.9626,-2.9287,-2.8916,-2.8916,-2.8643,-2.8291,-2.8291,-2.8291,-2.8291,-2.8291,-2.8291,-2.831,-2.8408,-2.8437,-2.8437,-2.8437,-2.8516,-2.8564,-2.8467,-2.8437,-2.8408,-2.831,-2.8369,-2.8437,-2.8437,-2.8525,-2.8594,-2.8594,-2.8594,-2.8594,-2.8594,-2.8506,-2.8437,-2.8437,-2.8359,-2.8291,-2.8291,-2.7998,-2.7787,-2.7529,-2.6826,-2.6055,-2.5273,-2.5174,-2.4822,-2.4111,-2.4297,-2.4268,-2.3945,-2.4248,-2.4258,-2.3935,-2.3838,-2.3623,-2.3247,-2.314,-2.3091,-2.2578,-2.3796,-2.4774,-2.3732,-2.5206,-2.7103,-2.7611,-2.7809,-2.8055,-2.8445,-2.8236,-2.7734,-2.6914,-2.7075,-2.8079,-3.0363,-3.1236,0.0,0.0,0.0,0.0,0.0,0.0,0.0,0.0,0.0,0.0,0.0,0.0,0.0,0.0,0.0,0.0,-3.0898,-3.0889,-3.0889,-3.0889,-3.0889,-3.0889,-3.0889,-3.0889,-3.0889,-3.0869,-3.041,-3.0195,-3.0176,-2.9785,-2.9619,-2.9675,-2.9704,-2.9873,-3.0166,-2.9805,-2.9685,-2.9626,-2.9626,-2.9287,-2.8916,-2.8916,-2.8643,-2.8291,-2.8291,-2.8291,-2.8291,-2.8291,-2.8291,-2.8369,-2.876,-2.8877,-2.8877,-2.8877,-2.918,-2.9375,-2.8965,-2.8877,-2.876,-2.8379,-2.8603,-2.8877,-2.8877,-2.9199,-2.9538,-2.9538,-2.9538,-2.9538,-2.9538,-2.9131,-2.8877,-2.8877,-2.8535,-2.8291,-2.8291,-2.8262,-2.793,-2.7129,-2.665,-2.6191,-2.5664,-2.5293,-2.5086,-2.5028,-2.4619,-2.4404,-2.4375,-2.4404,-2.4404,-2.4375,-2.3975,-2.3769,-2.373,-2.3286,-2.3091,-2.2433,-2.3769,-2.481,-2.4089,-2.5589,-2.7248,-2.7216,-2.758,-2.8122,-2.8586,-2.8717,-2.8705,-2.8657,0.0,-2.9058,-3.1357,0.0,0.0,0.0,0.0,0.0,0.0,0.0,0.0,0.0,0.0,0.0,0.0,0.0,0.0,0.0,0.0,0.0,-3.0898,-3.0889,-3.0752,-3.0459,-3.0459,-3.0322,-3.0078,-3.0625,-3.0889,-3.0869,-3.0137,-2.9814,-2.9785,-2.9355,-2.917,-2.9189,-2.9453,-2.9502,-2.9365,-2.8935,-2.8935,-2.9131,-2.8867,-2.8672,-2.8535,-2.8535,-2.8428,-2.8291,-2.8291,-2.8291,-2.8291,-2.8291,-2.8291,-2.8379,-2.8799,-2.9111,-2.9326,-2.9326,-2.9443,-2.9587,-2.9365,-2.9326,-2.9277,-2.9121,-2.9209,-2.9326,-2.9326,-2.9453,-2.9626,-2.9626,-2.9626,-2.9473,-2.9209,-2.9023,-2.8818,-2.8564,-2.8389,-2.8291,-2.8291,-2.8291,-2.8057,-2.7471,-2.7275,-2.6885,-2.6182,-2.5732,-2.5361,-2.5125,-2.5176,-2.5107,-2.4824,-2.5098,-2.5098,-2.4814,-2.4658,-2.4316,-2.3789,-2.3887,-2.3608,-2.2214,-2.3598,-2.4811,-2.4334,-2.5857,-2.7474,-2.7431,-2.7997,-2.8737,-2.9604,-2.9556,-2.9459,-3.0074,0.0,0.0,0.0,0.0,0.0,0.0,0.0,0.0,0.0,0.0,0.0,0.0,0.0,0.0,0.0,0.0,0.0,0.0,0.0,0.0,0.0,-3.0752,-3.0518,-3.0205,-3.0068,-2.9853,-2.9636,-3.0185,-3.0469,-3.0449,-2.9707,-2.9365,-2.9336,-2.8906,-2.8721,-2.874,-2.9043,-2.8994,-2.8711,-2.8555,-2.8584,-2.8682,-2.8398,-2.8291,-2.8291,-2.8291,-2.8291,-2.8291,-2.8291,-2.8291,-2.8291,-2.8291,-2.8291,-2.8408,-2.8965,-2.9336,-2.9629,-2.9912,-2.999,-2.9951,-2.9805,-2.9766,-2.9726,-2.9655,-2.9678,-2.9766,-2.9766,-2.9883,-2.999,-2.999,-2.9863,-2.9668,-2.9365,-2.9092,-2.8818,-2.8525,-2.8369,-2.8291,-2.8291,-2.8291,-2.8125,-2.7748,-2.7718,-2.7353,-2.6631,-2.6182,-2.5742,-2.5293,-2.5528,-2.5596,-2.5283,-2.5586,-2.5538,-2.5283,-2.5184,-2.4812,-2.4199,-2.4346,-2.4102,-2.1757,-2.3233,-2.4606,-2.4194,-2.5857,-2.7799,-2.8521,-2.9288,-3.0258,-3.1904,-3.0907,-3.0026,-3.0752,-2.9618,0.0,0.0,0.0,0.0,0.0,0.0,0.0,0.0,0.0,0.0,0.0,0.0,0.0,0.0,0.0,0.0,0.0,0.0,0.0,0.0,-3.0439,-3.0195,-3.0185,-2.9766,-2.956,-2.9616,-2.9616,-2.956,-2.9551,-2.9121,-2.8916,-2.8896,-2.8476,-2.8291,-2.8291,-2.8291,-2.8291,-2.833,-2.875,-2.8662,-2.8291,-2.8291,-2.8291,-2.8291,-2.8291,-2.8291,-2.8291,-2.8291,-2.8291,-2.8291,-2.8291,-2.8291,-2.8476,-2.9326,-2.9626,-2.9832,-3.0654,-3.0889,-3.0771,-3.0312,-3.0205,-3.0088,-2.9678,-2.9912,-3.0205,-3.0205,-3.0576,-3.0889,-3.0889,-3.0508,-3.0195,-3.0185,-2.9473,-2.8926,-2.8916,-2.8555,-2.8291,-2.8291,-2.8291,-2.8125,-2.7757,-2.7728,-2.749,-2.7051,-2.6631,-2.6201,-2.5713,-2.5693,-2.5693,-2.5693,-2.5693,-2.5693,-2.5693,-2.5293,-2.5116,-2.5106,-2.4629,-2.4424,-2.2272,-2.3389,-2.4627,-2.4937,-2.6347,-2.8012,-2.922,-2.9844,-3.0605,-3.1902,-3.1362,-3.0798,-3.1249,-3.0713,0.0,0.0,0.0,0.0,0.0,0.0,0.0,0.0,0.0,0.0,0.0,0.0,0.0,0.0,0.0,0.0,0.0,0.0,0.0,0.0,-3.0264,-2.9912,-2.9307,-2.918,-2.8965,-2.8672,-2.8672,-2.8994,-2.9551,-2.9121,-2.8916,-2.8896,-2.8476,-2.8291,-2.8291,-2.8291,-2.8291,-2.8301,-2.8428,-2.8398,-2.8291,-2.8291,-2.8291,-2.8291,-2.8291,-2.8291,-2.8291,-2.8291,-2.8291,-2.8291,-2.8291,-2.8291,-2.8408,-2.8955,-2.9336,-2.9697,-3.0254,-3.0644,-3.0859,-3.0723,-3.0684,-3.0644,-3.0527,-3.0596,-3.0684,-3.0684,-3.0801,-3.0889,-3.0889,-3.0508,-3.0098,-2.9795,-2.9541,-2.9268,-2.8955,-2.8555,-2.8291,-2.8291,-2.8291,-2.8242,-2.8115,-2.8105,-2.793,-2.75,-2.7353,-2.6963,-2.623,-2.5908,-2.5693,-2.5693,-2.5693,-2.5693,-2.5693,-2.5605,-2.5371,-2.5116,-2.5264,-2.4962,-2.2231,-2.3444,-2.4709,-2.5374,-2.6898,-2.8626,-2.9947,-3.0916,-3.1779,-3.2559,-3.1859,-3.1314,-3.1688,-3.0996,0.0,0.0,0.0,0.0,0.0,0.0,0.0,0.0,0.0,0.0,0.0,0.0,0.0,0.0,0.0,0.0,0.0,0.0,0.0,0.0,-2.9775,-2.9443,-2.8926,-2.875,-2.8545,-2.8291,-2.8291,-2.8564,-2.9053,-2.8789,-2.8672,-2.8662,-2.8398,-2.8291,-2.8291,-2.8291,-2.8291,-2.8291,-2.8291,-2.8291,-2.8291,-2.8291,-2.8291,-2.8291,-2.8291,-2.8291,-2.8291,-2.8291,-2.8291,-2.8291,-2.8291,-2.8291,-2.8379,-2.8799,-2.9111,-2.9404,-2.9834,-3.0283,-3.0664,-3.085,-3.0889,-3.0889,-3.0889,-3.0889,-3.0889,-3.0889,-3.0889,-3.0889,-3.0889,-3.0508,-3.0107,-2.9853,-2.9531,-2.9219,-2.8955,-2.8555,-2.8291,-2.8291,-2.8291,-2.8291,-2.8291,-2.8291,-2.8184,-2.793,-2.7806,-2.7483,-2.6914,-2.6318,-2.5996,-2.5996,-2.5771,-2.5693,-2.5693,-2.5693,-2.5596,-2.5342,-2.5605,-2.5401,-2.1887,-2.3336,-2.4728,-2.5615,-2.7559,-2.9572,-3.0704,-3.2178,-3.3301,-3.3252,0.0,-3.1728,-3.2051,-3.082,0.0,0.0,0.0,0.0,0.0,0.0,0.0,0.0,0.0,0.0,0.0,0.0,0.0,0.0,0.0,0.0,0.0,0.0,0.0,-2.9521,-2.9121,-2.8896,-2.8867,-2.8476,-2.8291,0.0,-2.8291,-2.8291,-2.8291,-2.8291,-2.8291,-2.8291,-2.8291,-2.8291,-2.8291,-2.8291,-2.8291,-2.8291,-2.8291,-2.8291,-2.8291,-2.8291,-2.8291,-2.8291,-2.8291,-2.8291,-2.8291,-2.8291,-2.8291,-2.8291,-2.8291,-2.8291,-2.8369,-2.875,-2.8887,-2.9014,-2.9414,-2.9853,-3.0303,-3.0723,-3.0859,-3.0889,-3.0889,-3.0889,-3.0889,-3.0889,-3.0889,-3.0879,-3.083,-3.0449,-3.0137,-3.0137,-2.9404,-2.8887,-2.8965,-2.8584,-2.8291,-2.8291,-2.8291,-2.8291,-2.8291,-2.8291,-2.8291,-2.8291,-2.7939,-2.7777,-2.7777,-2.6865,-2.6387,-2.6387,-2.5967,-2.5693,-2.5693,-2.5693,-2.5693,-2.5693,-2.5693,-2.5693,-2.2527,-2.3391,-2.4574,-2.6461,-2.8771,-3.0684,-3.1269,-3.1924,-3.2344,-3.1992,-3.2246,-3.2344,-3.1768,0.0,0.0,0.0,0.0,0.0,0.0,0.0,0.0,0.0,0.0,0.0,0.0,0.0,0.0,0.0,0.0,0.0,0.0,0.0,0.0,-2.9072,-2.8965,-2.876,-2.8428,-2.834,-2.8291,0.0,-2.8291,-2.8291,-2.8291,-2.8291,-2.8291,-2.8291,-2.8291,-2.8291,-2.8291,-2.8291,-2.8291,-2.8291,-2.8291,-2.8291,-2.8291,-2.8291,-2.8291,-2.8291,-2.8291,-2.8291,-2.8291,-2.8291,-2.8291,-2.8291,-2.8291,-2.8291,-2.831,-2.8398,-2.8662,-2.8945,-2.9033,-2.9619,-3.0225,-3.0322,-3.0625,-3.0889,-3.0889,-3.0889,-3.0889,-3.0889,-3.0889,-3.0771,-3.041,-2.999,-2.9707,-2.9707,-2.8975,-2.8672,-2.9346,-2.876,-2.8291,-2.8291,-2.8291,-2.8291,-2.8291,-2.8291,-2.8291,-2.8291,-2.8203,-2.8154,-2.8154,-2.7021,-2.6387,-2.6387,-2.5967,-2.5693,-2.5693,-2.5693,-2.5693,-2.5693,-2.5693,-2.5693,-2.2232,-2.3183,-2.4524,-2.7352,-2.9313,-3.0674,-3.1113,-3.1543,-3.1728,-3.1309,-3.1738,-3.2051,0.0,0.0,0.0,0.0,0.0,0.0,0.0,0.0,0.0,0.0,0.0,0.0,0.0,0.0,0.0,0.0,0.0,0.0,0.0,-2.915,-2.8965,-2.834,-2.832,-2.8115,-2.7685,-2.7685,-2.7685,-2.7685,-2.7685,-2.7685,-2.7695,-2.8105,-2.8291,-2.8281,-2.8086,-2.7988,-2.7988,-2.7988,-2.7988,-2.8018,-2.8213,-2.8291,-2.8291,-2.8291,-2.8291,-2.8291,-2.8291,-2.8291,-2.8291,-2.8291,-2.8291,-2.8291,-2.8291,-2.8291,-2.8291,-2.8291,-2.8447,-2.8613,-2.8613,-2.9258,-2.9893,-2.9893,-3.041,-3.0889,-3.0889,-3.0889,-3.0889,-3.0889,-3.0889,-3.081,-3.0576,-3.0351,-3.0127,-2.9902,-2.9316,-2.8994,-2.9228,-2.8691,-2.8291,-2.8291,-2.8291,-2.8291,-2.8291,-2.8291,-2.8291,-2.8291,-2.8291,-2.8291,-2.8291,-2.7461,-2.7002,-2.7002,-2.6377,-2.6055,-2.6045,-2.5791,-2.5693,-2.5693,-2.5693,-2.5693,-2.1526,-2.2991,-2.4867,-2.7912,-2.9346,-3.0117,-3.0644,-3.1035,-3.1211,-3.0947,-3.123,0.0,0.0,0.0,0.0,0.0,0.0,0.0,0.0,0.0,0.0,0.0,0.0,0.0,0.0,0.0,0.0,0.0,0.0,0.0,-2.8203,-2.8447,-2.8271,-2.7578,-2.7559,-2.7383,-2.7021,-2.7012,-2.7012,-2.7012,-2.7012,-2.7012,-2.7041,-2.7744,-2.8076,-2.8057,-2.7705,-2.7559,-2.7611,-2.7689,-2.7669,-2.7598,-2.8018,-2.8135,-2.8086,-2.8154,-2.8184,-2.8193,-2.8271,-2.8291,-2.8291,-2.8291,-2.8291,-2.8291,-2.8291,-2.8291,-2.8291,-2.8291,-2.8291,-2.8291,-2.8291,-2.8877,-2.9473,-2.9551,-3.0127,-3.0703,-3.0859,-3.0889,-3.0889,-3.0889,-3.083,-3.0771,-3.0771,-3.0713,-3.0557,-3.0244,-2.9775,-2.9355,-2.9062,-2.8594,-2.8291,-2.8291,-2.8291,-2.8291,-2.8291,-2.8291,-2.8291,-2.8291,-2.8291,-2.8291,-2.8291,-2.7959,-2.7826,-2.7826,-2.6934,-2.6494,-2.6494,-2.6133,-2.5908,-2.5908,-2.583,-2.5801,-2.0909,-2.3478,-2.6064,-2.7506,-2.8467,-2.9307,-3.0107,0.0,-3.0469,0.0,-3.123,0.0,0.0,0.0,0.0,0.0,0.0,0.0,0.0,0.0,0.0,0.0,0.0,0.0,0.0,0.0,0.0,0.0,0.0,0.0,-2.7806,-2.7441,-2.7217,-2.7109,-2.71,-2.707,-2.7012,-2.7012,-2.7012,-2.7012,-2.7012,-2.7012,-2.7021,-2.7129,-2.7187,-2.7187,-2.7129,-2.71,-2.7139,-2.751,-2.7441,-2.7148,-2.7578,-2.7519,-2.7226,-2.7607,-2.7806,-2.7855,-2.8164,-2.8291,-2.8291,-2.8291,-2.8291,-2.8291,-2.8291,-2.8291,-2.8291,-2.8291,-2.8291,-2.8291,-2.8291,-2.8643,-2.9101,-2.9482,-2.9658,-2.9951,-3.0723,-3.0889,-3.0889,-3.0889,-3.0566,-3.0293,-3.0293,-2.999,-2.9853,-3.0156,-2.9521,-2.9121,-2.9443,-2.8789,-2.8291,-2.8291,-2.8291,-2.8291,-2.8291,-2.8291,-2.8291,-2.8291,-2.8291,-2.8291,-2.8291,-2.8242,-2.8203,-2.8203,-2.7363,-2.6934,-2.6934,-2.6875,-2.6846,-2.6836,-2.6475,-2.6299,-2.1553,-2.3486,-2.5266,-2.6619,-2.7588,-2.8437,-2.9287,-2.9668,-2.9902,-3.0107,0.0,0.0,0.0,0.0,0.0,0.0,0.0,0.0,0.0,0.0,0.0,0.0,0.0,0.0,0.0,0.0,0.0,0.0,0.0,-2.7611,-2.7314,-2.7119,-2.6904,-2.667,-2.6426,-2.6249,-2.6249,-2.581,-2.5684,-2.5928,-2.5928,-2.6055,-2.6249,-2.6249,-2.6562,-2.7002,-2.6768,-2.666,-2.668,-2.6875,-2.6836,-2.6709,-2.7139,-2.7187,-2.7041,-2.7226,-2.7461,-2.7748,-2.7881,-2.8096,-2.8291,-2.8291,-2.8291,-2.8291,-2.8291,-2.8291,-2.8291,-2.8291,-2.8291,-2.8291,-2.8291,-2.8603,-2.8965,-2.916,-2.957,-3.0029,-3.042,-3.0508,-3.0576,-3.084,-3.0723,-3.0586,-3.0586,-3.043,-3.0283,-3.0205,-2.9873,-2.9619,-2.957,-2.9293,-2.8916,-2.8672,-2.8643,-2.8643,-2.8643,-2.8428,-2.8398,-2.8633,-2.8418,-2.8291,-2.8291,-2.8291,-2.8291,-2.8291,-2.7695,-2.7383,-2.7383,-2.7139,-2.7012,-2.7012,-2.6826,-2.6611,-2.1889,-2.3045,-2.4144,-2.5499,-2.652,-2.7373,0.0,0.0,-2.9277,0.0,0.0,0.0,0.0,0.0,0.0,0.0,0.0,0.0,0.0,0.0,0.0,0.0,0.0,0.0,0.0,0.0,0.0,0.0,0.0,-2.7314,-2.6875,-2.6748,-2.6494,-2.6064,-2.5732,-2.5469,-2.5352,-2.4746,-2.458,-2.4902,-2.5057,-2.5244,-2.5566,-2.5635,-2.6035,-2.667,-2.6357,-2.6221,-2.623,-2.6338,-2.6328,-2.626,-2.6689,-2.6787,-2.6699,-2.6816,-2.7129,-2.7519,-2.7679,-2.7939,-2.8291,-2.8291,-2.8291,-2.8291,-2.8291,-2.8291,-2.8291,-2.8291,-2.8291,-2.8291,-2.8291,-2.8525,-2.8809,-2.9033,-2.9492,-2.9961,-3.0303,-3.0371,-3.0478,-3.082,-3.0889,-3.0889,-3.0889,-3.0889,-3.0771,-3.043,-3.0273,-3.0078,-2.9766,-2.9639,-2.9443,-2.9121,-2.9082,-2.9082,-2.9082,-2.8799,-2.8701,-2.8906,-2.873,-2.8516,-2.8301,-2.8398,-2.8398,-2.8291,-2.7988,-2.7822,-2.7822,-2.75,-2.7344,-2.7334,-2.7236,-2.6953,-2.1185,-2.2181,-2.3167,-2.3991,-2.4957,-2.5948,0.0,0.0,0.0,0.0,0.0,0.0,0.0,0.0,0.0,0.0,0.0,0.0,0.0,0.0,0.0,0.0,0.0,0.0,0.0,0.0,0.0,0.0,0.0,-2.6865,-2.6445,-2.6025,-2.5596,-2.5194,-2.5165,-2.4902,-2.4492,-2.4443,-2.4424,-2.4453,-2.4873,-2.5125,-2.5117,-2.5547,-2.5713,-2.5752,-2.5732,-2.5723,-2.5752,-2.6221,-2.6143,-2.5762,-2.625,-2.6172,-2.5801,-2.6269,-2.6689,-2.7109,-2.7529,-2.7939,-2.8291,-2.8291,-2.8291,-2.8291,-2.8291,-2.8291,-2.8291,-2.8291,-2.8291,-2.8291,-2.8291,-2.831,-2.8525,-2.9346,-2.9258,-2.9336,-3.0586,-3.0859,-3.0859,-3.0889,-3.0889,-3.0889,-3.0889,-3.0889,-3.0889,-3.0859,-3.0478,-3.0185,-3.0166,-2.9814,-2.956,-2.9597,-2.9531,-2.9531,-2.9531,-2.9512,-2.9336,-2.8945,-2.9287,-2.9141,-2.833,-2.8672,-2.8701,-2.8301,-2.8271,-2.8262,-2.8262,-2.8232,-2.8223,-2.8213,-2.7822,-2.7402,-2.0872,-2.1521,-2.2136,-2.2685,-2.3727,-2.4756,-2.5226,-2.6032,-2.6777,0.0,0.0,0.0,0.0,0.0,0.0,0.0,0.0,0.0,0.0,0.0,0.0,0.0,0.0,0.0,0.0,0.0,0.0,0.0,0.0,0.0,-2.5986,-2.5547,-2.5234,-2.5116,-2.4578,-2.4033,-2.3559,-2.3877,-2.4014,-2.4014,-2.417,-2.4578,-2.5116,-2.5234,-2.5469,-2.5693,-2.5693,-2.5693,-2.5703,-2.5859,-2.583,-2.5703,-2.5908,-2.583,-2.5703,-2.5869,-2.624,-2.668,-2.71,-2.7529,-2.7939,-2.8203,-2.8291,-2.8291,-2.8291,-2.8291,-2.8291,-2.8291,-2.8291,-2.8291,-2.8291,-2.8291,-2.8506,-2.9365,-2.9658,-2.9951,-3.0723,-3.0889,-3.0889,-3.0889,-3.0889,-3.0889,-3.0889,-3.0889,-3.0889,-3.0889,-3.0752,-3.0644,-3.0644,-3.0508,-3.0303,-3.0,-2.9971,-2.9971,-2.9971,-2.9726,-2.9619,-2.9736,-2.9365,-2.9014,-2.8711,-2.8838,-2.8721,-2.8301,-2.8555,-2.8564,-2.8291,-2.8291,-2.8291,-2.8291,-2.8135,-2.7842,-2.0726,-2.1061,-2.1339,-2.1719,-2.26,-2.3456,-2.3721,0.0,0.0,0.0,0.0,0.0,0.0,0.0,0.0,0.0,0.0,0.0,0.0,0.0,0.0,0.0,0.0,0.0,0.0,0.0,0.0,0.0,0.0,0.0,-2.5547,-2.5234,-2.4979,-2.4648,-2.3945,-2.3437,-2.3091,-2.3428,-2.3574,-2.3574,-2.3721,-2.4082,-2.4648,-2.4979,-2.5156,-2.5265,-2.5557,-2.5693,-2.5693,-2.5693,-2.5693,-2.5693,-2.5693,-2.5693,-2.5693,-2.5693,-2.6103,-2.6641,-2.6914,-2.7393,-2.792,-2.8203,-2.8291,-2.8291,-2.8291,-2.8291,-2.8291,-2.8291,-2.8291,-2.8291,-2.8291,-2.8398,-2.8682,-2.9404,-2.9893,-3.0322,-3.0791,-3.0889,-3.0889,-3.0889,-3.0889,-3.0889,-3.0889,-3.0889,-3.0889,-3.0889,-3.0889,-3.0889,-3.0889,-3.0889,-3.0771,-3.0459,-3.043,-3.043,-3.043,-3.0176,-3.0068,-3.0185,-2.9805,-2.9443,-2.915,-2.9277,-2.915,-2.873,-2.8848,-2.8779,-2.8506,-2.8359,-2.8291,-2.8291,-2.8291,-2.8066,0.0,0.0,0.0,0.0,0.0,0.0,-2.2464,0.0,0.0,0.0,0.0,0.0,0.0,0.0,0.0,0.0,0.0,0.0,0.0,0.0,0.0,0.0,0.0,0.0,0.0,0.0,0.0,0.0,0.0,-2.5967,-2.5145,-2.5086,-2.4695,-2.3799,-2.3359,-2.3091,-2.3091,-2.3091,-2.3091,-2.3101,-2.3574,-2.3779,-2.3818,-2.4695,-2.4814,-2.4482,-2.5342,-2.5674,-2.5693,-2.5693,-2.5693,-2.5693,-2.5693,-2.5693,-2.5693,-2.5693,-2.622,-2.6992,-2.7012,-2.7568,-2.8271,-2.8291,-2.8291,-2.8291,-2.8291,-2.8291,-2.8291,-2.8291,-2.8291,-2.8301,-2.831,-2.8613,-2.9033,-2.9482,-2.9902,-3.0322,-3.0791,-3.0889,-3.0889,-3.0889,-3.0889,-3.0889,-3.0889,-3.0889,-3.0889,-3.0889,-3.0889,-3.0889,-3.0889,-3.0889,-3.0889,-3.0889,-3.0889,-3.0889,-3.0889,-3.0889,-3.0703,-3.0244,-3.0635,-3.0488,-2.9675,-2.998,-3.0,-2.9636,-2.915,-2.8926,-2.8916,-2.8496,-2.8291,-2.8291,-2.8291,-2.8076,-2.0397,0.0,0.0,0.0,0.0,0.0,0.0,0.0,0.0,0.0,0.0,0.0,0.0,0.0,0.0,0.0,0.0,0.0,0.0,0.0,0.0,0.0,0.0,0.0,0.0,0.0,0.0,0.0,-2.5254,-2.5195,-2.4629,-2.4307,-2.3887,-2.3286,-2.3159,-2.3091,-2.3091,-2.3091,-2.3091,-2.3091,-2.3218,-2.3486,-2.3799,-2.4033,-2.4414,-2.4902,-2.5146,-2.5439,-2.5693,-2.5693,-2.5693,-2.5693,-2.5693,-2.5693,-2.5693,-2.5693,-2.6094,-2.6602,-2.6904,-2.7383,-2.7891,-2.8193,-2.8291,-2.8291,-2.8291,-2.8291,-2.8291,-2.8291,-2.8291,-2.8359,-2.8672,-2.8838,-2.9101,-2.9844,-3.0107,-3.0322,-3.0791,-3.0889,-3.0889,-3.0889,-3.0889,-3.0889,-3.0889,-3.0889,-3.0889,-3.0889,-3.0889,-3.0889,-3.0889,-3.0889,-3.0889,-3.0889,-3.0889,-3.0889,-3.0889,-3.0889,-3.084,-3.0703,-3.0508,-3.0283,-3.0029,-3.0137,-3.0,-2.9636,-2.9453,-2.9238,-2.8916,-2.8496,-2.8291,-2.8291,-2.8291,-2.8232,0.0,0.0,0.0,0.0,0.0,0.0,-2.0616,-2.1135,0.0,0.0,0.0,0.0,0.0,0.0,0.0,0.0,0.0,0.0,0.0,0.0,0.0,0.0,0.0,0.0,0.0,0.0,0.0,-2.4453,-2.4648,-2.4609,-2.418,-2.375,-2.3398,-2.3101,-2.3091,-2.3091,-2.3091,-2.3091,-2.3091,-2.3091,-2.3091,-2.3227,-2.3525,-2.3711,-2.4062,-2.4607,-2.4959,-2.5215,-2.5478,-2.5615,-2.5693,-2.5693,-2.5693,-2.5693,-2.5693,-2.5693,-2.6123,-2.668,-2.6934,-2.7412,-2.7969,-2.8213,-2.8291,-2.8291,-2.8291,-2.8291,-2.8291,-2.8291,-2.8418,-2.8613,-2.8857,-2.9053,-2.9355,-3.0039,-3.0195,-3.0322,-3.0791,-3.0889,-3.0889,-3.0889,-3.0889,-3.0889,-3.0889,-3.0889,-3.0889,-3.0889,-3.0889,-3.0889,-3.0889,-3.0889,-3.0889,-3.0889,-3.0889,-3.0889,-3.0889,-3.0889,-3.0889,-3.0889,-3.0635,-3.0488,-3.0488,-3.0488,-3.0371,-3.0127,-2.9932,-2.9619,-2.9189,-2.8584,-2.8291,-2.8291,-2.8291,-2.8291,0.0,0.0,0.0,0.0,0.0,0.0,-2.03,-2.061,-2.0902,0.0,0.0,0.0,0.0,0.0,0.0,0.0,0.0,0.0,0.0,0.0,0.0,0.0,0.0,0.0,0.0,-2.4346,-2.4326,-2.4277,-2.4277,-2.4111,-2.374,-2.3305,-2.3091,-2.3091,-2.3091,-2.3091,-2.3091,-2.3091,-2.3091,-2.3091,-2.3091,-2.3091,-2.311,-2.3545,-2.3769,-2.3906,-2.4715,-2.5106,-2.5176,-2.5528,-2.5693,-2.5693,-2.5693,-2.5693,-2.5693,-2.5693,-2.623,-2.7012,-2.7012,-2.7578,-2.8291,-2.8291,-2.8291,-2.8291,-2.8291,-2.8291,-2.8291,-2.8291,-2.8594,-2.8926,-2.8975,-2.9277,-2.9687,-3.0166,-3.0234,-3.0322,-3.0791,-3.0889,-3.0889,-3.0889,-3.0889,-3.0889,-3.0889,-3.0889,-3.0889,-3.0889,-3.0889,-3.0889,-3.0889,-3.0889,-3.0889,-3.0889,-3.0889,-3.0889,-3.0889,-3.0889,-3.0889,-3.0889,-3.0889,-3.0889,-3.0889,-3.0889,-3.0889,-3.0889,-3.043,-2.999,-2.9626,-2.8799,-2.8428,-2.8428,-2.8428,-2.8428,0.0,0.0,0.0,0.0,0.0,0.0,-2.0304,-2.0697,-2.107,0.0,0.0,0.0,0.0,0.0,0.0,0.0,0.0,0.0,0.0,0.0,0.0,0.0,0.0,0.0,0.0,-2.3906,-2.3769,-2.3364,-2.3344,-2.3305,-2.3227,-2.314,-2.3091,-2.3091,-2.3091,-2.3091,-2.3091,-2.3091,-2.3091,-2.3091,-2.3091,-2.3091,-2.3091,-2.3179,-2.3643,-2.4307,-2.4473,-2.4951,-2.5567,-2.5654,-2.5693,-2.5693,-2.5693,-2.5693,-2.5693,-2.5693,-2.623,-2.7012,-2.7012,-2.7578,-2.8291,-2.8291,-2.8291,-2.8291,-2.8291,-2.8291,-2.8291,-2.8291,-2.8594,-2.9004,-2.9355,-2.9502,-2.9832,-3.0566,-3.0469,-3.0322,-3.0791,-3.0889,-3.0889,-3.0889,-3.0889,-3.0889,-3.0889,-3.0889,-3.0889,-3.0889,-3.0889,-3.0889,-3.0889,-3.0889,-3.0889,-3.0889,-3.0889,-3.0889,-3.0889,-3.0889,-3.0889,-3.0889,-3.0889,-3.0889,-3.0889,-3.0889,-3.0889,-3.0889,-3.043,-2.999,-2.9626,-2.946,-2.9381,-2.9381,-2.9381,-2.9381,0.0,0.0,0.0,-2.2001,0.0,0.0,0.0,-2.088,-2.1001,0.0,0.0,0.0,0.0,0.0,0.0,0.0,0.0,0.0,0.0,0.0,0.0,0.0,0.0,0.0,0.0,-2.3467,-2.3335,-2.311,-2.3091,-2.3091,-2.3091,-2.3091,-2.3091,-2.3091,-2.3091,-2.3091,-2.3091,-2.3091,-2.3091,-2.3091,-2.3091,-2.3091,-2.3101,-2.3315,-2.3809,-2.4424,-2.4648,-2.5117,-2.5693,-2.5693,-2.5693,-2.5693,-2.5693,-2.5693,-2.5693,-2.5693,-2.623,-2.7012,-2.7012,-2.7578,-2.8291,-2.8291,-2.8291,-2.8291,-2.8291,-2.8291,-2.8291,-2.8291,-2.875,-2.9287,-2.9567,-2.9893,-3.0342,-3.0791,-3.0713,-3.0605,-3.084,-3.0889,-3.0889,-3.0889,-3.0889,-3.0889,-3.0889,-3.0889,-3.0889,-3.0889,-3.0889,-3.0889,-3.0889,-3.0889,-3.0577,-2.9717,-2.9648,-2.9648,-2.9648,-2.9648,-3.002,-3.083,-3.0889,-3.0518,-2.9707,-2.9648,-2.9648,-2.9648,-2.9432,-2.9583,-3.0234,-3.0234,-3.0,-2.9626,-2.9626,-2.9626,0.0,0.0,0.0,0.0,0.0,-2.2251,0.0,0.0,0.0,0.0,0.0,0.0,0.0,0.0,0.0,0.0,0.0,0.0,0.0,0.0,0.0,0.0,0.0,0.0,0.0,-2.3144,-2.3144,-2.3091,-2.3144,-2.3135,-2.3091,-2.3091,-2.3091,-2.3091,-2.3091,-2.3091,-2.3091,-2.3091,-2.3091,-2.3091,-2.3091,-2.3091,-2.311,-2.3594,-2.4014,-2.4443,-2.4883,-2.5322,-2.5693,-2.5693,-2.5693,-2.5693,-2.5693,-2.5693,-2.5703,-2.5781,-2.6357,-2.7021,-2.7109,-2.7646,-2.8291,-2.8291,-2.8291,-2.8291,-2.8291,-2.8291,-2.8291,-2.8291,-2.8906,-2.9626,-2.9626,-3.0225,-3.0889,-3.0889,-3.0889,-3.0889,-3.0889,-3.0889,-3.0889,-3.0889,-3.0889,-3.0889,-3.0889,-3.0889,-3.0889,-3.0889,-3.0889,-3.0889,-3.0889,-3.0635,-2.9903,-2.8545,-2.811,-2.7931,-2.7931,-2.823,-2.8979,-3.0333,-3.0392,-2.9835,-2.8486,-2.811,-2.7931,-2.7931,-2.7931,-2.8605,-2.9962,-2.9962,-2.991,-2.9824,-2.9824,-2.9824,0.0,0.0,0.0,0.0,-2.4735,0.0,0.0,0.0,0.0,0.0,0.0,0.0,0.0,0.0,0.0,0.0,0.0,0.0,0.0,0.0,0.0,0.0,0.0,0.0,0.0,0.0,-2.3363,-2.3135,-2.3319,-2.3363,-2.3091,-2.3091,-2.3091,-2.3091,-2.3091,-2.3091,-2.3091,-2.3091,-2.3091,-2.3091,-2.3091,-2.3091,-2.311,-2.3594,-2.4014,-2.4443,-2.4883,-2.5322,-2.5693,-2.5693,-2.5693,-2.5693,-2.5693,-2.5693,-2.5732,-2.6172,-2.6611,-2.707,-2.7461,-2.79,-2.8291,-2.8291,-2.8291,-2.8291,-2.8291,-2.8291,-2.8291,-2.8291,-2.8906,-2.9626,-2.9626,-3.0225,-3.0889,-3.0889,-3.0889,-3.0889,-3.0889,-3.0889,-3.0889,-3.0889,-3.0889,-3.0889,-3.0889,-3.0889,-3.0889,-3.0889,-3.0889,-3.0889,-3.0889,-2.9589,-2.8605,-2.8417,-2.7134,-2.6288,-2.6288,-2.7563,-2.8477,-2.8664,-2.8664,-2.8605,-2.8417,-2.7013,-2.6288,-2.6288,-2.6288,-2.634,-2.6591,-2.6591,-2.8015,-3.0742,-3.0742,-3.0742,0.0,0.0,0.0,0.0,0.0,0.0,-2.3433,0.0,-2.187,0.0,0.0,0.0,0.0,0.0,0.0,0.0,0.0,0.0,0.0,0.0,0.0,0.0,0.0,0.0,0.0,0.0,0.0,0.0,-2.3188,-2.3232,-2.3101,-2.3091,-2.3091,-2.3091,-2.3091,-2.3091,-2.3091,-2.3091,-2.3091,-2.3091,-2.3091,-2.3227,-2.3525,-2.3955,-2.4385,-2.4814,-2.5264,-2.5566,-2.5693,-2.5693,-2.5693,-2.5693,-2.5693,-2.5693,-2.5713,-2.5947,-2.6435,-2.7041,-2.7226,-2.7725,-2.8291,-2.8291,-2.8291,-2.8291,-2.8291,-2.8291,-2.834,-2.8584,-2.9101,-2.9629,-2.9873,-3.041,-3.0889,-3.0889,-3.0889,-3.0889,-3.0889,-3.0889,-3.0889,-3.0889,-3.0889,-3.0889,-3.0889,-3.0889,-3.0889,-3.0889,-3.0889,-3.0889,-3.0889,-2.9462,-2.8051,-2.7134,-2.5566,-2.4602,-2.4602,-2.5208,-2.5993,-2.6953,-2.6114,-2.5635,-2.5635,-2.4039,-2.3613,-2.4594,-2.4602,-2.5077,-2.5976,-2.5976,-2.6712,-2.8059,-2.9039,-2.9962,-2.7726,0.0,0.0,0.0,0.0,0.0,0.0,0.0,0.0,0.0,0.0,0.0,0.0,0.0,0.0,0.0,0.0,0.0,0.0,0.0,0.0,0.0,0.0,0.0,0.0,0.0,0.0,-2.3022,-2.312,-2.3188,-2.3091,-2.3091,-2.3091,-2.3091,-2.3091,-2.3091,-2.3091,-2.3091,-2.3091,-2.3091,-2.3091,-2.3369,-2.3809,-2.4228,-2.4658,-2.5135,-2.5547,-2.5693,-2.5693,-2.5693,-2.5693,-2.5693,-2.5693,-2.5693,-2.5703,-2.582,-2.6387,-2.7031,-2.7148,-2.7676,-2.8291,-2.8291,-2.8291,-2.8291,-2.8291,-2.8291,-2.8359,-2.8662,-2.915,-2.9695,-2.9941,-3.0459,-3.0889,-3.0889,-3.0889,-3.0889,-3.0889,-3.0889,-3.0889,-3.0889,-3.0889,-3.0889,-3.0889,-3.0889,-3.0889,-3.0889,-3.0889,-3.0889,-3.0889,-2.9039,-2.7323,-2.6098,-2.417,-2.2897,-2.2897,-2.3333,-2.4116,-2.5261,-2.424,-2.3387,-2.2959,-2.1727,-2.1664,-2.2897,-2.2897,-2.3497,-2.464,-2.464,-2.4885,-2.5375,-2.7013,-2.8358,0.0,0.0,0.0,-2.7906,0.0,0.0,0.0,0.0,-2.2508,0.0,0.0,0.0,0.0,0.0,0.0,0.0,0.0,0.0,0.0,0.0,0.0,0.0,0.0,0.0,0.0,0.0,0.0,-2.2856,-2.3212,-2.3363,-2.3091,-2.3091,-2.3091,-2.3091,-2.3091,-2.3091,-2.3091,-2.3091,-2.3091,-2.3091,-2.3091,-2.3369,-2.3809,-2.4228,-2.4658,-2.5135,-2.5547,-2.5693,-2.5693,-2.5693,-2.5693,-2.5693,-2.5693,-2.5693,-2.5742,-2.6211,-2.6641,-2.707,-2.75,-2.793,-2.8291,-2.8291,-2.8291,-2.8291,-2.8291,-2.8291,-2.8291,-2.831,-2.8916,-2.957,-2.9646,-3.0234,-3.0889,-3.0889,-3.0889,-3.0889,-3.0889,-3.0889,-3.0889,-3.0889,-3.0889,-3.0889,-3.0889,-3.0889,-3.0889,-3.0889,-3.0889,-3.0889,-3.0889,-2.8059,-2.6037,-2.5976,-2.3124,-2.1166,-2.1166,-2.2654,-2.3636,-2.369,-2.3636,-2.2897,-2.1235,-2.1109,-2.1109,-2.1172,-2.1166,-2.1235,-2.1229,-2.1229,-2.2097,-2.369,-2.5322,-2.6098,0.0,0.0,-2.7773,-2.7963,0.0,0.0,0.0,0.0,0.0,0.0,0.0,0.0,0.0,0.0,0.0,0.0,0.0,0.0,0.0,0.0,0.0,0.0,0.0,0.0,0.0,0.0,0.0,-2.2988,-2.2893,-2.2895,-2.3081,-2.3091,-2.3091,-2.3091,-2.3091,-2.3091,-2.3091,-2.3091,-2.3237,-2.3574,-2.3574,-2.3945,-2.4639,-2.4785,-2.5088,-2.5518,-2.5625,-2.5693,-2.5693,-2.5693,-2.5693,-2.5713,-2.6055,-2.6172,-2.6182,-2.6338,-2.665,-2.7119,-2.7832,-2.8174,-2.8291,-2.8291,-2.8291,-2.8291,-2.8291,-2.8291,-2.8408,-2.8975,-2.9346,-2.9707,-3.0293,-3.0664,-3.0889,-3.0889,-3.0889,-3.0889,-3.0889,-3.0889,-3.0889,-3.0889,-3.0889,-3.0889,-3.0889,-3.0889,-3.0889,-3.0889,-3.0889,-3.0889,-3.0889,-2.8979,-2.7194,-2.6098,-2.4047,-2.2278,-2.1172,-2.1601,-2.1971,-2.1971,-2.1971,-2.1664,-2.1109,-2.1109,-2.1109,-2.1109,-2.1109,-2.1109,-2.1109,-2.1109,-2.1418,-2.1971,-2.2514,-2.3915,-2.8026,-2.7695,0.0,-2.7462,-2.673,0.0,-2.5265,0.0,0.0,0.0,0.0,0.0,0.0,0.0,0.0,0.0,0.0,0.0,0.0,0.0,0.0,0.0,0.0,0.0,0.0,0.0,-2.2745,-2.2968,-2.2797,-2.2814,0.0,0.0,-2.3091,-2.3091,-2.3091,-2.3169,-2.3369,-2.3369,-2.3584,-2.4014,-2.4014,-2.4385,-2.5116,-2.5116,-2.5312,-2.5693,-2.5693,-2.5693,-2.5693,-2.5693,-2.5693,-2.5732,-2.6221,-2.6387,-2.6406,-2.6553,-2.6885,-2.7344,-2.8047,-2.8291,-2.8291,-2.8291,-2.8291,-2.8291,-2.8291,-2.8291,-2.8437,-2.9141,-2.9453,-2.9736,-3.0459,-3.0771,-3.0889,-3.0889,-3.0889,-3.0889,-3.0889,-3.0889,-3.0889,-3.0889,-3.0889,-3.0889,-3.0889,-3.0889,-3.0889,-3.0889,-3.0889,-3.0889,-3.0889,-2.9462,-2.7803,-2.6158,-2.454,-2.2897,-2.1235,-2.1109,-2.1109,-2.1109,-2.1109,-2.1109,-2.1109,-2.1109,-2.1109,-2.1109,-2.1109,-2.1109,-2.1109,-2.1109,-2.1109,-2.1109,-2.1109,-2.2208]},{"header":{"parameterUnit":"m.s-1","parameterCategory":1,"la1":30.6,"la2":29.2853,"lo1":-89.7004,"lo2":-87.6739,"dy":0.0162,"dx":0.0183,"nx":112,"ny":82,"refTime":"2023-04-07T00:00:00:Z","depth":0,"parameterNumber":3,"parameterNumberName":"V-component_of_WINDS"},"data":[0.0,0.0,0.0,0.0,0.0,0.0,0.0,0.0,0.0,0.0,0.0,0.0,0.0,0.0,0.0,0.0,0.0,0.0,0.0,0.0,0.0,0.0,0.0,0.0,0.0,0.0,0.0,0.0,0.0,0.0,0.0,0.0,0.0,0.0,0.0,0.0,0.0,0.0,0.0,0.0,0.0,0.0,0.0,0.0,0.0,0.0,0.0,0.0,0.0,0.0,0.0,0.0,0.0,0.0,0.0,0.0,0.0,0.0,0.0,0.0,0.0,0.0,0.0,0.0,0.0,0.0,0.0,0.0,0.0,0.0,0.0,0.0,0.0,0.0,0.0,0.0,0.0,0.0,0.0,0.0,0.0,0.0,0.0,0.0,0.0,0.0,0.0,0.0,0.0,0.0,0.0,1.5556,1.7193,1.7792,1.6818,1.7369,1.7268,1.6075,0.0,0.0,0.0,0.0,0.0,0.0,0.0,0.0,0.0,0.0,0.0,0.0,0.0,0.0,0.0,0.0,0.0,0.0,0.0,0.0,0.0,0.0,0.0,0.0,0.0,0.0,0.0,0.0,0.0,0.0,0.0,0.0,0.0,0.0,0.0,0.0,0.0,0.0,0.0,0.0,0.0,0.0,0.0,0.0,0.0,0.0,0.0,0.0,0.0,0.0,0.0,0.0,0.0,0.0,0.0,0.0,0.0,0.0,0.0,0.0,0.0,0.0,0.0,0.0,0.0,0.0,0.0,0.0,0.0,0.0,0.0,0.0,0.0,0.0,0.0,0.0,0.0,0.0,0.0,0.0,0.0,0.0,0.0,0.0,0.0,0.0,0.0,0.0,0.0,0.0,0.0,0.0,0.0,0.0,0.0,0.0,0.0,0.0,0.0,0.0,0.0,0.0,0.0,0.0,1.592,1.7478,1.7729,1.7917,1.8257,1.7268,1.6573,1.6417,0.0,0.0,0.0,0.0,0.0,0.0,0.0,0.0,0.0,0.0,0.0,0.0,0.0,0.0,0.0,0.0,0.0,0.0,0.0,0.0,0.0,0.0,0.0,0.0,0.0,0.0,0.0,0.0,0.0,0.0,0.0,0.0,0.0,0.0,0.0,0.0,0.0,0.0,0.0,0.0,0.0,0.0,0.0,0.0,0.0,0.0,0.0,0.0,0.0,0.0,0.0,0.0,0.0,0.0,0.0,0.0,0.0,0.0,0.0,0.0,0.0,0.0,0.0,0.0,0.0,0.0,0.0,0.0,0.0,0.0,0.0,0.0,0.0,0.0,0.0,0.0,0.0,0.0,0.0,0.0,0.0,0.0,0.0,0.0,0.0,0.0,0.0,0.0,0.0,0.0,0.0,0.0,0.0,0.0,0.0,0.0,0.0,0.0,0.0,0.0,0.0,0.0,0.0,1.7629,1.7976,1.8984,1.8778,1.8404,1.7993,1.7002,1.6397,1.6391,1.5393,0.0,0.0,0.0,0.0,0.0,0.0,0.0,0.0,0.0,0.0,0.0,0.0,0.0,0.0,0.0,0.0,0.0,0.0,0.0,0.0,0.0,0.0,0.0,0.0,0.0,0.0,0.0,0.0,0.0,0.0,0.0,0.0,0.0,0.0,0.0,0.0,0.0,0.0,0.0,0.0,0.0,0.0,0.0,0.0,0.0,0.0,0.0,0.0,0.0,0.0,0.0,0.0,0.0,0.0,0.0,0.0,0.0,0.0,0.0,0.0,0.0,0.0,0.0,0.0,0.0,0.0,0.0,0.0,0.0,0.0,0.0,0.0,0.0,0.0,0.0,0.0,0.0,0.0,0.0,0.0,0.0,0.0,0.0,0.0,0.0,0.0,0.0,0.0,0.0,0.0,0.0,0.0,0.0,0.0,0.0,0.0,0.0,0.0,0.0,0.0,0.0,0.0,1.9274,1.9281,1.9844,1.9541,1.8831,1.7744,1.6877,1.6444,1.6503,1.5663,0.0,0.0,0.0,0.0,0.0,0.0,0.0,0.0,0.0,0.0,0.0,0.0,0.0,0.0,0.0,0.0,0.0,0.0,0.0,0.0,0.0,0.0,0.0,0.0,0.0,0.0,0.0,0.0,0.0,0.0,0.0,0.0,0.0,0.0,0.0,0.0,0.0,0.0,0.0,0.0,0.0,0.0,0.0,0.0,0.0,0.0,0.0,0.0,0.0,0.0,0.0,0.0,0.0,0.0,0.0,0.0,0.0,0.0,0.0,0.0,0.0,0.0,0.0,0.0,0.0,0.0,0.0,0.0,0.0,0.0,0.0,0.0,0.0,0.0,0.0,0.0,0.0,0.0,0.0,0.0,0.0,0.0,0.0,0.0,0.0,0.0,0.0,0.0,0.0,0.0,0.0,0.0,0.0,0.0,0.0,0.0,0.0,0.0,0.0,0.0,0.0,0.0,1.8813,1.8564,1.9785,1.9541,1.9068,1.8485,1.7169,1.6624,1.7124,1.6555,0.0,0.0,0.0,0.0,0.0,0.0,0.0,0.0,0.0,0.0,0.0,0.0,0.0,0.0,0.0,0.0,0.0,0.0,0.0,0.0,0.0,0.0,0.0,0.0,0.0,0.0,0.0,0.0,0.0,0.0,0.0,0.0,0.0,0.0,0.0,0.0,0.0,0.0,0.0,0.0,0.0,0.0,0.0,0.0,0.0,0.0,0.0,0.0,0.0,0.0,0.0,0.0,0.0,0.0,0.0,0.0,0.0,0.0,0.0,0.0,0.0,0.0,0.0,0.0,0.0,0.0,0.0,0.0,0.0,0.0,0.0,0.0,0.0,0.0,0.0,0.0,0.0,0.0,0.0,0.0,0.0,0.0,0.0,0.0,0.0,0.0,0.0,0.0,0.0,0.0,0.0,0.0,0.0,0.0,0.0,0.0,0.0,0.0,0.0,0.0,0.0,0.0,2.0655,2.0393,0.0,2.1076,2.0424,1.8997,1.8194,1.7686,1.7534,0.0,0.0,0.0,0.0,0.0,0.0,0.0,0.0,0.0,0.0,0.0,0.0,0.0,0.0,0.0,0.0,0.0,0.0,0.0,0.0,0.0,0.0,0.0,0.0,0.0,0.0,0.0,0.0,0.0,0.0,0.0,0.0,0.0,0.0,0.0,0.0,0.0,0.0,0.0,0.0,0.0,0.0,0.0,0.0,0.0,0.0,0.0,0.0,0.0,0.0,0.0,0.0,0.0,0.0,0.0,0.0,0.0,0.0,0.0,0.0,0.0,0.0,0.0,0.0,0.0,0.0,0.0,0.0,0.0,0.0,0.0,0.0,0.0,0.0,0.0,0.0,0.0,0.0,0.0,0.0,0.0,0.0,0.0,0.0,0.0,0.0,0.0,0.0,0.0,0.0,0.0,0.0,0.0,0.0,0.0,0.0,0.0,0.0,0.0,0.0,0.0,0.0,2.1979,2.1609,2.1382,0.0,2.2001,2.1374,1.9825,1.886,1.8242,1.8066,0.0,0.0,0.0,0.0,0.0,0.0,0.0,0.0,0.0,0.0,0.0,0.0,0.0,0.0,0.0,0.0,0.0,0.0,0.0,0.0,0.0,0.0,0.0,0.0,0.0,0.0,0.0,0.0,0.0,0.0,0.0,0.0,0.0,0.0,0.0,0.0,0.0,0.0,0.0,0.0,0.0,0.0,0.0,0.0,0.0,0.0,0.0,0.0,0.0,0.0,0.0,0.0,0.0,0.0,0.0,0.0,0.0,0.0,0.0,0.0,0.0,0.0,0.0,0.0,0.0,0.0,0.0,0.0,0.0,0.0,0.0,0.0,0.0,0.0,0.0,0.0,0.0,0.0,0.0,0.0,0.0,0.0,0.0,0.0,0.0,0.0,0.0,0.0,0.0,0.0,0.0,0.0,0.0,0.0,0.0,0.0,0.0,0.0,0.0,0.0,0.0,0.0,2.1779,2.1185,2.096,2.1935,2.2036,2.1763,2.1067,1.8991,1.8036,0.0,0.0,0.0,0.0,0.0,0.0,0.0,0.0,0.0,0.0,0.0,0.0,0.0,0.0,0.0,0.0,0.0,0.0,0.0,0.0,0.0,0.0,0.0,0.0,0.0,0.0,0.0,0.0,0.0,0.0,0.0,0.0,0.0,0.0,0.0,0.0,0.0,0.0,0.0,0.0,0.0,0.0,0.0,0.0,0.0,0.0,0.0,0.0,0.0,0.0,0.0,0.0,0.0,0.0,0.0,0.0,0.0,0.0,0.0,0.0,0.0,0.0,0.0,0.0,0.0,0.0,0.0,0.0,0.0,0.0,0.0,0.0,0.0,0.0,0.0,0.0,0.0,0.0,0.0,0.0,0.0,0.0,0.0,0.0,0.0,0.0,0.0,0.0,0.0,0.0,0.0,0.0,0.0,0.0,0.0,0.0,0.0,0.0,0.0,0.0,0.0,0.0,0.0,2.3442,2.2154,2.1772,2.3753,2.3648,2.2866,2.1473,2.0015,1.9462,2.011,0.0,0.0,0.0,0.0,0.0,0.0,0.0,0.0,0.0,0.0,0.0,0.0,0.0,0.0,0.0,0.0,0.0,0.0,0.0,0.0,0.0,0.0,0.0,0.0,0.0,0.0,0.0,0.0,0.0,0.0,0.0,0.0,0.0,0.0,0.0,0.0,0.0,0.0,0.0,0.0,0.0,0.0,0.0,0.0,0.0,0.0,0.0,0.0,0.0,0.0,0.0,0.0,0.0,0.0,0.0,0.0,0.0,0.0,0.0,0.0,0.0,0.0,0.0,0.0,0.0,0.0,0.0,0.0,0.0,0.0,0.0,0.0,0.0,0.0,0.0,0.0,0.0,0.0,0.0,0.0,0.0,0.0,0.0,0.0,0.0,0.0,0.0,0.0,0.0,0.0,0.0,0.0,0.0,0.0,0.0,0.0,0.0,0.0,0.0,0.0,0.0,0.0,2.4073,2.2781,2.237,2.4267,2.4192,2.3401,2.1945,2.0577,1.9835,1.9935,0.0,0.0,0.0,0.0,0.0,0.0,0.0,0.0,0.0,0.0,0.0,0.0,0.0,0.0,0.0,0.0,0.0,0.0,0.0,0.0,0.0,0.0,0.0,0.0,0.0,0.0,0.0,0.0,0.0,0.0,0.0,0.0,0.0,0.0,0.0,0.0,0.0,0.0,0.0,0.0,0.0,0.0,0.0,0.0,0.0,0.0,0.0,0.0,0.0,0.0,0.0,0.0,0.0,0.0,0.0,0.0,0.0,0.0,0.0,0.0,0.0,0.0,0.0,0.0,0.0,0.0,0.0,0.0,0.0,0.0,0.0,0.0,0.0,0.0,0.0,0.0,0.0,0.0,0.0,0.0,0.0,0.0,0.0,0.0,0.0,0.0,0.0,0.0,0.0,0.0,0.0,0.0,0.0,0.0,0.0,0.0,0.0,0.0,0.0,0.0,0.0,0.0,2.4068,2.3094,2.2686,2.3866,2.3954,2.3464,2.2334,2.079,1.9597,1.8958,0.0,0.0,0.0,0.0,0.0,0.0,0.0,0.0,0.0,0.0,0.0,0.0,0.0,0.0,0.0,0.0,0.0,0.0,0.0,0.0,0.0,0.0,0.0,0.0,0.0,0.0,0.0,0.0,0.0,0.0,0.0,0.0,0.0,0.0,0.0,0.0,0.0,0.0,0.0,0.0,0.0,0.0,0.0,0.0,0.0,0.0,0.0,0.0,0.0,0.0,0.0,0.0,0.0,0.0,0.0,0.0,0.0,0.0,0.0,0.0,2.8051,0.0,0.0,0.0,0.0,0.0,0.0,0.0,0.0,0.0,0.0,0.0,0.0,0.0,0.0,0.0,0.0,0.0,0.0,0.0,0.0,0.0,0.0,0.0,0.0,0.0,0.0,0.0,0.0,0.0,0.0,0.0,0.0,0.0,0.0,0.0,0.0,0.0,0.0,0.0,0.0,0.0,2.4814,2.3094,2.2259,2.3828,2.359,2.2844,2.1757,2.0968,2.0317,1.9838,1.8942,0.0,0.0,0.0,0.0,0.0,0.0,0.0,0.0,0.0,0.0,0.0,0.0,0.0,0.0,0.0,0.0,0.0,0.0,0.0,0.0,0.0,0.0,0.0,0.0,0.0,0.0,0.0,0.0,0.0,0.0,0.0,0.0,0.0,0.0,0.0,0.0,0.0,0.0,0.0,0.0,0.0,0.0,0.0,0.0,0.0,0.0,0.0,0.0,0.0,0.0,0.0,0.0,0.0,0.0,0.0,0.0,0.0,0.0,0.0,0.0,2.8941,0.0,0.0,0.0,0.0,0.0,0.0,0.0,0.0,0.0,0.0,0.0,0.0,0.0,0.0,0.0,0.0,0.0,0.0,0.0,0.0,0.0,0.0,0.0,0.0,0.0,0.0,0.0,0.0,0.0,0.0,0.0,0.0,0.0,0.0,0.0,0.0,0.0,0.0,0.0,0.0,2.5195,2.3145,2.2033,2.3439,2.3283,2.2769,2.1958,2.1169,2.0497,1.9998,1.9488,0.0,0.0,0.0,0.0,0.0,0.0,0.0,0.0,0.0,0.0,0.0,0.0,0.0,0.0,0.0,0.0,0.0,0.0,0.0,0.0,0.0,0.0,0.0,0.0,0.0,0.0,0.0,0.0,0.0,0.0,0.0,0.0,0.0,0.0,0.0,0.0,0.0,0.0,0.0,0.0,0.0,0.0,0.0,0.0,0.0,0.0,0.0,0.0,0.0,0.0,0.0,0.0,0.0,3.7132,3.7407,3.7571,3.7454,3.6809,3.5644,3.232,3.0504,2.9936,0.0,0.0,0.0,0.0,0.0,0.0,0.0,0.0,0.0,0.0,0.0,0.0,0.0,0.0,0.0,0.0,0.0,0.0,0.0,0.0,0.0,0.0,0.0,0.0,0.0,3.0004,2.8828,0.0,0.0,0.0,0.0,0.0,0.0,0.0,0.0,0.0,0.0,0.0,0.0,2.5258,2.3444,2.2393,2.3399,2.3501,2.3271,2.2738,2.1781,2.0914,2.021,2.0214,2.0052,0.0,0.0,0.0,0.0,0.0,0.0,0.0,0.0,0.0,0.0,0.0,0.0,0.0,0.0,0.0,0.0,0.0,0.0,0.0,0.0,0.0,0.0,0.0,0.0,0.0,0.0,0.0,0.0,0.0,0.0,0.0,0.0,3.2347,3.2772,0.0,0.0,0.0,0.0,0.0,0.0,0.0,0.0,0.0,0.0,0.0,0.0,0.0,3.9527,3.9149,4.0376,4.0641,3.9983,4.0371,3.9891,3.858,3.8007,3.7559,3.7126,3.4877,0.0,3.2234,3.184,0.0,0.0,0.0,0.0,0.0,0.0,0.0,0.0,0.0,0.0,0.0,0.0,0.0,0.0,0.0,0.0,0.0,0.0,0.0,0.0,0.0,0.0,3.0197,2.9182,2.9253,2.9316,0.0,2.8427,2.8549,2.8367,2.7019,0.0,0.0,0.0,0.0,0.0,0.0,0.0,2.4698,2.4339,2.4368,2.5037,2.5091,2.486,2.4258,2.3589,2.2764,2.1687,2.0574,2.0249,2.0926,2.063,0.0,0.0,0.0,0.0,0.0,0.0,0.0,0.0,0.0,0.0,0.0,0.0,0.0,0.0,0.0,0.0,0.0,0.0,0.0,0.0,0.0,0.0,0.0,0.0,0.0,0.0,0.0,0.0,0.0,3.476,3.5341,3.414,3.5807,3.728,0.0,0.0,0.0,0.0,0.0,0.0,0.0,0.0,0.0,3.9637,4.0535,4.0884,4.0642,4.1959,4.2505,4.2169,4.2245,4.1718,4.0684,3.982,3.9198,3.8732,3.7873,3.6504,3.4816,3.3775,3.333,3.3305,0.0,0.0,0.0,0.0,3.303,3.3257,3.2129,3.2042,0.0,0.0,0.0,0.0,0.0,0.0,0.0,0.0,0.0,0.0,0.0,0.0,0.0,3.154,3.1569,3.1794,3.1884,3.077,2.9609,0.0,2.9443,2.9813,2.9799,0.0,0.0,0.0,0.0,2.5299,2.5685,2.5343,2.5148,2.537,2.573,2.5536,2.4542,2.3934,2.3075,2.1812,2.086,2.035,2.0355,2.0735,2.1373,0.0,0.0,0.0,0.0,0.0,0.0,0.0,0.0,0.0,0.0,0.0,0.0,0.0,0.0,0.0,0.0,0.0,0.0,0.0,0.0,0.0,0.0,0.0,0.0,0.0,0.0,0.0,0.0,3.6188,3.6938,3.5279,3.7018,3.8526,0.0,0.0,0.0,0.0,0.0,0.0,4.0037,4.0856,4.1366,4.1603,4.2338,4.2584,4.2354,4.3639,4.4282,4.4254,4.4123,4.355,4.2664,4.1916,4.0959,3.9957,3.9769,3.8698,3.695,3.5594,3.4453,3.3608,3.4045,3.4258,3.4258,3.3968,3.4181,3.4501,3.3774,3.391,3.4318,3.4121,0.0,3.3804,3.3501,0.0,0.0,0.0,0.0,3.401,3.3224,3.3657,3.418,3.3827,3.3888,3.4098,3.4444,3.3185,3.1555,0.0,3.0772,3.1708,3.1486,0.0,0.0,0.0,0.0,2.6388,2.665,2.6465,2.6266,2.6213,2.6368,2.6043,2.5045,2.427,2.3435,2.2423,2.1634,2.0914,2.0243,2.0914,2.1362,2.15,0.0,0.0,0.0,0.0,0.0,0.0,0.0,0.0,0.0,0.0,0.0,0.0,0.0,0.0,0.0,0.0,0.0,0.0,0.0,0.0,0.0,0.0,0.0,0.0,0.0,0.0,0.0,0.0,0.0,3.5983,3.705,0.0,0.0,0.0,0.0,4.045,4.1127,4.1566,4.1753,4.3138,4.372,4.3308,4.4728,4.5488,4.5483,4.6244,4.6616,4.6616,4.6621,4.5692,4.4016,4.3949,4.2629,4.0312,3.9682,3.9007,3.8217,3.6995,3.6167,3.5661,3.5691,3.6544,3.7567,3.6179,3.5676,3.5435,3.3306,3.2587,3.2871,3.427,3.5681,3.6535,3.5057,3.4943,0.0,0.0,3.3994,3.3938,3.2826,3.3514,3.4472,3.4474,3.4936,3.5235,3.4638,3.5402,3.5055,0.0,2.9056,2.8211,2.9262,0.0,2.8866,2.7748,2.8963,2.9188,2.69,2.7671,2.8427,2.8442,2.7324,2.6549,2.6489,2.5288,2.4514,2.4447,2.3283,2.2288,2.162,2.1047,2.0974,2.1485,2.153,0.0,0.0,0.0,0.0,0.0,0.0,0.0,0.0,0.0,0.0,0.0,0.0,0.0,0.0,0.0,0.0,0.0,0.0,0.0,0.0,0.0,0.0,0.0,0.0,0.0,0.0,0.0,0.0,3.9568,4.0528,0.0,4.1659,4.1349,4.1385,4.2083,4.2097,4.2536,4.3569,4.4597,4.5486,4.6266,4.6836,4.7581,4.8511,4.8325,4.8443,4.89,4.7849,4.6745,4.5652,4.4455,4.3194,4.1862,4.0601,3.9664,3.8996,3.8122,3.6914,3.5557,3.5138,3.502,3.5082,3.5005,3.4958,3.4928,3.4563,3.4442,3.4382,3.4086,3.4329,3.4555,3.3561,3.3741,3.4234,3.4251,3.4324,3.4394,3.441,3.4786,3.513,3.513,3.5325,3.5429,3.519,3.516,3.4668,3.2781,3.1869,3.1616,3.2332,3.0458,2.9213,3.0308,2.9753,2.9041,2.8583,2.928,2.952,2.8682,2.8547,2.7814,2.6108,2.5525,2.4717,2.3445,2.2957,2.2403,2.1724,2.1066,2.1002,2.162,2.0784,2.154,0.0,0.0,0.0,0.0,0.0,0.0,0.0,0.0,0.0,0.0,0.0,0.0,0.0,0.0,0.0,0.0,0.0,0.0,0.0,0.0,0.0,0.0,0.0,0.0,0.0,0.0,4.0993,4.2289,4.3087,4.3702,4.4101,4.3561,4.3379,4.3866,4.4069,4.4739,4.6007,4.6769,4.775,4.8954,4.9004,4.9492,5.0456,4.9999,4.9864,5.0084,4.8987,4.7917,4.6913,4.5658,4.4382,4.3082,4.1992,4.0863,3.9694,3.902,3.7838,3.6402,3.5729,3.507,3.4577,3.5235,3.534,3.5222,3.5415,3.5504,3.5355,3.4457,3.4173,3.4098,3.3664,3.3829,3.4262,3.4696,3.4848,3.4936,3.5385,3.5504,3.5504,3.5504,3.5504,3.5504,3.5504,3.5145,3.4696,3.4262,3.3799,3.3469,3.3315,3.1423,3.0451,3.2065,3.0751,2.9834,3.0477,3.0537,3.0103,2.9041,2.8933,2.8008,2.5794,2.6019,2.533,2.3152,2.3646,2.3422,2.2084,2.2019,2.2164,2.245,2.1564,2.2239,2.4517,0.0,0.0,0.0,0.0,0.0,0.0,0.0,0.0,0.0,0.0,0.0,0.0,0.0,0.0,0.0,0.0,0.0,0.0,0.0,0.0,0.0,0.0,0.0,3.9796,4.1151,4.2645,4.3869,4.4461,4.4907,4.5295,4.5664,4.5872,4.5838,4.7192,4.8294,4.9035,4.9746,5.0456,5.1168,5.1185,5.1202,5.1219,5.1202,5.0845,5.0118,5.0101,4.9233,4.7655,4.7622,4.6221,4.3883,4.3831,4.2521,4.0382,3.9723,3.9035,3.8317,3.7659,3.703,3.6552,3.7165,3.6985,3.6372,3.5729,3.5504,3.5504,3.5504,3.5504,3.5504,3.5504,3.5504,3.5504,3.5504,3.5504,3.5504,3.5504,3.5504,3.5504,3.5504,3.5504,3.5504,3.5504,3.5504,3.5489,3.5474,3.4442,3.314,3.1824,3.2093,3.2512,3.2512,3.1929,0.0,3.2378,3.1345,3.0313,2.9756,2.8528,2.721,2.5854,2.6926,2.6507,2.3804,2.545,2.5398,2.2823,2.3909,2.4312,2.3839,2.39,2.3949,2.4,0.0,0.0,0.0,0.0,0.0,0.0,0.0,0.0,0.0,0.0,0.0,0.0,0.0,0.0,0.0,0.0,0.0,0.0,0.0,0.0,0.0,0.0,4.1499,4.1446,4.2861,4.462,4.6574,4.7402,4.8041,4.8706,4.9311,4.9475,4.8934,4.9763,5.0373,5.0559,5.0794,5.0997,5.1185,5.1185,5.1471,5.1995,5.1488,5.1083,5.0896,5.0355,4.9569,4.8576,4.7901,4.6854,4.5481,4.4309,4.2781,4.1055,4.0397,3.9439,3.8317,3.7659,3.703,3.6507,3.6686,3.6327,3.5744,3.5564,3.5504,3.5504,3.5504,3.5504,3.5504,3.5504,3.5504,3.5504,3.5504,3.5504,3.5504,3.5504,3.5504,3.5504,3.5504,3.5504,3.5504,3.5504,3.5504,3.5355,3.4861,3.4861,3.4681,3.3814,3.3021,3.2512,3.2512,3.1929,0.0,3.175,3.1451,3.1389,3.1861,3.1588,3.0639,2.8804,2.8985,2.7806,2.4515,2.4844,2.4627,2.3385,2.3266,2.2927,2.2324,2.3775,2.4366,0.0,0.0,0.0,0.0,0.0,0.0,0.0,0.0,0.0,0.0,0.0,0.0,0.0,0.0,0.0,0.0,0.0,0.0,0.0,0.0,0.0,0.0,4.3553,4.4288,4.4913,4.5561,4.6684,4.8612,4.9475,5.0101,5.0524,5.1234,5.1352,5.0625,5.1251,5.1674,5.1674,5.1674,5.1826,5.2164,5.2164,5.2384,5.2807,5.2384,5.186,5.1185,5.0777,5.0016,4.897,4.8015,4.7088,0.0,4.4789,4.3317,4.1782,4.1085,4.0187,0.0,0.0,0.0,0.0,0.0,3.6462,3.5878,3.5609,3.5504,3.5504,3.5504,3.5504,3.5504,3.5504,3.5504,3.5504,3.5504,3.5504,3.5504,3.5504,3.5504,3.5504,3.5504,3.5504,3.5504,3.5504,3.5504,3.5385,3.4981,3.5235,0.0,3.4981,3.3799,3.3021,3.3305,3.2273,3.1705,3.2258,3.1854,3.1598,3.1804,3.1832,3.1035,2.9049,2.9609,0.0,0.0,0.0,2.5854,2.4896,2.456,0.0,0.0,0.0,2.476,2.3831,0.0,0.0,0.0,2.5191,2.4919,0.0,0.0,0.0,0.0,0.0,0.0,0.0,0.0,0.0,0.0,0.0,0.0,0.0,0.0,0.0,0.0,4.6072,4.7581,4.9154,4.8815,4.89,5.0185,5.093,5.1369,5.1471,5.2063,5.2164,5.1522,5.208,5.2435,5.2435,0.0,0.0,0.0,0.0,5.3501,5.3501,5.3501,5.2773,5.1303,5.1303,5.0608,4.9224,4.8311,4.7354,4.6426,4.539,4.405,4.249,4.1805,4.1055,4.0337,3.9589,3.8931,3.8317,3.7659,3.706,3.6507,3.5923,0.0,0.0,3.5639,3.5609,3.5609,3.5534,3.5504,3.5504,3.5504,3.5504,3.5504,3.5504,3.5504,3.5504,3.5504,3.5504,3.5504,3.5504,3.5504,3.5504,3.5504,3.5504,3.5504,3.5504,3.4442,3.3784,3.4324,3.2871,3.2123,3.3245,3.2333,3.1436,3.1029,0.0,0.0,2.8329,2.9681,2.9277,2.6033,2.7365,2.7724,2.6527,2.6612,2.6326,2.5615,2.5701,2.5108,2.3714,2.3714,2.367,2.3625,2.4942,2.4882,0.0,0.0,0.0,0.0,0.0,0.0,0.0,0.0,0.0,0.0,0.0,0.0,0.0,0.0,0.0,4.7474,4.8301,4.9306,5.1369,5.1539,5.1555,5.1843,5.1995,5.235,5.2993,5.3179,5.3213,5.3078,5.3196,5.3264,5.3264,5.3264,0.0,5.3501,5.3501,5.3501,5.3501,5.3501,5.3027,5.2097,0.0,0.0,5.0728,4.9976,4.9092,4.8124,4.6606,4.5022,4.3464,4.2576,4.1512,4.0277,3.9065,3.8497,3.8317,3.7659,3.733,3.721,3.709,3.7045,3.6956,3.6462,3.6297,3.6193,3.5669,3.5504,0.0,3.5504,3.5504,3.5504,3.5504,3.5504,3.5504,3.5504,3.5504,3.5504,3.5504,3.5504,3.5504,3.5504,3.5504,3.5504,3.5504,3.4831,3.4174,3.3739,3.3365,3.3021,3.2736,3.2482,3.2736,3.3849,3.3472,3.2794,3.1873,3.1634,3.0298,2.739,2.6557,2.6063,2.5809,2.5818,2.5758,2.5615,2.5638,2.5234,2.441,2.441,2.4126,2.361,2.3886,2.3623,0.0,0.0,0.0,0.0,0.0,0.0,0.0,0.0,0.0,0.0,0.0,4.4169,0.0,0.0,4.7614,4.9656,5.0359,5.1183,5.2689,5.2909,5.2909,5.2909,5.2909,5.3061,5.3467,5.3501,5.3653,5.4025,5.3704,5.3822,5.4566,5.3907,5.367,5.4042,5.3687,5.3501,5.3501,5.3501,5.3095,5.23,5.23,5.1911,5.1151,4.9938,4.9144,4.8575,4.6438,4.5044,4.4217,4.2924,4.1826,4.0786,3.9783,3.8975,3.8347,3.8018,3.7689,3.7404,3.7404,3.7404,3.73,3.6686,3.6492,3.6357,3.5699,3.5504,3.5504,3.5504,3.5504,3.5504,3.5504,3.5504,3.5504,3.5504,3.5504,3.5504,3.5504,3.5504,3.5504,3.5504,3.5504,3.5504,3.5504,3.522,3.4756,3.4083,3.3709,3.338,3.3036,3.2721,3.2811,3.3562,3.3036,3.2375,3.1698,3.0751,2.9447,2.7705,2.6986,2.6437,2.6108,2.6093,2.5944,2.5615,2.5615,2.545,2.5098,2.4769,2.4425,2.4081,2.3759,2.343,0.0,0.0,0.0,0.0,0.0,0.0,0.0,0.0,4.3659,4.4083,4.55,4.6756,4.7033,4.862,5.0252,5.1237,5.2046,5.2756,5.3416,5.3501,5.3501,5.3501,5.3501,5.3501,5.3501,5.3501,5.3754,5.4329,5.3974,5.4177,5.5226,5.4296,5.3923,5.4363,5.3805,5.3501,5.3501,5.3501,5.3179,5.2536,5.2536,5.2232,5.1607,5.0093,4.9309,4.9026,4.6466,4.5227,4.4958,4.3509,4.2644,4.2082,4.124,4.0254,3.9232,3.8757,3.8257,3.7793,3.7793,3.7793,3.7704,3.706,3.6776,3.6552,3.5893,3.5699,3.5699,3.5699,3.5699,3.5729,3.5848,3.5699,3.5534,3.5669,3.5594,3.5504,3.5504,3.5504,3.5504,3.5504,3.5504,3.5504,3.5504,3.5504,3.5265,3.4608,3.4143,3.3844,3.3709,3.3215,3.2901,3.2901,3.2168,3.1361,3.0567,2.9445,2.8502,2.7839,2.766,2.736,2.6821,2.6782,2.6527,2.6004,2.5989,2.5929,2.5794,2.5247,2.4844,2.459,2.4059,2.3729,4.16,4.0789,4.1273,4.3769,4.3198,4.3289,0.0,0.0,4.6565,4.8014,4.8517,4.8686,4.8717,5.0002,5.1254,5.2063,5.2858,5.3399,5.3501,5.3501,5.3501,5.3501,5.3501,5.3501,5.3501,5.3501,5.3534,5.3619,5.4143,5.4262,5.3771,5.4211,5.4211,5.3653,5.3551,5.3501,5.3501,5.3501,5.345,5.3365,5.3365,5.3331,5.3213,5.2302,5.156,5.0787,4.8332,4.6815,4.5984,4.5212,4.4843,4.4636,4.3315,4.2695,4.2322,4.0097,3.926,3.92,3.92,3.92,3.908,3.8392,3.7778,3.7195,3.6567,3.6372,3.6372,3.6372,3.6372,3.6507,3.706,3.6357,3.5654,3.6237,3.5923,3.5504,3.5504,3.5504,3.5504,3.5504,3.5504,3.5504,3.5504,3.5504,3.5265,3.4608,3.4936,3.5055,3.4474,3.4339,3.4294,3.4294,3.314,3.1884,3.0612,2.9864,2.919,2.8532,2.7944,2.757,2.748,2.748,2.745,2.7375,2.7375,2.7091,2.6482,2.6408,2.5764,2.4605,2.453,2.4156,4.4947,4.4289,4.4317,0.0,4.6118,4.6518,4.8813,4.8899,4.8714,4.9478,5.0321,5.093,5.093,5.1809,5.2655,0.0,5.3281,5.3501,5.3501,5.3501,5.3331,5.2858,5.3213,5.3501,5.3501,5.3501,5.3687,5.411,5.4025,5.4211,5.4769,5.4262,5.4008,5.4143,5.3721,5.3501,5.3501,5.3501,5.3501,5.3501,5.3501,5.3501,5.3467,5.2672,5.1378,4.9643,4.8216,4.7054,4.6192,4.5904,4.5776,4.5664,4.4705,4.4305,4.4008,4.1628,4.0726,4.0654,4.016,3.9993,3.9813,3.8736,3.7943,3.736,3.7105,3.6776,3.6567,3.6926,3.703,3.709,3.7345,3.6746,3.6148,3.6417,3.5983,3.5504,3.5504,3.5504,3.5504,3.5504,3.5504,3.5504,3.5504,3.5504,3.54,3.5115,3.5325,3.54,3.5115,3.4726,3.4354,3.3948,3.3066,3.2138,3.1152,3.0492,2.9849,2.9205,2.8933,2.8603,2.8188,2.8173,2.8004,2.76,2.76,2.7465,2.718,2.6806,2.6303,2.5749,2.5352,2.5023,4.6738,4.6455,0.0,4.7436,4.8426,4.9268,4.9673,5.0347,5.097,5.1285,5.1843,5.23,5.23,5.279,5.3179,5.3179,5.3365,5.3501,5.3501,5.3501,5.3213,5.2401,5.2807,5.3179,5.3179,5.3365,5.3721,5.4245,5.3991,5.4177,5.5057,5.4482,5.4177,5.4279,5.3974,5.3704,5.3501,5.3501,5.3501,5.3501,5.3501,5.3501,5.3467,5.2672,5.1245,4.9343,4.8597,4.7803,4.6952,4.6952,4.6952,4.6921,4.6205,4.5928,4.5698,4.3743,4.2582,4.1902,4.107,4.0639,4.0217,3.905,3.8212,3.7689,3.7689,3.736,3.7105,3.7554,3.7539,3.7494,3.7868,3.7225,3.6567,3.6926,3.6372,3.5818,3.5998,3.5759,3.5549,3.5744,3.5624,3.5504,3.5504,3.5504,3.5504,3.5504,3.5504,3.5504,3.5504,3.507,3.4502,3.3844,3.3185,3.2512,3.1824,3.1001,3.0313,2.9864,2.9696,2.937,2.8891,2.8697,2.8368,2.7899,2.769,2.76,2.76,2.7121,2.6791,2.6572,2.6093,2.5779,4.5526,0.0,4.5858,4.7634,4.909,5.0439,5.1877,5.2824,5.3602,5.4313,5.3315,5.23,5.23,5.2317,5.2334,5.2334,5.2993,5.3501,5.3501,5.3501,5.3213,5.2401,5.2317,5.2334,0.0,5.3044,5.3518,5.3534,5.4177,5.4262,5.3602,5.4888,5.5006,5.3585,5.4194,5.4211,5.3518,5.3501,5.3501,5.3501,5.3501,5.3501,5.3467,5.2672,5.1861,5.1068,5.034,4.9613,4.894,4.894,4.894,4.8824,4.8098,4.7828,4.7703,4.6727,4.4823,4.2683,4.198,4.1158,4.0292,3.9604,3.8931,3.8362,3.8362,3.8347,3.8332,3.8347,3.7898,3.7704,3.902,3.7928,3.6791,3.8033,3.7375,3.6626,3.7225,3.6372,3.5684,3.6327,3.5938,3.5504,3.5504,3.5504,3.5504,3.5504,3.5504,3.5504,3.5504,3.5489,3.5205,3.4548,3.3858,3.32,3.2542,3.127,3.0492,3.0477,2.9909,2.9592,2.9577,2.8951,2.8592,2.8562,2.7944,2.76,2.76,2.757,2.724,2.6587,2.6572,2.6213,0.0,0.0,5.0068,5.185,5.2706,5.3213,5.3704,5.4025,5.4008,5.323,5.2184,5.1274,5.0818,5.0716,5.0885,5.1359,5.2149,5.2892,5.3433,5.3923,5.3737,5.2452,5.3196,0.0,0.0,0.0,0.0,5.3467,5.3737,5.3754,5.3518,5.3974,5.4025,5.3518,5.3737,5.3754,5.3501,5.3501,5.3501,5.3501,5.3501,5.3501,5.3467,5.2672,5.2164,5.186,5.0625,4.9949,4.9678,4.9204,4.9001,4.8984,4.8731,4.8646,4.8599,4.8286,4.7258,4.5785,4.4498,4.3845,4.3392,4.2231,4.1384,4.0852,4.0802,4.0473,4.0222,4.0661,4.0213,3.9692,4.0151,3.9031,3.7853,3.8287,3.7719,3.715,3.736,3.7075,3.6836,3.706,3.6926,3.6641,3.6222,3.6148,3.6013,3.5564,3.5504,3.5504,3.5504,3.5504,3.5415,3.519,3.4547,3.3873,3.3215,3.2347,3.163,3.1182,3.0957,3.0672,3.0223,2.9983,2.9669,2.9265,2.9052,2.8933,2.8933,2.8498,2.8143,2.7919,2.748,2.7151,0.0,5.1282,5.298,5.4485,5.4924,5.4989,5.4989,5.4583,5.3839,5.2553,5.1221,5.006,4.9302,4.8979,4.9068,4.995,5.0586,5.1494,5.3078,5.3483,5.3483,5.3179,5.3754,5.3923,0.0,0.0,0.0,5.3467,5.3737,5.3788,5.3518,5.4008,5.4042,5.3518,5.3754,5.3771,5.3501,5.3501,5.3501,5.3501,5.3501,5.3501,5.3484,5.2959,5.257,5.2232,5.1014,5.0338,5.0033,4.9306,4.9001,4.9001,4.9001,4.9001,4.9001,4.9001,4.8625,4.7866,4.6272,4.5314,4.4607,4.3456,4.2639,4.2045,4.2013,4.1709,4.1453,4.1869,4.1419,4.0866,4.1117,4.001,3.8929,3.9172,3.8456,3.7823,3.8078,3.7749,3.7479,3.7719,3.7569,3.7285,3.6881,3.6626,3.6342,3.5923,3.5654,3.5504,3.5504,3.5504,3.5504,3.5504,3.4891,3.4339,3.3888,3.3021,3.2406,3.2245,3.176,3.1429,3.1258,3.0766,3.0451,3.0315,3.0084,2.9963,2.9963,2.9766,2.9428,2.8963,2.8525,2.8183,5.2471,5.3695,5.4477,5.5567,5.5766,5.575,5.5683,5.4515,5.3196,5.2317,5.0405,4.8632,0.0,0.0,4.714,4.8344,4.8582,4.9638,5.2587,5.2436,5.2656,0.0,0.0,0.0,0.0,0.0,0.0,5.367,0.0,5.4296,5.3653,5.4921,5.5023,5.3602,5.4194,5.4211,5.3518,5.3501,5.3501,5.3501,5.3501,5.3501,5.3501,5.3501,5.3078,5.2317,5.1555,5.0811,5.0084,4.9323,4.9001,4.9001,4.9001,4.9001,4.9001,4.9001,4.8984,4.874,4.725,4.5669,4.4179,4.3507,4.28,4.2173,4.2141,4.2125,4.2125,4.2125,4.1644,4.1244,4.1885,4.0907,3.9918,4.0535,3.9542,3.8616,3.9239,3.8407,3.7704,3.8317,3.7913,3.7464,3.7464,3.6911,3.6492,3.6492,3.5923,3.5504,3.5504,3.5504,3.5504,3.5554,3.497,3.4596,3.4566,3.3381,3.2896,3.3422,3.2288,3.1883,3.252,3.1301,3.0925,3.1626,3.1027,3.0721,3.0746,3.1372,3.0977,2.969,2.9658,2.9285,5.3631,5.5145,5.6314,5.7139,5.6934,5.6241,5.5124,5.3704,5.208,5.0219,4.8402,4.6911,0.0,0.0,0.0,4.8486,4.9742,0.0,5.3804,5.4479,0.0,5.5343,0.0,5.6038,5.6224,5.5581,0.0,0.0,5.5108,5.4752,5.5141,5.4972,5.4702,5.4329,5.3974,5.3687,5.3501,5.3501,5.3501,5.3501,5.3501,5.3501,5.3501,5.3501,5.3399,5.3129,5.1792,5.1099,5.0828,4.9543,4.9001,4.9001,4.9001,4.9001,4.9001,4.9001,4.8663,4.821,4.8346,4.7759,4.682,4.6099,4.538,4.4649,4.4098,4.3931,4.3931,4.3931,4.3353,4.2741,4.2921,4.1693,4.0507,4.0644,3.9888,3.92,3.9343,3.9155,3.896,3.9125,3.8601,3.8138,3.8138,3.7225,3.6492,3.6492,3.5923,3.5504,3.5504,3.5504,3.5701,3.6244,3.6183,3.5861,3.5354,3.5,3.4208,3.2823,3.29,3.2636,3.1811,3.1964,3.2133,3.2338,3.2179,3.2337,3.2825,3.2501,3.1912,3.1063,3.0541,2.9902,5.5919,5.7137,5.7797,5.7865,5.7103,5.5817,5.394,5.2385,5.0661,4.8385,4.6971,4.5913,4.5171,4.5103,0.0,0.0,0.0,0.0,5.3415,5.4224,5.5017,0.0,5.6748,0.0,5.7712,5.7103,5.6985,0.0,5.6393,5.5598,5.5681,5.5615,5.526,5.4617,5.4194,5.3822,5.3501,5.3501,5.3501,5.3501,5.3501,5.3501,5.3501,5.3501,5.3501,5.3433,0.0,5.1505,5.11,4.9965,4.9289,4.9001,4.9001,4.9001,4.9001,4.9001,4.8748,4.846,4.8866,4.8528,4.7821,4.7428,4.6786,4.6109,4.5669,4.5331,4.5077,4.5077,4.4505,4.3873,4.3873,4.2878,4.1836,4.1836,4.1196,4.0447,4.006,4.0289,4.0413,4.0045,3.935,3.8841,3.8841,3.8003,3.7225,3.6941,3.6627,3.6309,3.6005,3.5975,3.6134,3.6554,3.6919,3.6957,3.6609,3.6279,3.5747,3.4864,3.4321,3.3987,3.3838,3.3327,3.334,3.3958,3.3654,3.3659,3.4037,3.3965,3.3429,3.2468,3.2064,3.1501,5.8298,5.9038,5.8981,5.822,5.6867,5.5055,5.264,5.0918,4.9156,4.6877,4.5971,4.5348,4.4744,4.4141,4.4339,4.6344,0.0,4.8327,5.2655,5.3359,5.454,5.7524,5.7509,5.7746,5.9032,5.8575,5.8457,5.9116,5.7881,5.6782,5.6038,5.6511,5.6122,5.4634,5.4499,5.4143,5.3518,5.3501,5.3501,5.3501,5.3501,5.3501,5.3501,5.3501,5.3501,5.3467,0.0,0.0,5.1302,5.0439,4.9712,4.9137,4.9035,4.9001,4.9001,4.9001,4.8951,4.8883,4.8968,4.8528,4.7889,4.7889,4.7411,4.6786,4.6786,4.6346,4.5855,4.5855,4.5382,4.4886,4.4784,4.4081,4.3421,4.3323,4.2614,4.1772,4.0878,4.128,4.1642,4.1013,4.0239,3.9737,3.9737,3.9199,3.8549,3.7975,3.7812,3.7561,3.697,3.6814,3.6783,3.6888,3.7528,3.795,3.795,3.7412,3.7247,3.7642,3.6054,3.5574,3.6624,3.4978,3.4605,3.5836,3.5127,3.4796,3.4885,3.5367,3.4958,3.3744,3.3716,3.3365,5.7985,5.9137,5.9742,5.8998,5.7256,5.5055,5.264,5.0109,0.0,4.6198,4.5297,4.4795,4.4754,4.506,4.6012,4.8196,4.9058,5.0782,5.4665,5.5729,5.6558,0.0,5.8863,5.9624,0.0,0.0,0.0,0.0,0.0,5.8304,5.756,5.7053,5.6122,5.4634,5.4008,5.3636,5.3501,5.3501,5.3501,5.3501,5.3501,5.3501,5.3501,5.3501,5.3501,5.3467,5.2655,0.0,5.1995,5.0659,5.0016,4.9847,4.9238,4.9001,4.9001,4.9001,4.8612,4.8189,4.8798,4.8528,4.7889,4.7889,4.7411,4.6786,4.6786,4.6701,4.6599,4.6599,4.6515,4.6278,4.5669,4.4879,4.4061,4.3438,4.2614,4.1772,4.0878,4.0826,4.108,4.1674,4.1642,4.1543,4.1543,4.099,4.0515,4.0404,3.9418,3.8633,3.8521,3.7982,3.7819,3.8453,3.8635,3.8718,3.8718,3.8603,3.8096,3.7044,3.7156,3.6878,3.6018,3.6153,3.637,3.6603,3.5869,3.5808,3.6413,3.5881,3.5207,3.4414,3.4369,3.3974,6.0128,6.0858,6.0926,5.9387,5.7357,5.4852,5.1663,0.0,0.0,4.5466,4.493,4.4803,4.4803,4.5026,4.5671,4.7056,4.7581,4.912,5.2808,5.3991,0.0,5.7103,5.8626,5.9691,0.0,0.0,0.0,0.0,0.0,5.8693,5.7932,5.7205,5.6308,5.5209,5.4465,5.389,5.3501,5.3501,5.3501,5.3501,5.3501,5.3501,5.3501,5.3501,5.3501,5.3484,5.3095,0.0,5.2249,5.1539,5.0777,5.005,4.9712,4.934,4.9001,4.9001,4.8781,4.8528,4.8883,4.8781,4.8477,4.8477,4.824,4.7936,4.7936,4.7682,4.7378,4.7378,4.7107,4.6718,4.6363,4.5694,4.4979,4.4628,4.357,4.2676,4.2722,4.2013,4.1642,4.252,4.2316,4.1997,4.1997,4.1709,4.1405,4.1068,4.0762,4.0479,4.0134,3.9795,3.9396,3.8957,3.9289,3.9516,3.9516,3.9516,3.9235,3.8563,3.845,3.8319,3.806,3.7619,3.7552,3.7945,3.7234,3.6844,3.6795,3.64,3.5834,3.5121,3.5099,3.4908,6.1446,6.1896,6.1565,5.9684,5.7476,5.47,5.0989,4.8951,0.0,4.4998,4.4797,4.4995,4.4913,4.4831,4.5054,0.0,4.6075,4.7411,5.0947,5.2367,5.3974,0.0,5.8406,0.0,0.0,0.0,0.0,0.0,0.0,0.0,5.7915,5.7205,5.6478,5.5733,5.4972,5.4245,5.3518,5.3501,5.3501,5.3501,5.3501,5.3501,5.3501,5.3501,5.3501,5.3501,5.3501,0.0,0.0,5.2198,5.1386,5.0287,4.9982,4.9509,4.9001,4.9001,4.9001,4.9001,4.9001,4.9001,4.9001,4.9001,4.9001,4.9001,4.9001,4.8612,4.8125,4.8125,4.7716,4.7225,4.7073,4.6616,4.6092,4.5788,4.4482,4.3532,4.4412,4.3495,4.273,4.3429,4.3162,4.273,4.2568,4.2552,4.2388,4.1851,4.2167,4.2282,4.173,4.1516,4.091,3.9551,3.9815,4.0096,4.0096,4.0096,4.0096,4.0096,3.9571,3.9503,4.0079,3.8988,3.8633,3.9208,3.8514,3.7855,3.7269,3.6948,3.6468,3.5836,3.5667,3.56,5.9078,6.0274,6.0614,6.0139,5.7848,5.4852,5.1646,0.0,4.6663,4.5099,4.4896,4.5032,4.5123,4.4951,4.5252,4.6634,4.7348,4.8765,5.1775,5.4059,5.575,5.6697,0.0,0.0,0.0,0.0,0.0,0.0,0.0,0.0,5.7881,5.7205,5.6478,5.5733,5.4972,5.4245,5.3518,5.3501,5.3501,5.3501,5.3501,5.3501,5.3501,5.3501,5.3501,5.3501,5.3501,0.0,0.0,5.1894,5.1202,5.098,4.9627,4.9069,4.9001,4.9001,4.9001,4.9001,4.9001,4.9001,4.9001,4.9001,4.9001,4.9001,4.9001,4.8951,4.89,4.89,4.8849,4.8646,4.7986,4.7736,4.7348,4.6024,4.4482,4.3532,4.4412,4.439,4.4233,4.4444,4.4968,4.5147,4.4473,4.4355,4.435,4.4282,4.3721,4.3276,4.3209,4.2605,4.1888,4.1092,4.0468,4.0096,4.0096,4.0096,4.0096,4.0096,4.0045,4.0028,4.0096,3.9977,3.9943,3.9994,3.9259,3.8853,3.8785,3.7455,3.6761,3.6677,3.5943,3.56,5.8248,5.9993,6.091,5.9375,5.6925,5.4209,5.1711,0.0,4.6079,4.5135,4.5103,4.522,4.522,4.5059,4.5046,4.5428,4.5257,0.0,4.9114,4.9907,5.1644,5.5647,5.7594,0.0,0.0,0.0,0.0,0.0,0.0,0.0,5.7881,5.7205,5.6478,5.5733,5.4972,5.4245,5.3518,5.3501,5.3501,5.3501,5.3501,5.3501,5.3501,5.3501,5.3501,5.3501,5.3501,0.0,0.0,5.2317,5.1606,5.1083,5.0067,4.939,4.9001,4.9001,4.9001,4.9001,4.9001,4.9001,4.9001,4.9001,4.9001,4.9001,4.9001,4.9001,4.9001,4.9001,4.9001,4.8934,4.8646,4.824,4.7517,4.6058,4.5555,4.5387,4.5291,4.5572,4.5857,4.5899,4.5805,4.5618,4.5314,4.4874,4.4615,4.4615,4.4344,4.4113,4.4113,4.3436,4.2675,4.1931,4.1204,4.0578,4.0146,4.0096,4.0096,4.0096,4.0096,4.0096,4.0096,4.0096,4.0096,4.0096,3.9808,3.9453,3.8988,3.8396,3.7675,3.6795,3.6468,3.6062,5.679,5.8637,5.9672,5.8204,5.5944,5.35,0.0,0.0,4.6062,4.5237,4.522,4.5371,4.5274,4.5113,4.4923,4.4631,4.4153,4.4747,4.7336,4.7527,4.9239,0.0,0.0,0.0,0.0,0.0,0.0,0.0,0.0,0.0,0.0,5.7205,5.6562,5.6055,5.531,5.4566,5.3822,5.3619,5.3501,5.3501,5.3501,5.3501,5.3501,5.3501,5.3501,5.3501,0.0,0.0,0.0,5.2638,5.1995,5.1437,5.0473,4.9779,4.9306,4.9086,4.9001,4.9001,4.9001,4.9001,4.9001,4.9001,4.9001,4.9001,4.9001,4.9001,4.9001,4.9001,4.9001,4.9001,4.9001,4.846,4.7635,4.6616,4.6583,4.665,4.6143,4.6599,4.7056,4.6836,4.6566,4.6295,4.6058,4.5585,4.5258,4.5258,4.5089,4.4925,4.4925,4.4231,4.347,4.2709,4.1965,4.1136,4.018,4.0096,4.0096,4.0096,4.0096,4.0096,4.0096,4.0096,4.0096,4.0096,4.0096,3.9842,3.9309,3.9106,3.8488,3.7455,3.7235,3.6823,5.4109,5.5472,5.6277,5.6696,5.5158,5.2942,0.0,4.8673,4.6817,4.5459,4.53,4.5397,4.5397,4.5167,4.4968,4.4831,4.5128,0.0,4.747,4.8793,0.0,0.0,0.0,0.0,0.0,0.0,0.0,0.0,0.0,0.0,0.0,5.7205,5.6799,5.6799,5.6089,5.5344,5.4583,5.3856,5.3501,5.3501,5.3501,5.3501,5.3501,5.3501,5.3501,0.0,0.0,0.0,0.0,5.2638,5.23,5.2147,5.0659,5.0084,4.9999,4.9272,4.9001,4.9001,4.9001,4.9001,4.9001,4.9001,4.9001,4.9001,4.9001,4.9001,4.9001,4.9001,4.9001,4.9001,4.9001,4.846,4.7889,4.7872,4.7327,4.6786,4.6786,4.7378,4.7652,4.6938,4.7394,4.7665,4.6904,4.6769,4.6769,4.6769,4.616,4.5703,4.5703,4.5026,4.4265,4.346,4.2726,4.1677,4.0231,4.0096,4.0096,4.0096,4.0096,4.0096,4.0096,4.0096,4.0096,4.0096,4.0096,4.0096,4.0096,3.9368,3.8988,3.8954,3.8227,3.7889,5.0976,5.2746,5.4022,5.369,5.2859,5.1713,5.0134,4.8058,4.6184,4.5247,4.5167,4.5274,4.5274,4.5032,4.5001,4.5473,4.5454,0.0,0.0,0.0,0.0,0.0,0.0,0.0,0.0,0.0,0.0,0.0,0.0,0.0,0.0,5.7679,5.7306,5.6816,5.5598,5.4837,5.4583,5.3873,5.3501,5.3501,5.3501,5.3501,5.3501,5.3501,0.0,0.0,0.0,0.0,0.0,5.2638,5.2012,5.1454,5.0473,4.9779,4.9323,4.9086,4.9001,4.9001,4.9001,4.9001,4.9001,4.9001,4.9001,4.9001,4.9001,4.9001,4.9001,4.9001,4.9001,4.9001,4.9001,4.8832,4.8528,4.8007,4.8122,4.8173,4.7665,4.8139,4.8595,4.8359,4.8105,4.7821,4.7597,4.7124,4.6786,4.6786,4.6599,4.6261,4.5771,4.55,4.4857,4.3527,4.3172,4.2658,4.1677,4.0688,4.0333,4.0815,4.0383,4.0096,4.0096,4.0096,4.0096,4.0096,4.0096,4.0096,4.0096,3.9876,3.9503,3.8971,3.8244,3.7905,4.8595,5.0341,5.1664,5.1196,5.0901,0.0,4.9398,4.7774,4.6321,4.5624,4.5302,4.5199,4.549,4.5367,4.5456,4.6118,4.6075,0.0,0.0,0.0,0.0,0.0,0.0,0.0,0.0,0.0,0.0,0.0,0.0,0.0,0.0,5.7881,5.756,5.6816,5.5649,5.4871,5.4583,5.3873,5.3501,5.3501,5.3501,5.3501,5.3501,5.3501,0.0,0.0,0.0,0.0,0.0,5.2959,5.2486,5.1995,5.1234,5.0642,5.0219,4.9932,4.9661,4.9424,4.9424,4.9238,4.9001,4.9001,4.9001,4.9001,4.9001,4.9001,4.9001,4.9001,4.9001,4.9001,4.9001,4.9001,4.8883,4.8443,4.868,4.8883,4.8426,4.868,4.9001,4.9001,4.8646,4.8342,4.8342,4.7936,4.7631,4.7631,4.7394,4.7056,4.6599,4.6041,4.5331,4.4356,4.3747,4.3352,4.3166,4.1805,4.1001,4.1187,4.0764,4.04,4.0113,4.0096,4.0096,4.0096,4.0096,4.0096,4.0096,4.0096,3.9859,3.9394,3.865,3.8464,0.0,4.822,4.9185,4.9185,4.93,4.924,4.8666,4.7843,0.0,4.6488,4.572,4.5354,4.6043,4.6039,4.618,4.6781,4.687,0.0,0.0,4.9222,0.0,0.0,0.0,0.0,0.0,0.0,0.0,0.0,0.0,0.0,0.0,5.7831,5.7476,5.6748,5.6021,5.5294,5.46,5.3873,5.3501,5.3501,5.3501,5.3501,5.3501,5.3501,0.0,0.0,0.0,0.0,0.0,5.3501,5.3467,5.3348,5.2587,5.2266,5.2147,5.1471,5.0777,5.0168,5.0101,4.9644,4.9069,4.9018,4.9001,4.9001,4.9001,4.9001,4.9001,4.9001,4.9001,4.9001,4.9001,4.9001,4.9001,4.9001,4.9001,4.9001,4.9001,4.9001,4.9001,4.9001,4.9001,4.9001,4.9001,4.9001,4.9001,4.9001,4.8426,4.7939,4.7889,4.6718,4.5821,4.572,4.4406,4.3842,4.4547,4.321,4.1999,4.1322,4.1238,4.0865,4.013,4.0096,4.0096,4.0096,4.0096,4.0096,4.0096,4.0096,4.0096,4.0079,3.9394,3.9453,4.5956,0.0,4.7251,4.7251,4.7681,4.8088,0.0,4.7754,4.7481,4.7061,4.6834,4.6681,4.6771,4.6661,4.6857,4.7662,0.0,0.0,4.8447,0.0,0.0,0.0,0.0,0.0,0.0,0.0,0.0,0.0,0.0,0.0,0.0,5.7357,5.6731,5.5987,5.5243,5.4769,5.4583,5.3873,5.3501,5.3501,5.3501,5.3501,5.3501,5.3501,0.0,0.0,0.0,0.0,5.3501,5.3501,5.3145,5.2553,5.2367,5.1961,5.1454,5.1268,5.1099,5.0862,5.0287,4.9982,4.9746,4.9187,4.9001,4.9001,4.9001,4.9001,4.9001,4.9001,4.9001,4.9001,4.9001,4.9001,4.9001,4.9001,4.9001,4.9001,4.9001,4.9001,4.9001,4.9001,4.9001,4.9001,4.9001,4.9001,4.9001,4.9001,4.8849,4.8545,4.7956,4.7584,4.6972,4.5821,4.5382,4.501,4.4632,4.321,4.2219,4.2049,4.1508,4.0865,4.013,4.0096,4.0096,4.0096,4.0096,4.0096,4.0096,4.0096,4.0096,4.0096,3.9926,3.9943,4.6055,4.6554,4.7027,4.67,4.7165,4.7775,4.812,4.7903,4.7636,4.782,4.7529,4.7335,4.7578,4.6952,4.6881,0.0,4.7984,0.0,0.0,0.0,0.0,0.0,0.0,0.0,0.0,0.0,0.0,0.0,0.0,0.0,0.0,5.7019,5.6308,5.5243,5.4803,5.4431,5.4093,5.3704,5.3501,5.3501,5.3501,5.3501,5.3501,5.3501,5.3501,0.0,0.0,0.0,5.3501,5.3501,5.3247,5.2858,5.2858,5.2621,5.2266,5.2266,5.2029,5.1606,5.0862,5.0152,4.9526,4.9137,4.9001,4.9001,4.9001,4.9001,4.9001,4.9001,4.9001,4.9001,4.9001,4.9001,4.9001,4.9001,4.9001,4.9001,4.9001,4.9001,4.9001,4.9001,4.9001,4.9001,4.9001,4.9001,4.9001,4.9001,4.9001,4.8866,4.8477,4.8122,4.7584,4.6773,4.6109,4.5551,4.5128,4.4012,4.3183,4.2828,4.2117,4.1373,4.0629,4.0282,4.0096,4.0096,4.0096,4.0096,4.0096,4.0096,4.0096,4.0096,4.0096,4.0096,4.6508,4.724,4.7672,4.6931,4.7196,4.7851,4.8592,4.8197,4.7889,4.8627,4.818,4.7769,4.8138,4.722,0.0,0.0,0.0,0.0,0.0,0.0,0.0,0.0,0.0,0.0,0.0,0.0,0.0,0.0,0.0,0.0,0.0,5.6697,5.6004,5.4634,5.4482,5.4126,5.3518,5.3501,5.3501,5.3501,5.3501,5.3501,5.3501,5.3501,5.3501,0.0,0.0,0.0,5.3501,5.3501,5.3501,5.3501,5.3501,5.3501,5.3501,5.3501,5.3078,5.2367,5.1505,5.0236,4.9001,4.9001,4.9001,4.9001,4.9001,4.9001,4.9001,4.9001,4.9001,4.9001,4.9001,4.9001,4.9001,4.9001,4.9001,4.9001,4.9001,4.9001,4.9001,4.9001,4.9001,4.9001,4.9001,4.9001,4.9001,4.9001,4.9001,4.9001,4.9001,4.846,4.8007,4.7906,4.6786,4.594,4.572,4.5128,4.4418,4.3639,4.2878,4.2083,4.1238,4.0476,4.0096,4.0096,4.0096,4.0096,4.0096,4.0096,4.0096,4.0096,4.0096,4.0096,4.61,4.7242,4.8419,4.7567,4.7453,4.7711,4.8466,4.8524,4.8644,4.9382,4.9404,4.8888,4.7481,4.8022,4.8634,0.0,0.0,5.2292,0.0,0.0,0.0,0.0,0.0,0.0,0.0,0.0,0.0,0.0,0.0,0.0,0.0,5.6224,5.548,5.4617,5.3991,5.3619,5.3501,5.3501,5.3501,5.3501,5.3501,5.3501,5.3501,5.3501,5.3501,0.0,0.0,5.3501,5.3501,5.3501,5.3501,5.3501,5.3501,5.3501,5.3501,5.3501,5.3416,5.3112,5.1708,5.0236,4.9001,4.9001,4.9001,4.9001,4.9001,4.9001,4.9001,4.9001,4.9001,4.9001,4.9001,4.9001,4.9001,4.9001,4.9001,4.9001,4.9001,4.9001,4.9001,4.9001,4.9001,4.9001,4.9001,4.9001,4.9001,4.9001,4.9001,4.9001,4.9001,4.89,4.8595,4.7956,4.7686,4.7073,4.5821,4.5602,4.5213,4.4451,4.3673,4.2625,4.1271,4.0476,4.0096,4.0096,4.0096,4.0096,4.0096,4.0096,4.0096,4.0096,4.0096,4.0096,4.6524,4.7411,4.8187,4.7573,4.7375,4.7301,4.7261,4.7244,4.7598,4.8838,4.9124,4.8843,4.8025,0.0,4.8865,4.9172,0.0,0.0,0.0,0.0,0.0,0.0,0.0,0.0,0.0,0.0,0.0,0.0,0.0,0.0,0.0,0.0,5.4769,5.4025,5.3687,5.3501,5.3501,5.3501,5.3501,5.3501,5.3501,5.3501,5.3501,5.3061,5.2858,5.2858,0.0,5.2858,5.2892,5.3331,5.3247,5.2892,5.3331,5.2993,5.2266,5.2266,5.2012,5.1555,5.0845,4.9898,4.9001,4.9001,4.9001,4.9001,4.9001,4.9001,4.9001,4.9001,4.9001,4.9001,4.9001,4.9001,4.9001,4.9001,4.9001,4.9001,4.9001,4.9001,4.9001,4.9001,4.9001,4.9001,4.9001,4.9001,4.9001,4.9001,4.9001,4.9001,4.9001,4.9001,4.8883,4.8545,4.8125,4.7618,4.6972,4.6177,4.5213,4.4028,4.3606,4.2733,4.1271,4.1255,4.1085,4.0696,4.1094,4.1085,4.0679,4.0679,4.0476,4.0096,4.0096,4.0096,4.68,4.7422,4.7751,4.7207,4.7414,4.762,4.6965,4.6982,4.7552,4.902,4.9203,4.8963,4.862,4.8619,0.0,5.0655,5.2082,0.0,0.0,0.0,0.0,0.0,0.0,0.0,0.0,0.0,0.0,0.0,0.0,0.0,0.0,0.0,5.4262,5.3518,5.3501,5.3501,5.3501,5.3501,5.3501,5.3501,5.3501,5.3501,5.3467,5.2672,5.23,5.2283,5.2131,5.2046,5.2097,5.2723,5.2706,5.235,5.279,5.2249,5.1185,5.1185,5.0727,5.0084,5.0084,4.961,4.9001,4.9001,4.9001,4.9001,4.9001,4.9001,4.9035,4.9204,4.9255,4.9255,4.9255,4.939,4.9475,4.9306,4.9255,4.9204,4.9035,4.9137,4.9255,4.9255,4.9407,4.9526,4.9526,4.9526,4.9526,4.9526,4.9373,4.9255,4.9255,4.912,4.9001,4.9001,4.8494,4.8007,4.7682,4.6464,4.5128,4.3775,4.3494,4.2885,4.1762,4.2083,4.2033,4.1474,4.1999,4.2016,4.1457,4.1288,4.0916,4.0367,4.018,4.0096,4.6291,4.7082,4.759,4.6326,4.7782,4.9401,4.9052,4.9657,5.0482,5.1315,5.094,5.0034,4.868,4.8971,5.0267,5.2857,5.4652,0.0,0.0,0.0,0.0,0.0,0.0,0.0,0.0,0.0,0.0,0.0,0.0,0.0,0.0,0.0,0.0,5.3518,5.3501,5.3501,5.3501,5.3501,5.3501,5.3501,5.3501,5.3501,5.3467,5.2672,5.23,5.2266,5.1589,5.1302,5.1269,5.132,5.1742,5.2249,5.1623,5.1286,5.1185,5.1185,5.0727,5.0084,5.0084,4.961,4.9001,4.9001,4.9001,4.9001,4.9001,4.9001,4.9137,4.9813,5.0016,5.0016,5.0016,5.0541,5.0879,5.0168,5.0016,4.9813,4.9154,4.9543,5.0016,5.0016,5.0574,5.1033,5.1033,5.1033,5.1033,5.1033,5.0456,5.0016,5.0016,4.9424,4.9001,4.9001,4.8951,4.8376,4.6989,4.616,4.5365,4.4564,4.3809,4.3341,4.324,4.2642,4.2269,4.2219,4.2269,4.2269,4.2219,4.1525,4.117,4.1102,4.0434,4.0096,4.6123,4.703,4.7659,4.6647,4.8,4.9411,4.8848,4.9248,5.0087,5.1438,5.141,5.1125,5.104,0.0,5.097,5.4313,0.0,0.0,0.0,0.0,0.0,0.0,0.0,0.0,0.0,0.0,0.0,0.0,0.0,0.0,0.0,0.0,0.0,5.3518,5.3501,5.3264,5.2756,5.2756,5.252,5.2097,5.3044,5.3501,5.3467,5.2198,5.164,5.1589,5.0845,5.0524,5.0557,5.1014,5.1099,5.0862,5.0118,5.0118,5.0456,4.9999,4.9661,4.9424,4.9424,4.9238,4.9001,4.9001,4.9001,4.9001,4.9001,4.9001,4.9154,4.9881,5.0422,5.0794,5.0794,5.0997,5.1117,5.0862,5.0794,5.071,5.0439,5.0591,5.0794,5.0794,5.1014,5.1185,5.1185,5.1185,5.1048,5.0591,5.027,4.9915,4.9475,4.9171,4.9001,4.9001,4.9001,4.8595,4.7581,4.7242,4.6566,4.5348,4.457,4.3927,4.3409,4.3606,4.3487,4.2997,4.347,4.347,4.298,4.2709,4.2117,4.1204,4.1373,4.0993,4.5295,4.6438,4.7284,4.6498,4.8122,4.9821,4.9488,4.9865,5.0793,5.2592,5.2372,5.2068,5.2752,0.0,0.0,0.0,0.0,0.0,0.0,0.0,0.0,0.0,0.0,0.0,0.0,0.0,0.0,0.0,0.0,0.0,0.0,0.0,0.0,0.0,5.3264,5.2858,5.2317,5.208,5.1708,5.1202,5.2283,5.2773,5.2739,5.1454,5.0862,5.0811,5.0067,4.9746,4.9779,5.0304,5.0219,4.9729,4.9458,4.9509,4.9678,4.9187,4.9001,4.9001,4.9001,4.9001,4.9001,4.9001,4.9001,4.9001,4.9001,4.9001,4.9204,5.0168,5.0811,5.1319,5.1809,5.1944,5.1877,5.1623,5.1555,5.1488,5.1236,5.1403,5.1555,5.1555,5.1758,5.1944,5.1944,5.1725,5.1386,5.0862,5.0388,4.9915,4.9407,4.9137,4.9001,4.9001,4.9001,4.8714,4.7939,4.7889,4.7378,4.6126,4.5348,4.4587,4.3809,4.4327,4.4333,4.3792,4.4316,4.4344,4.3792,4.3511,4.2868,4.1914,4.2168,4.1745,4.3757,4.5111,4.6399,4.5622,4.8122,5.0935,5.1586,5.2164,5.3209,5.526,5.4076,5.2802,5.3399,5.182,0.0,0.0,0.0,0.0,0.0,0.0,0.0,0.0,0.0,0.0,0.0,0.0,0.0,0.0,0.0,0.0,0.0,0.0,0.0,0.0,5.2723,5.23,5.2283,5.1555,5.12,5.1168,5.1168,5.12,5.1183,5.0439,5.0084,5.005,4.9323,4.9001,4.9001,4.9001,4.9001,4.9069,4.9796,4.9644,4.9001,4.9001,4.9001,4.9001,4.9001,4.9001,4.9001,4.9001,4.9001,4.9001,4.9001,4.9001,4.9323,5.0794,5.1185,5.154,5.3095,5.3501,5.3298,5.2503,5.2317,5.2114,5.1403,5.1809,5.2317,5.2317,5.2959,5.3501,5.3501,5.2841,5.23,5.2283,5.1048,5.0101,5.0084,4.9458,4.9001,4.9001,4.9001,4.8714,4.7956,4.7906,4.7614,4.6853,4.6126,4.5382,4.4649,4.4615,4.4615,4.4615,4.4615,4.4615,4.4615,4.3809,4.3392,4.3375,4.2658,4.2303,4.5288,4.5535,4.5834,4.6776,4.79,4.9386,5.1777,5.2883,5.382,5.5396,5.4873,5.416,5.4262,5.3331,0.0,0.0,0.0,0.0,0.0,0.0,0.0,0.0,0.0,0.0,0.0,0.0,0.0,0.0,0.0,0.0,0.0,0.0,0.0,0.0,5.2418,5.1809,5.076,5.0541,5.0168,4.9661,4.9661,5.0219,5.1183,5.0439,5.0084,5.005,4.9323,4.9001,4.9001,4.9001,4.9001,4.9018,4.9238,4.9187,4.9001,4.9001,4.9001,4.9001,4.9001,4.9001,4.9001,4.9001,4.9001,4.9001,4.9001,4.9001,4.9204,5.0152,5.0811,5.1437,5.2401,5.3078,5.345,5.3213,5.3145,5.3078,5.2875,5.2993,5.3145,5.3145,5.3348,5.3501,5.3501,5.2841,5.2131,5.1606,5.1166,5.0693,5.0152,4.9458,4.9001,4.9001,4.9001,4.8917,4.8697,4.868,4.8376,4.7631,4.7378,4.6701,4.5432,4.4874,4.4615,4.4615,4.4615,4.4615,4.4615,4.435,4.3944,4.3392,4.3758,4.3345,4.3868,4.456,4.539,4.6251,4.7907,4.9958,5.2397,5.4228,5.5602,5.6393,5.5601,5.4788,5.5024,5.3687,0.0,0.0,0.0,0.0,0.0,0.0,0.0,0.0,0.0,0.0,0.0,0.0,0.0,0.0,0.0,0.0,0.0,0.0,0.0,0.0,5.1572,5.0997,5.0101,4.9796,4.9441,4.9001,4.9001,4.9475,5.0321,4.9864,4.9661,4.9644,4.9187,4.9001,4.9001,4.9001,4.9001,4.9001,4.9001,4.9001,4.9001,4.9001,4.9001,4.9001,4.9001,4.9001,4.9001,4.9001,4.9001,4.9001,4.9001,4.9001,4.9154,4.9881,5.0422,5.093,5.1674,5.2452,5.3112,5.3433,5.3501,5.3501,5.3501,5.3501,5.3501,5.3501,5.3501,5.3501,5.3501,5.2841,5.2147,5.1708,5.115,5.0608,5.0152,4.9458,4.9001,4.9001,4.9001,4.9001,4.9001,4.9001,4.8815,4.8376,4.8041,4.7483,4.6616,4.5585,4.5026,4.5026,4.475,4.4615,4.4615,4.4615,4.4333,4.3893,4.435,4.4107,4.1164,4.298,4.4957,4.493,4.834,5.2004,5.3314,5.5733,5.7679,5.7594,0.0,5.4955,5.5513,5.3382,0.0,0.0,0.0,0.0,0.0,0.0,0.0,0.0,0.0,0.0,0.0,0.0,0.0,0.0,0.0,0.0,0.0,0.0,0.0,5.1133,5.0439,5.005,4.9999,4.9323,4.9001,0.0,4.9001,4.9001,4.9001,4.9001,4.9001,4.9001,4.9001,4.9001,4.9001,4.9001,4.9001,4.9001,4.9001,4.9001,4.9001,4.9001,4.9001,4.9001,4.9001,4.9001,4.9001,4.9001,4.9001,4.9001,4.9001,4.9001,4.9137,4.9796,5.0033,5.0253,5.0947,5.1708,5.2486,5.3213,5.345,5.3501,5.3501,5.3501,5.3501,5.3501,5.3501,5.3484,5.3399,5.2739,5.2198,5.2198,5.093,5.0033,5.0168,4.9509,4.9001,4.9001,4.9001,4.9001,4.9001,4.9001,4.9001,4.9001,4.8392,4.799,4.799,4.6532,4.5703,4.5703,4.4976,4.4615,4.4615,4.4615,4.4615,4.4615,4.4615,4.4615,4.4331,4.3992,4.3768,4.6651,5.0212,5.328,5.416,5.5294,5.6021,5.5412,5.5852,5.6021,5.5023,0.0,0.0,0.0,0.0,0.0,0.0,0.0,0.0,0.0,0.0,0.0,0.0,0.0,0.0,0.0,0.0,0.0,0.0,0.0,0.0,5.0355,5.0168,4.9813,4.9238,4.9086,4.9001,0.0,4.9001,4.9001,4.9001,4.9001,4.9001,4.9001,4.9001,4.9001,4.9001,4.9001,4.9001,4.9001,4.9001,4.9001,4.9001,4.9001,4.9001,4.9001,4.9001,4.9001,4.9001,4.9001,4.9001,4.9001,4.9001,4.9001,4.9035,4.9187,4.9644,5.0135,5.0287,5.1302,5.235,5.252,5.3044,5.3501,5.3501,5.3501,5.3501,5.3501,5.3501,5.3298,5.2672,5.1944,5.1454,5.1454,5.0185,4.9661,5.0828,4.9813,4.9001,4.9001,4.9001,4.9001,4.9001,4.9001,4.9001,4.9001,4.8849,4.8765,4.8765,4.6802,4.5703,4.5703,4.4976,4.4615,4.4615,4.4615,4.4615,4.4615,4.4615,4.4615,4.3166,4.3373,4.4243,4.8099,5.1028,5.3129,5.389,5.4634,5.4955,5.4228,5.4972,5.5513,0.0,0.0,0.0,0.0,0.0,0.0,0.0,0.0,0.0,0.0,0.0,0.0,0.0,0.0,0.0,0.0,0.0,0.0,0.0,5.049,5.0168,4.9086,4.9052,4.8697,4.7953,4.7953,4.7953,4.7953,4.7953,4.7953,4.797,4.868,4.9001,4.8984,4.8646,4.8477,4.8477,4.8477,4.8477,4.8528,4.8866,4.9001,4.9001,4.9001,4.9001,4.9001,4.9001,4.9001,4.9001,4.9001,4.9001,4.9001,4.9001,4.9001,4.9001,4.9001,4.9272,4.956,4.956,5.0676,5.1775,5.1775,5.2672,5.3501,5.3501,5.3501,5.3501,5.3501,5.3501,5.3365,5.2959,5.257,5.2181,5.1792,5.0777,5.0219,5.0625,4.9695,4.9001,4.9001,4.9001,4.9001,4.9001,4.9001,4.9001,4.9001,4.9001,4.9001,4.9001,4.7564,4.6769,4.6769,4.5686,4.5128,4.5111,4.4784,4.4615,4.4615,4.4615,4.4615,4.1023,4.2677,4.5326,4.8836,5.0828,5.2164,5.3078,5.3754,5.4059,5.3602,5.4093,0.0,0.0,0.0,0.0,0.0,0.0,0.0,0.0,0.0,0.0,0.0,0.0,0.0,0.0,0.0,0.0,0.0,0.0,0.0,4.8849,4.9272,4.8968,4.7767,4.7733,4.7428,4.6802,4.6786,4.6786,4.6786,4.6786,4.6786,4.6836,4.8054,4.8629,4.8595,4.7986,4.7733,4.7703,4.7838,4.7804,4.78,4.8528,4.8731,4.8646,4.8765,4.8815,4.8832,4.8968,4.9001,4.9001,4.9001,4.9001,4.9001,4.9001,4.9001,4.9001,4.9001,4.9001,4.9001,4.9001,5.0016,5.1048,5.1183,5.2181,5.3179,5.345,5.3501,5.3501,5.3501,5.3399,5.3298,5.3298,5.3196,5.2926,5.2384,5.1572,5.0845,5.0338,4.9526,4.9001,4.9001,4.9001,4.9001,4.9001,4.9001,4.9001,4.9001,4.9001,4.9001,4.9001,4.8426,4.8075,4.8075,4.665,4.5889,4.5889,4.5263,4.4987,4.4987,4.4852,4.4801,4.1822,4.3924,4.6068,4.7763,4.9306,5.076,5.2147,0.0,5.2773,0.0,5.4093,0.0,0.0,0.0,0.0,0.0,0.0,0.0,0.0,0.0,0.0,0.0,0.0,0.0,0.0,0.0,0.0,0.0,0.0,0.0,4.8041,4.753,4.7141,4.6955,4.6938,4.6887,4.6786,4.6786,4.6786,4.6786,4.6786,4.6786,4.6802,4.6989,4.709,4.709,4.6989,4.6938,4.7005,4.7648,4.753,4.7022,4.7767,4.7665,4.7158,4.7817,4.8041,4.8125,4.8781,4.9001,4.9001,4.9001,4.9001,4.9001,4.9001,4.9001,4.9001,4.9001,4.9001,4.9001,4.9001,4.961,5.0405,5.1065,5.1369,5.1877,5.3213,5.3501,5.3501,5.3501,5.2942,5.2469,5.2469,5.1944,5.1708,5.2232,5.1133,5.0439,5.0997,4.9864,4.9001,4.9001,4.9001,4.9001,4.9001,4.9001,4.9001,4.9001,4.9001,4.9001,4.9001,4.8917,4.8849,4.8849,4.7394,4.665,4.665,4.6549,4.6498,4.6481,4.5855,4.5551,4.1736,4.3031,4.4432,4.6223,4.7784,4.9255,5.0727,5.1386,5.1792,5.2147,0.0,0.0,0.0,0.0,0.0,0.0,0.0,0.0,0.0,0.0,0.0,0.0,0.0,0.0,0.0,0.0,0.0,0.0,0.0,4.7703,4.731,4.6972,4.6599,4.6194,4.5771,4.5579,4.5579,4.4705,4.4485,4.4908,4.4908,4.5128,4.5579,4.5579,4.6007,4.6769,4.6363,4.6177,4.621,4.6549,4.6481,4.6261,4.7005,4.709,4.6836,4.7158,4.7564,4.7939,4.8291,4.8663,4.9001,4.9001,4.9001,4.9001,4.9001,4.9001,4.9001,4.9001,4.9001,4.9001,4.9001,4.9543,5.0168,5.0507,5.1217,5.2012,5.2689,5.2841,5.2959,5.3416,5.3213,5.2976,5.2976,5.2706,5.2452,5.2317,5.1742,5.1302,5.1217,5.061,5.0084,4.9661,4.961,4.961,4.961,4.9238,4.9187,4.9593,4.9221,4.9001,4.9001,4.9001,4.9001,4.9001,4.797,4.7428,4.7428,4.7005,4.6786,4.6786,4.6464,4.6092,4.1384,4.2115,4.3002,4.4501,4.6167,4.7772,0.0,0.0,5.071,0.0,0.0,0.0,0.0,0.0,0.0,0.0,0.0,0.0,0.0,0.0,0.0,0.0,0.0,0.0,0.0,0.0,0.0,0.0,0.0,4.731,4.6549,4.6329,4.5889,4.5145,4.457,4.4225,4.4022,4.2861,4.2574,4.3132,4.3291,4.3724,4.4282,4.4513,4.5207,4.6194,4.5652,4.5415,4.5432,4.5618,4.5602,4.5483,4.6227,4.6397,4.6244,4.6447,4.6989,4.7665,4.7821,4.8392,4.9001,4.9001,4.9001,4.9001,4.9001,4.9001,4.9001,4.9001,4.9001,4.9001,4.9001,4.9407,4.9898,5.0287,5.1082,5.1894,5.2486,5.2604,5.279,5.3382,5.3501,5.3501,5.3501,5.3501,5.3298,5.2706,5.2435,5.2097,5.1555,5.1336,5.0997,5.0439,5.0371,5.0371,5.0371,4.9881,4.9712,5.0067,4.9763,4.939,4.9018,4.9187,4.9187,4.9001,4.8477,4.8189,4.8189,4.7631,4.7361,4.7344,4.7175,4.6684,4.0915,4.2047,4.3004,4.2729,4.445,4.6334,0.0,0.0,0.0,0.0,0.0,0.0,0.0,0.0,0.0,0.0,0.0,0.0,0.0,0.0,0.0,0.0,0.0,0.0,0.0,0.0,0.0,0.0,0.0,4.6532,4.5805,4.5077,4.4333,4.3527,4.3477,4.3132,4.2422,4.2337,4.2303,4.2354,4.3081,4.3409,4.3504,4.4248,4.4649,4.4716,4.4682,4.4666,4.4716,4.5415,4.528,4.4733,4.5466,4.5331,4.4801,4.55,4.6227,4.6955,4.7682,4.8392,4.9001,4.9001,4.9001,4.9001,4.9001,4.9001,4.9001,4.9001,4.9001,4.9001,4.9001,4.9035,4.9407,5.0828,5.0676,5.0811,5.2976,5.345,5.345,5.3501,5.3501,5.3501,5.3501,5.3501,5.3501,5.345,5.279,5.2283,5.2249,5.164,5.12,5.1134,5.115,5.115,5.115,5.1116,5.0811,5.0135,5.0727,5.0473,4.9069,4.9661,4.9712,4.9018,4.8968,4.8951,4.8951,4.89,4.8883,4.8866,4.8189,4.7462,3.9359,4.0053,4.0875,4.1243,4.2586,4.398,4.4701,4.5546,4.638,0.0,0.0,0.0,0.0,0.0,0.0,0.0,0.0,0.0,0.0,0.0,0.0,0.0,0.0,0.0,0.0,0.0,0.0,0.0,0.0,0.0,4.501,4.4248,4.3707,4.3392,4.2462,4.1627,4.0908,4.1356,4.1593,4.1593,4.1863,4.2462,4.3392,4.3707,4.4113,4.4615,4.4615,4.4615,4.4632,4.4902,4.4852,4.4632,4.4874,4.4852,4.4632,4.4919,4.5449,4.621,4.6938,4.7682,4.8392,4.8849,4.9001,4.9001,4.9001,4.9001,4.9001,4.9001,4.9001,4.9001,4.9001,4.9001,4.9373,5.0862,5.1369,5.1877,5.3213,5.3501,5.3501,5.3501,5.3501,5.3501,5.3501,5.3501,5.3501,5.3501,5.3264,5.3078,5.3078,5.2841,5.2486,5.1961,5.1911,5.1911,5.1911,5.1488,5.1302,5.1505,5.0862,5.0253,4.9729,4.9949,4.9746,4.9018,4.9458,4.9475,4.9001,4.9001,4.9001,4.9001,4.8731,4.8223,3.8573,3.8992,3.9818,4.0634,4.1624,4.2535,4.3014,0.0,0.0,0.0,0.0,0.0,0.0,0.0,0.0,0.0,0.0,0.0,0.0,0.0,0.0,0.0,0.0,0.0,0.0,0.0,0.0,0.0,0.0,0.0,4.4248,4.3707,4.3156,4.2692,4.1474,4.0595,4.0096,4.0578,4.0832,4.0832,4.1085,4.1711,4.2692,4.3156,4.3572,4.387,4.4378,4.4615,4.4615,4.4615,4.4615,4.4615,4.4615,4.4615,4.4615,4.4615,4.5213,4.6143,4.6616,4.7445,4.8359,4.8849,4.9001,4.9001,4.9001,4.9001,4.9001,4.9001,4.9001,4.9001,4.9001,4.9187,4.9678,5.093,5.1775,5.252,5.3331,5.3501,5.3501,5.3501,5.3501,5.3501,5.3501,5.3501,5.3501,5.3501,5.3501,5.3501,5.3501,5.3501,5.3298,5.2756,5.2706,5.2706,5.2706,5.2266,5.208,5.2283,5.1623,5.0997,5.049,5.071,5.049,4.9763,4.9965,4.9847,4.9373,4.912,4.9001,4.9001,4.9001,4.8612,0.0,0.0,0.0,0.0,0.0,0.0,4.1808,0.0,0.0,0.0,0.0,0.0,0.0,0.0,0.0,0.0,0.0,0.0,0.0,0.0,0.0,0.0,0.0,0.0,0.0,0.0,0.0,0.0,0.0,4.4976,4.3443,4.3341,4.2665,4.1221,4.046,4.0096,4.0096,4.0096,4.0096,4.0113,4.0832,4.1187,4.1255,4.2665,4.298,4.2405,4.3893,4.4581,4.4615,4.4615,4.4615,4.4615,4.4615,4.4615,4.4615,4.4615,4.5529,4.6752,4.6786,4.775,4.8968,4.9001,4.9001,4.9001,4.9001,4.9001,4.9001,4.9001,4.9001,4.9018,4.9035,4.956,5.0287,5.1065,5.1792,5.252,5.3331,5.3501,5.3501,5.3501,5.3501,5.3501,5.3501,5.3501,5.3501,5.3501,5.3501,5.3501,5.3501,5.3501,5.3501,5.3501,5.3501,5.3501,5.3501,5.3501,5.3179,5.2384,5.3061,5.2807,5.1269,5.1928,5.1961,5.1202,5.049,5.0101,5.0084,4.9357,4.9001,4.9001,4.9001,4.8629,3.7664,0.0,0.0,0.0,0.0,0.0,0.0,0.0,0.0,0.0,0.0,0.0,0.0,0.0,0.0,0.0,0.0,0.0,0.0,0.0,0.0,0.0,0.0,0.0,0.0,0.0,0.0,0.0,4.3741,4.3639,4.2658,4.21,4.1373,4.0434,4.0214,4.0096,4.0096,4.0096,4.0096,4.0096,4.0316,4.0679,4.1221,4.1627,4.2286,4.3132,4.3555,4.4062,4.4615,4.4615,4.4615,4.4615,4.4615,4.4615,4.4615,4.4615,4.5196,4.6075,4.6599,4.7428,4.8308,4.8832,4.9001,4.9001,4.9001,4.9001,4.9001,4.9001,4.9001,4.912,4.9661,4.9949,5.0405,5.1691,5.2147,5.252,5.3331,5.3501,5.3501,5.3501,5.3501,5.3501,5.3501,5.3501,5.3501,5.3501,5.3501,5.3501,5.3501,5.3501,5.3501,5.3501,5.3501,5.3501,5.3501,5.3501,5.3416,5.3179,5.2841,5.2452,5.2012,5.2198,5.1961,5.1202,5.1014,5.0642,5.0084,4.9357,4.9001,4.9001,4.9001,4.89,0.0,0.0,0.0,0.0,0.0,0.0,3.9185,3.9129,0.0,0.0,0.0,0.0,0.0,0.0,0.0,0.0,0.0,0.0,0.0,0.0,0.0,0.0,0.0,0.0,0.0,0.0,0.0,4.2354,4.2692,4.2625,4.188,4.1136,4.0527,4.0113,4.0096,4.0096,4.0096,4.0096,4.0096,4.0096,4.0096,4.0333,4.0747,4.1068,4.1677,4.2513,4.3122,4.3673,4.413,4.4479,4.4615,4.4615,4.4615,4.4615,4.4615,4.4615,4.5246,4.621,4.665,4.7479,4.8443,4.8866,4.9001,4.9001,4.9001,4.9001,4.9001,4.9001,4.9221,4.956,4.9982,5.0321,5.0845,5.2029,5.23,5.252,5.3331,5.3501,5.3501,5.3501,5.3501,5.3501,5.3501,5.3501,5.3501,5.3501,5.3501,5.3501,5.3501,5.3501,5.3501,5.3501,5.3501,5.3501,5.3501,5.3501,5.3501,5.3501,5.3061,5.2807,5.2807,5.2807,5.2604,5.2181,5.1843,5.1302,5.0557,4.9509,4.9001,4.9001,4.9001,4.9001,0.0,0.0,0.0,0.0,0.0,0.0,3.838,3.8458,3.81,0.0,0.0,0.0,0.0,0.0,0.0,0.0,0.0,0.0,0.0,0.0,0.0,0.0,0.0,0.0,0.0,4.2168,4.2134,4.2049,4.2049,4.1762,4.1119,4.0468,4.0096,4.0096,4.0096,4.0096,4.0096,4.0096,4.0096,4.0096,4.0096,4.0096,4.013,4.0781,4.117,4.1407,4.2699,4.3375,4.3606,4.4327,4.4615,4.4615,4.4615,4.4615,4.4615,4.4615,4.5546,4.6786,4.6786,4.7767,4.9001,4.9001,4.9001,4.9001,4.9001,4.9001,4.9001,4.9001,4.9526,5.0101,5.0185,5.071,5.142,5.2249,5.2367,5.252,5.3331,5.3501,5.3501,5.3501,5.3501,5.3501,5.3501,5.3501,5.3501,5.3501,5.3501,5.3501,5.3501,5.3501,5.3501,5.3501,5.3501,5.3501,5.3501,5.3501,5.3501,5.3501,5.3501,5.3501,5.3501,5.3501,5.3501,5.3501,5.2706,5.1944,5.1185,4.9881,4.9238,4.9238,4.9238,4.9238,0.0,0.0,0.0,0.0,0.0,0.0,3.7492,3.7922,3.8208,0.0,0.0,0.0,0.0,0.0,0.0,0.0,0.0,0.0,0.0,0.0,0.0,0.0,0.0,0.0,0.0,4.1407,4.117,4.057,4.0536,4.0468,4.0333,4.018,4.0096,4.0096,4.0096,4.0096,4.0096,4.0096,4.0096,4.0096,4.0096,4.0096,4.0096,4.0248,4.095,4.21,4.2388,4.3217,4.4395,4.4547,4.4615,4.4615,4.4615,4.4615,4.4615,4.4615,4.5546,4.6786,4.6786,4.7767,4.9001,4.9001,4.9001,4.9001,4.9001,4.9001,4.9001,4.9001,4.9526,5.0236,5.0845,5.1099,5.154,5.2942,5.2773,5.252,5.3331,5.3501,5.3501,5.3501,5.3501,5.3501,5.3501,5.3501,5.3501,5.3501,5.3501,5.3501,5.3501,5.3501,5.3501,5.3501,5.3501,5.3501,5.3501,5.3501,5.3501,5.3501,5.3501,5.3501,5.3501,5.3501,5.3501,5.3501,5.2706,5.1944,5.1185,5.0898,5.0762,5.0762,5.0762,5.0762,0.0,0.0,0.0,3.7725,0.0,0.0,0.0,3.6905,3.6837,0.0,0.0,0.0,0.0,0.0,0.0,0.0,0.0,0.0,0.0,0.0,0.0,0.0,0.0,0.0,0.0,4.0646,4.0519,4.013,4.0096,4.0096,4.0096,4.0096,4.0096,4.0096,4.0096,4.0096,4.0096,4.0096,4.0096,4.0096,4.0096,4.0096,4.0113,4.0485,4.1238,4.2303,4.2692,4.3504,4.4615,4.4615,4.4615,4.4615,4.4615,4.4615,4.4615,4.4615,4.5546,4.6786,4.6786,4.7767,4.9001,4.9001,4.9001,4.9001,4.9001,4.9001,4.9001,4.9001,4.9796,5.0727,5.1083,5.1775,5.2553,5.3331,5.3196,5.301,5.3416,5.3501,5.3501,5.3501,5.3501,5.3501,5.3501,5.3501,5.3501,5.3501,5.3501,5.3501,5.3501,5.3501,5.3634,5.4027,5.4042,5.4042,5.4042,5.4042,5.3881,5.3534,5.3501,5.3668,5.4009,5.4042,5.4042,5.4042,5.3648,5.3096,5.2367,5.2367,5.1961,5.1185,5.1185,5.1185,0.0,0.0,0.0,0.0,0.0,3.685,0.0,0.0,0.0,0.0,0.0,0.0,0.0,0.0,0.0,0.0,0.0,0.0,0.0,0.0,0.0,0.0,0.0,0.0,0.0,4.0087,4.0087,4.0096,4.0087,4.007,4.0096,4.0096,4.0096,4.0096,4.0096,4.0096,4.0096,4.0096,4.0096,4.0096,4.0096,4.0096,4.013,4.0865,4.1593,4.2337,4.3098,4.3859,4.4615,4.4615,4.4615,4.4615,4.4615,4.4615,4.4632,4.4767,4.5652,4.6802,4.6955,4.7885,4.9001,4.9001,4.9001,4.9001,4.9001,4.9001,4.9001,4.9001,5.0067,5.1185,5.1185,5.235,5.3501,5.3501,5.3501,5.3501,5.3501,5.3501,5.3501,5.3501,5.3501,5.3501,5.3501,5.3501,5.3501,5.3501,5.3501,5.3501,5.3501,5.3601,5.3946,5.4544,5.4726,5.4818,5.4818,5.4665,5.4359,5.375,5.3717,5.3962,5.4575,5.4726,5.4818,5.4818,5.4818,5.4513,5.3913,5.3913,5.3137,5.1657,5.1657,5.1657,0.0,0.0,0.0,0.0,3.864,0.0,0.0,0.0,0.0,0.0,0.0,0.0,0.0,0.0,0.0,0.0,0.0,0.0,0.0,0.0,0.0,0.0,0.0,0.0,0.0,0.0,3.9961,4.007,3.9986,3.9961,4.0096,4.0096,4.0096,4.0096,4.0096,4.0096,4.0096,4.0096,4.0096,4.0096,4.0096,4.0096,4.013,4.0865,4.1593,4.2337,4.3098,4.3859,4.4615,4.4615,4.4615,4.4615,4.4615,4.4615,4.4682,4.5331,4.6092,4.6887,4.7564,4.8325,4.9001,4.9001,4.9001,4.9001,4.9001,4.9001,4.9001,4.9001,5.0067,5.1185,5.1185,5.235,5.3501,5.3501,5.3501,5.3501,5.3501,5.3501,5.3501,5.3501,5.3501,5.3501,5.3501,5.3501,5.3501,5.3501,5.3501,5.3501,5.3501,5.4074,5.4513,5.4589,5.5173,5.5581,5.5581,5.4982,5.4558,5.4482,5.4482,5.4513,5.4589,5.5232,5.5581,5.5581,5.5581,5.5535,5.5437,5.5437,5.4687,5.3247,5.3247,5.3247,0.0,0.0,0.0,0.0,0.0,0.0,3.7959,0.0,3.676,0.0,0.0,0.0,0.0,0.0,0.0,0.0,0.0,0.0,0.0,0.0,0.0,0.0,0.0,0.0,0.0,0.0,0.0,0.0,4.0062,4.0037,4.0113,4.0096,4.0096,4.0096,4.0096,4.0096,4.0096,4.0096,4.0096,4.0096,4.0096,4.0333,4.0747,4.1491,4.2236,4.298,4.3758,4.4282,4.4615,4.4615,4.4615,4.4615,4.4615,4.4615,4.4649,4.4942,4.5788,4.6836,4.7158,4.802,4.9001,4.9001,4.9001,4.9001,4.9001,4.9001,4.9086,4.9509,5.0405,5.1319,5.1742,5.2672,5.3501,5.3501,5.3501,5.3501,5.3501,5.3501,5.3501,5.3501,5.3501,5.3501,5.3501,5.3501,5.3501,5.3501,5.3501,5.3501,5.3501,5.4121,5.4757,5.5173,5.5938,5.6412,5.6412,5.6122,5.5741,5.5262,5.5685,5.5928,5.5928,5.6632,5.6832,5.6394,5.6412,5.6159,5.5706,5.5706,5.5379,5.4774,5.4328,5.3913,4.3312,0.0,0.0,0.0,0.0,0.0,0.0,0.0,0.0,0.0,0.0,0.0,0.0,0.0,0.0,0.0,0.0,0.0,0.0,0.0,0.0,0.0,0.0,0.0,0.0,0.0,0.0,3.9775,3.9944,4.0062,4.0096,4.0096,4.0096,4.0096,4.0096,4.0096,4.0096,4.0096,4.0096,4.0096,4.0096,4.0476,4.1238,4.1965,4.2709,4.3426,4.4248,4.4615,4.4615,4.4615,4.4615,4.4615,4.4615,4.4615,4.4632,4.4835,4.5703,4.6819,4.7022,4.7936,4.9001,4.9001,4.9001,4.9001,4.9001,4.9001,4.912,4.9644,5.049,5.1303,5.186,5.2756,5.3501,5.3501,5.3501,5.3501,5.3501,5.3501,5.3501,5.3501,5.3501,5.3501,5.3501,5.3501,5.3501,5.3501,5.3501,5.3501,5.3501,5.4328,5.5102,5.5649,5.6598,5.7209,5.7209,5.7033,5.6642,5.6077,5.6589,5.6989,5.7184,5.7726,5.775,5.7209,5.7209,5.6902,5.6331,5.6331,5.6223,5.6004,5.5232,5.462,0.0,0.0,0.0,4.1864,0.0,0.0,0.0,0.0,3.8402,0.0,0.0,0.0,0.0,0.0,0.0,0.0,0.0,0.0,0.0,0.0,0.0,0.0,0.0,0.0,0.0,0.0,0.0,3.8899,3.9505,3.9961,4.0096,4.0096,4.0096,4.0096,4.0096,4.0096,4.0096,4.0096,4.0096,4.0096,4.0096,4.0476,4.1238,4.1965,4.2709,4.3426,4.4248,4.4615,4.4615,4.4615,4.4615,4.4615,4.4615,4.4615,4.4699,4.5399,4.6143,4.6887,4.7631,4.8376,4.9001,4.9001,4.9001,4.9001,4.9001,4.9001,4.9001,4.9035,5.0084,5.1217,5.1219,5.2367,5.3501,5.3501,5.3501,5.3501,5.3501,5.3501,5.3501,5.3501,5.3501,5.3501,5.3501,5.3501,5.3501,5.3501,5.3501,5.3501,5.3501,5.4774,5.5678,5.5706,5.7054,5.7955,5.7955,5.7327,5.6887,5.6843,5.6887,5.7209,5.795,5.7997,5.7997,5.7973,5.7955,5.795,5.7932,5.7932,5.7565,5.6843,5.6049,5.5649,0.0,0.0,4.3281,4.3577,0.0,0.0,0.0,0.0,0.0,0.0,0.0,0.0,0.0,0.0,0.0,0.0,0.0,0.0,0.0,0.0,0.0,0.0,0.0,0.0,0.0,0.0,0.0,3.864,3.9059,3.9555,4.0079,4.0096,4.0096,4.0096,4.0096,4.0096,4.0096,4.0096,4.035,4.0832,4.0832,4.1474,4.2675,4.2929,4.3453,4.4198,4.4496,4.4615,4.4615,4.4615,4.4615,4.4649,4.5128,4.5331,4.5348,4.5618,4.616,4.6972,4.8206,4.8798,4.9001,4.9001,4.9001,4.9001,4.9001,4.9001,4.9204,5.0185,5.0828,5.1454,5.2469,5.3112,5.3501,5.3501,5.3501,5.3501,5.3501,5.3501,5.3501,5.3501,5.3501,5.3501,5.3501,5.3501,5.3501,5.3501,5.3501,5.3501,5.3501,5.4359,5.5144,5.5649,5.665,5.7474,5.7973,5.7774,5.7613,5.7613,5.7613,5.775,5.7997,5.7997,5.7997,5.7997,5.7997,5.7997,5.7997,5.7997,5.7862,5.7613,5.734,5.6685,4.6413,4.5083,0.0,4.4378,4.3406,0.0,4.2785,0.0,0.0,0.0,0.0,0.0,0.0,0.0,0.0,0.0,0.0,0.0,0.0,0.0,0.0,0.0,0.0,0.0,0.0,0.0,3.7761,3.8606,3.8798,3.9218,0.0,0.0,4.0096,4.0096,4.0096,4.0231,4.0476,4.0476,4.0849,4.1593,4.1593,4.2236,4.3392,4.3392,4.3842,4.4615,4.4615,4.4615,4.4615,4.4615,4.4615,4.4682,4.5415,4.5703,4.5737,4.5991,4.6566,4.7361,4.8578,4.9001,4.9001,4.9001,4.9001,4.9001,4.9001,4.9001,4.9255,5.0473,5.1014,5.1505,5.2756,5.3298,5.3501,5.3501,5.3501,5.3501,5.3501,5.3501,5.3501,5.3501,5.3501,5.3501,5.3501,5.3501,5.3501,5.3501,5.3501,5.3501,5.3501,5.4121,5.4861,5.5621,5.6438,5.7209,5.795,5.7997,5.7997,5.7997,5.7997,5.7997,5.7997,5.7997,5.7997,5.7997,5.7997,5.7997,5.7997,5.7997,5.7997,5.7997,5.7997,5.748]}]]